[[{"header":{"parameterUnit":"m.s-1","parameterCategory":1,"la1":31.0,"la2":29.5877,"lo1":-88.7671,"lo2":-86.6584,"dy":0.0162,"dx":0.0185,"nx":115,"ny":88,"refTime":"2024-06-13T18:00:00:Z","depth":0,"parameterNumber":2,"parameterNumberName":"U-component_of_WINDS"},"data":[0.0,0.0,0.0,0.0,0.0,0.0,0.0,0.0,0.0,0.0,0.0,0.0,0.0,0.0,0.0,0.0,0.0,0.0,0.0,0.0,0.0,0.0,0.0,0.0,0.0,0.0,0.0,0.0,0.0,0.0,0.0,0.0,0.0,0.0,0.0,0.0,0.0,0.0,0.0,0.0,0.0,0.0,0.0,0.0,0.0,0.0,0.0,0.0,0.0,0.0,0.0,0.0,0.0,0.0,0.0,0.0,0.0,0.0,0.0,0.0,0.0,0.0,0.0,0.0,0.0,0.0,0.0,0.0,0.0,0.0,0.0,0.0,0.0,0.0,0.0,0.0,0.0,0.0,0.0,0.0,0.0,0.0,0.0,0.0,0.0,0.0,0.0,0.0,0.0,0.0,0.0,0.0,0.0,0.0,0.0,0.0,0.0,0.0,0.0,0.0,0.0,0.0,0.0,0.0,0.0,0.0,0.0,0.0,0.0,0.0,0.0,0.0,0.0,0.0,0.0,0.0,0.0,0.0,0.0,0.0,0.0,0.0,0.0,0.0,0.0,0.0,0.0,0.0,0.0,0.0,0.0,0.0,0.0,0.0,0.0,0.0,0.0,0.0,0.0,0.0,0.0,0.0,0.0,0.0,0.0,0.0,0.0,0.0,0.0,0.0,0.0,0.0,0.0,0.0,0.0,0.0,0.0,0.0,0.0,0.0,0.0,0.0,0.0,0.0,0.0,0.0,0.0,0.0,0.0,0.0,0.0,0.0,0.0,0.0,0.0,0.0,0.0,0.0,0.0,0.0,0.0,0.0,0.0,0.0,0.0,0.0,0.0,0.0,0.0,0.0,0.0,0.0,0.0,0.0,0.0,0.0,0.0,0.0,0.0,0.0,0.0,0.0,0.0,0.0,0.0,0.0,0.0,0.0,0.0,0.0,0.0,0.0,0.0,0.0,0.0,0.0,0.0,0.0,0.0,0.0,0.0,0.0,0.0,0.0,0.0,0.0,0.0,0.0,0.0,0.0,0.0,0.0,0.0,0.0,0.0,0.0,0.0,0.0,0.0,0.0,0.0,0.0,0.0,0.0,0.0,0.0,0.0,0.0,0.0,0.0,0.0,0.0,0.0,0.0,0.0,0.0,0.0,0.0,0.0,0.0,0.0,0.0,0.0,0.0,0.0,0.0,0.0,0.0,0.0,0.0,0.0,0.0,0.0,0.0,0.0,0.0,0.0,0.0,0.0,0.0,0.0,0.0,0.0,0.0,0.0,0.0,0.0,0.0,0.0,0.0,0.0,0.0,0.0,0.0,0.0,0.0,0.0,0.0,0.0,0.0,0.0,0.0,0.0,0.0,0.0,0.0,0.0,0.0,0.0,0.0,0.0,0.0,0.0,0.0,0.0,0.0,0.0,0.0,0.0,0.0,0.0,0.0,0.0,0.0,0.0,0.0,0.0,0.0,0.0,0.0,0.0,0.0,0.0,0.0,0.0,0.0,0.0,0.0,0.0,0.0,0.0,0.0,0.0,0.0,0.0,0.0,0.0,0.0,0.0,0.0,0.0,0.0,0.0,0.0,0.0,0.0,0.0,0.0,0.0,0.0,0.0,0.0,0.0,0.0,0.0,0.0,0.0,0.0,0.0,0.0,0.0,0.0,0.0,0.0,0.0,0.0,0.0,0.0,0.0,0.0,0.0,0.0,0.0,0.0,0.0,0.0,0.0,0.0,0.0,0.0,0.0,0.0,0.0,0.0,0.0,0.0,0.0,0.0,0.0,0.0,0.0,0.0,0.0,0.0,0.0,0.0,0.0,0.0,0.0,0.0,0.0,0.0,0.0,0.0,0.0,0.0,0.0,0.0,0.0,0.0,0.0,0.0,0.0,0.0,0.0,0.0,0.0,0.0,0.0,0.0,0.0,0.0,0.0,0.0,0.0,0.0,0.0,0.0,0.0,0.0,0.0,0.0,0.0,0.0,0.0,0.0,0.0,0.0,0.0,0.0,0.0,0.0,0.0,0.0,0.0,0.0,0.0,0.0,0.0,0.0,0.0,0.0,0.0,0.0,0.0,0.0,0.0,0.0,0.0,0.0,0.0,0.0,0.0,0.0,0.0,0.0,0.0,0.0,0.0,0.0,0.0,0.0,0.0,0.0,0.0,0.0,0.0,0.0,0.0,0.0,0.0,0.0,0.0,0.0,0.0,0.0,0.0,0.0,0.0,0.0,0.0,0.0,0.0,0.0,0.0,0.0,0.0,0.0,0.0,0.0,0.0,0.0,0.0,0.0,0.0,0.0,0.0,0.0,0.0,0.0,0.0,0.0,0.0,0.0,0.0,0.0,0.0,0.0,0.0,0.0,0.0,0.0,0.0,0.0,0.0,0.0,0.0,0.0,0.0,0.0,0.0,0.0,0.0,0.0,0.0,0.0,0.0,0.0,0.0,0.0,0.0,0.0,0.0,0.0,0.0,0.0,0.0,0.0,0.0,0.0,0.0,0.0,0.0,0.0,0.0,0.0,0.0,0.0,0.0,0.0,0.0,0.0,0.0,0.0,0.0,0.0,0.0,0.0,0.0,0.0,0.0,0.0,0.0,0.0,0.0,0.0,0.0,0.0,0.0,0.0,0.0,0.0,0.0,0.0,0.0,0.0,0.0,0.0,0.0,0.0,0.0,0.0,0.0,0.0,0.0,0.0,0.0,0.0,0.0,0.0,0.0,0.0,0.0,0.0,0.0,0.0,0.0,0.0,0.0,0.0,0.0,0.0,0.0,0.0,0.0,0.0,0.0,0.0,0.0,0.0,0.0,0.0,0.0,0.0,0.0,0.0,0.0,0.0,0.0,0.0,0.0,0.0,0.0,0.0,0.0,0.0,0.0,0.0,0.0,0.0,0.0,0.0,0.0,0.0,0.0,0.0,0.0,0.0,0.0,0.0,0.0,0.0,0.0,0.0,0.0,0.0,0.0,0.0,0.0,0.0,0.0,0.0,0.0,0.0,0.0,0.0,0.0,0.0,0.0,0.0,0.0,0.0,0.0,0.0,0.0,0.0,0.0,0.0,0.0,0.0,0.0,0.0,0.0,0.0,0.0,0.0,0.0,0.0,0.0,0.0,0.0,0.0,0.0,0.0,0.0,0.0,0.0,0.0,0.0,0.0,0.0,0.0,0.0,0.0,0.0,0.0,0.0,0.0,0.0,0.0,0.0,0.0,0.0,0.0,0.0,0.0,0.0,0.0,0.0,0.0,0.0,0.0,0.0,0.0,0.0,0.0,0.0,0.0,0.0,0.0,0.0,0.0,0.0,0.0,0.0,0.0,0.0,0.0,0.0,0.0,0.0,0.0,0.0,0.0,0.0,0.0,0.0,0.0,0.0,0.0,0.0,0.0,0.0,0.0,0.0,0.0,0.0,0.0,0.0,0.0,0.0,0.0,0.0,0.0,0.0,0.0,0.0,0.0,0.0,0.0,0.0,0.0,0.0,0.0,0.0,0.0,0.0,0.0,0.0,0.0,0.0,0.0,0.0,0.0,0.0,0.0,0.0,0.0,0.0,0.0,0.0,0.0,0.0,0.0,0.0,0.0,0.0,0.0,0.0,0.0,0.0,0.0,0.0,0.0,0.0,0.0,0.0,0.0,0.0,0.0,0.0,0.0,0.0,0.0,0.0,0.0,0.0,0.0,0.0,0.0,0.0,0.0,0.0,0.0,0.0,0.0,0.0,0.0,0.0,0.0,0.0,0.0,0.0,0.0,0.0,0.0,0.0,0.0,0.0,0.0,0.0,0.0,0.0,0.0,0.0,0.0,0.0,0.0,0.0,0.0,0.0,0.0,0.0,0.0,0.0,0.0,0.0,0.0,0.0,0.0,0.0,0.0,0.0,0.0,0.0,0.0,0.0,0.0,0.0,0.0,0.0,0.0,0.0,0.0,0.0,0.0,0.0,0.0,0.0,0.0,0.0,0.0,0.0,0.0,0.0,0.0,0.0,0.0,0.0,0.0,0.0,0.0,0.0,0.0,0.0,0.0,0.0,0.0,0.0,0.0,0.0,0.0,0.0,0.0,0.0,0.0,0.0,0.0,0.0,0.0,0.0,0.0,0.0,0.0,0.0,0.0,0.0,0.0,0.0,0.0,0.0,0.0,0.0,0.0,0.0,0.0,0.0,0.0,0.0,0.0,0.0,0.0,0.0,0.0,0.0,0.0,0.0,0.0,0.0,0.0,0.0,0.0,0.0,0.0,0.0,0.0,0.0,0.0,0.0,0.0,0.0,0.0,0.0,0.0,0.0,0.0,-1.8817,0.0,0.0,0.0,0.0,0.0,0.0,0.0,0.0,0.0,0.0,0.0,0.0,0.0,0.0,0.0,0.0,0.0,0.0,0.0,0.0,0.0,0.0,0.0,0.0,0.0,0.0,0.0,0.0,0.0,0.0,0.0,0.0,0.0,0.0,0.0,0.0,0.0,0.0,0.0,0.0,0.0,0.0,0.0,0.0,0.0,0.0,0.0,0.0,0.0,0.0,0.0,0.0,0.0,0.0,0.0,0.0,0.0,0.0,0.0,0.0,0.0,0.0,0.0,0.0,0.0,0.0,0.0,0.0,0.0,0.0,0.0,0.0,0.0,0.0,0.0,0.0,0.0,0.0,0.0,0.0,0.0,0.0,0.0,0.0,0.0,0.0,0.0,0.0,0.0,0.0,0.0,0.0,0.0,0.0,0.0,0.0,0.0,0.0,0.0,0.0,0.0,0.0,0.0,0.0,0.0,0.0,0.0,0.0,0.0,0.0,-2.082,-2.0586,-2.0605,-2.0196,-1.9336,0.0,0.0,0.0,0.0,0.0,0.0,0.0,0.0,0.0,0.0,0.0,0.0,0.0,0.0,0.0,0.0,0.0,0.0,0.0,0.0,0.0,0.0,0.0,0.0,0.0,0.0,0.0,0.0,0.0,0.0,0.0,0.0,0.0,0.0,0.0,0.0,0.0,0.0,0.0,0.0,0.0,0.0,0.0,0.0,0.0,0.0,0.0,0.0,0.0,0.0,0.0,0.0,0.0,0.0,0.0,0.0,0.0,0.0,0.0,0.0,0.0,0.0,0.0,0.0,0.0,0.0,0.0,0.0,0.0,0.0,0.0,0.0,0.0,0.0,0.0,0.0,0.0,0.0,0.0,0.0,0.0,0.0,0.0,0.0,0.0,0.0,0.0,0.0,0.0,0.0,0.0,0.0,0.0,0.0,0.0,0.0,0.0,0.0,0.0,0.0,0.0,0.0,0.0,0.0,0.0,0.0,0.0,0.0,0.0,0.0,0.0,0.0,-2.1035,-2.0547,-1.9215,0.0,0.0,0.0,0.0,0.0,0.0,0.0,0.0,0.0,0.0,0.0,0.0,0.0,0.0,0.0,0.0,0.0,0.0,0.0,0.0,0.0,0.0,0.0,0.0,0.0,0.0,0.0,0.0,0.0,0.0,0.0,0.0,0.0,0.0,0.0,0.0,0.0,0.0,0.0,0.0,0.0,0.0,0.0,0.0,0.0,0.0,0.0,0.0,0.0,0.0,0.0,0.0,0.0,0.0,0.0,0.0,0.0,0.0,0.0,0.0,0.0,0.0,0.0,0.0,0.0,0.0,0.0,0.0,0.0,0.0,0.0,0.0,0.0,0.0,0.0,0.0,0.0,0.0,0.0,0.0,0.0,0.0,0.0,0.0,0.0,0.0,0.0,0.0,0.0,0.0,0.0,0.0,0.0,0.0,0.0,0.0,0.0,0.0,0.0,0.0,0.0,0.0,0.0,0.0,0.0,0.0,0.0,0.0,0.0,0.0,-2.082,-2.1132,-2.1191,0.0,-1.8706,0.0,0.0,0.0,0.0,0.0,0.0,0.0,0.0,0.0,0.0,0.0,0.0,0.0,0.0,0.0,0.0,0.0,0.0,0.0,0.0,0.0,0.0,0.0,0.0,0.0,0.0,0.0,0.0,0.0,0.0,0.0,0.0,0.0,0.0,0.0,0.0,0.0,0.0,0.0,0.0,0.0,0.0,0.0,0.0,0.0,0.0,0.0,0.0,0.0,0.0,0.0,0.0,0.0,0.0,0.0,0.0,0.0,0.0,0.0,0.0,0.0,0.0,0.0,0.0,0.0,0.0,0.0,0.0,0.0,0.0,0.0,0.0,0.0,0.0,0.0,0.0,0.0,0.0,0.0,0.0,0.0,0.0,0.0,0.0,0.0,0.0,0.0,0.0,0.0,0.0,0.0,0.0,0.0,0.0,0.0,0.0,0.0,0.0,0.0,0.0,0.0,0.0,0.0,0.0,0.0,0.0,0.0,0.0,0.0,0.0,-2.1309,-2.123,-2.0703,-2.0082,0.0,0.0,0.0,0.0,0.0,0.0,0.0,0.0,0.0,0.0,0.0,0.0,0.0,0.0,0.0,0.0,0.0,0.0,0.0,0.0,0.0,0.0,0.0,0.0,0.0,0.0,0.0,0.0,0.0,0.0,0.0,0.0,0.0,0.0,0.0,0.0,0.0,0.0,0.0,0.0,0.0,0.0,0.0,0.0,0.0,0.0,0.0,0.0,0.0,0.0,0.0,0.0,0.0,0.0,0.0,0.0,0.0,0.0,0.0,0.0,0.0,0.0,0.0,0.0,0.0,0.0,0.0,0.0,0.0,0.0,0.0,0.0,0.0,0.0,0.0,0.0,0.0,0.0,0.0,0.0,0.0,0.0,0.0,0.0,0.0,0.0,0.0,0.0,0.0,0.0,0.0,0.0,0.0,0.0,0.0,0.0,0.0,0.0,0.0,0.0,0.0,0.0,0.0,0.0,0.0,0.0,0.0,0.0,0.0,0.0,-2.1466,-2.1621,-2.1386,-2.0801,-2.0293,-1.9922,0.0,0.0,0.0,0.0,0.0,0.0,0.0,0.0,0.0,0.0,0.0,0.0,0.0,0.0,0.0,0.0,0.0,0.0,0.0,0.0,0.0,0.0,0.0,0.0,0.0,0.0,0.0,0.0,0.0,0.0,0.0,0.0,0.0,0.0,0.0,0.0,0.0,0.0,0.0,0.0,0.0,0.0,0.0,0.0,0.0,0.0,0.0,0.0,0.0,0.0,0.0,0.0,0.0,0.0,0.0,0.0,0.0,0.0,0.0,0.0,0.0,0.0,0.0,0.0,0.0,0.0,0.0,0.0,0.0,0.0,0.0,0.0,0.0,0.0,0.0,0.0,0.0,0.0,0.0,0.0,0.0,0.0,0.0,0.0,0.0,0.0,0.0,0.0,0.0,0.0,0.0,0.0,0.0,0.0,0.0,0.0,0.0,0.0,0.0,0.0,0.0,0.0,0.0,0.0,0.0,0.0,0.0,0.0,-2.1778,-2.1425,-2.1445,-2.1815,-2.1816,-2.1211,0.0,0.0,0.0,0.0,0.0,0.0,0.0,0.0,0.0,0.0,0.0,0.0,0.0,0.0,0.0,0.0,0.0,0.0,0.0,0.0,0.0,0.0,0.0,0.0,0.0,0.0,0.0,0.0,0.0,0.0,0.0,0.0,0.0,0.0,0.0,0.0,0.0,0.0,0.0,0.0,0.0,0.0,0.0,0.0,0.0,0.0,0.0,0.0,0.0,0.0,0.0,0.0,0.0,0.0,0.0,0.0,0.0,0.0,0.0,0.0,0.0,0.0,0.0,0.0,0.0,0.0,0.0,0.0,0.0,0.0,0.0,0.0,0.0,0.0,0.0,0.0,0.0,0.0,0.0,0.0,0.0,0.0,0.0,0.0,0.0,0.0,0.0,0.0,0.0,0.0,0.0,0.0,0.0,0.0,0.0,0.0,0.0,0.0,0.0,0.0,0.0,0.0,0.0,0.0,0.0,0.0,0.0,0.0,0.0,-2.1055,-2.1152,-2.1174,-2.1134,-2.081,-2.0158,0.0,0.0,0.0,0.0,0.0,0.0,0.0,0.0,0.0,0.0,0.0,0.0,0.0,0.0,0.0,0.0,0.0,0.0,0.0,0.0,0.0,0.0,0.0,0.0,0.0,0.0,0.0,0.0,0.0,0.0,0.0,0.0,0.0,0.0,0.0,0.0,0.0,0.0,0.0,0.0,0.0,0.0,0.0,0.0,0.0,0.0,0.0,0.0,0.0,0.0,0.0,0.0,0.0,0.0,0.0,0.0,0.0,0.0,0.0,0.0,0.0,0.0,0.0,0.0,0.0,0.0,0.0,0.0,0.0,0.0,0.0,0.0,0.0,0.0,0.0,0.0,0.0,0.0,0.0,0.0,0.0,0.0,0.0,0.0,0.0,0.0,0.0,0.0,0.0,0.0,0.0,0.0,0.0,0.0,0.0,0.0,0.0,0.0,0.0,0.0,0.0,0.0,0.0,0.0,0.0,0.0,0.0,0.0,0.0,-2.1016,0.0,-2.1443,0.0,-2.0751,-2.0023,0.0,0.0,0.0,0.0,0.0,0.0,0.0,0.0,0.0,0.0,0.0,0.0,0.0,0.0,0.0,0.0,0.0,0.0,0.0,0.0,0.0,0.0,0.0,0.0,0.0,0.0,0.0,0.0,0.0,0.0,0.0,0.0,0.0,0.0,0.0,0.0,0.0,0.0,0.0,0.0,0.0,0.0,0.0,0.0,0.0,0.0,0.0,0.0,0.0,0.0,0.0,0.0,0.0,0.0,0.0,0.0,0.0,0.0,0.0,0.0,0.0,0.0,0.0,0.0,0.0,0.0,0.0,0.0,0.0,0.0,0.0,0.0,0.0,0.0,0.0,0.0,0.0,0.0,0.0,0.0,0.0,0.0,0.0,0.0,0.0,0.0,0.0,0.0,0.0,0.0,0.0,0.0,0.0,0.0,0.0,0.0,0.0,0.0,0.0,0.0,0.0,0.0,0.0,0.0,0.0,0.0,0.0,0.0,-2.1055,-2.1836,-2.2183,-2.2055,-2.1852,-2.1713,-2.0975,0.0,0.0,0.0,0.0,0.0,0.0,0.0,0.0,0.0,0.0,0.0,0.0,0.0,0.0,0.0,0.0,0.0,0.0,0.0,0.0,0.0,0.0,0.0,0.0,0.0,0.0,0.0,0.0,0.0,0.0,0.0,0.0,0.0,0.0,0.0,0.0,0.0,0.0,0.0,0.0,0.0,0.0,0.0,0.0,0.0,0.0,0.0,0.0,0.0,0.0,0.0,0.0,0.0,0.0,0.0,0.0,0.0,0.0,0.0,0.0,0.0,0.0,0.0,0.0,0.0,0.0,0.0,0.0,0.0,0.0,0.0,0.0,0.0,0.0,0.0,0.0,0.0,0.0,0.0,0.0,0.0,0.0,0.0,0.0,0.0,0.0,0.0,0.0,0.0,0.0,0.0,0.0,0.0,0.0,0.0,0.0,0.0,0.0,0.0,0.0,0.0,0.0,0.0,0.0,0.0,0.0,0.0,0.0,0.0,-2.1405,-2.0193,-1.9748,-2.0095,-1.9832,-1.9293,0.0,0.0,0.0,0.0,0.0,0.0,0.0,0.0,0.0,0.0,0.0,0.0,0.0,0.0,0.0,0.0,0.0,0.0,0.0,0.0,0.0,0.0,0.0,0.0,0.0,0.0,0.0,0.0,0.0,0.0,0.0,0.0,0.0,0.0,0.0,0.0,0.0,0.0,0.0,0.0,0.0,0.0,0.0,0.0,0.0,0.0,0.0,0.0,0.0,0.0,0.0,0.0,0.0,0.0,0.0,0.0,0.0,0.0,0.0,0.0,0.0,0.0,0.0,0.0,0.0,0.0,0.0,0.0,0.0,0.0,0.0,0.0,0.0,0.0,0.0,0.0,0.0,0.0,0.0,0.0,0.0,0.0,0.0,0.0,0.0,0.0,0.0,0.0,0.0,0.0,0.0,0.0,0.0,0.0,0.0,0.0,0.0,0.0,0.0,0.0,0.0,0.0,0.0,0.0,0.0,0.0,0.0,0.0,0.0,-2.0665,-2.0432,-2.043,-2.0697,-2.0495,-1.9932,-1.9019,0.0,0.0,0.0,0.0,0.0,0.0,0.0,0.0,0.0,0.0,0.0,0.0,0.0,0.0,0.0,0.0,0.0,0.0,0.0,0.0,0.0,0.0,0.0,0.0,0.0,0.0,0.0,0.0,0.0,0.0,0.0,0.0,0.0,0.0,0.0,0.0,0.0,0.0,0.0,0.0,0.0,0.0,0.0,0.0,0.0,0.0,0.0,0.0,0.0,0.0,0.0,0.0,0.0,0.0,0.0,0.0,0.0,0.0,0.0,0.0,0.0,0.0,0.0,0.0,0.0,0.0,0.0,0.0,0.0,0.0,0.0,0.0,0.0,0.0,0.0,0.0,0.0,0.0,0.0,0.0,0.0,0.0,0.0,0.0,0.0,0.0,0.0,0.0,0.0,0.0,0.0,0.0,0.0,0.0,0.0,0.0,0.0,0.0,0.0,0.0,0.0,0.0,0.0,0.0,0.0,0.0,0.0,0.0,-1.9886,-2.2552,-2.3551,-2.2815,-2.2851,-2.2231,0.0,0.0,0.0,0.0,0.0,0.0,0.0,0.0,0.0,0.0,0.0,0.0,0.0,0.0,0.0,0.0,0.0,0.0,0.0,0.0,0.0,0.0,0.0,0.0,0.0,0.0,0.0,0.0,0.0,0.0,0.0,0.0,0.0,0.0,0.0,0.0,0.0,0.0,0.0,0.0,0.0,0.0,0.0,0.0,0.0,0.0,0.0,0.0,0.0,0.0,0.0,0.0,0.0,0.0,0.0,0.0,0.0,0.0,0.0,0.0,0.0,0.0,0.0,0.0,0.0,0.0,0.0,0.0,0.0,0.0,0.0,0.0,0.0,0.0,0.0,0.0,0.0,0.0,0.0,0.0,0.0,0.0,0.0,0.0,0.0,0.0,0.0,0.0,0.0,0.0,0.0,0.0,0.0,0.0,0.0,0.0,0.0,0.0,0.0,0.0,0.0,0.0,0.0,0.0,0.0,0.0,0.0,0.0,0.0,-2.247,-2.4581,-2.4018,-2.0537,-2.0519,-2.04,0.0,0.0,0.0,0.0,0.0,0.0,0.0,0.0,0.0,0.0,0.0,0.0,0.0,0.0,0.0,0.0,0.0,0.0,0.0,0.0,0.0,0.0,0.0,0.0,0.0,0.0,0.0,0.0,0.0,0.0,0.0,0.0,0.0,0.0,0.0,0.0,0.0,0.0,0.0,0.0,0.0,0.0,0.0,0.0,0.0,0.0,0.0,0.0,0.0,0.0,0.0,0.0,0.0,0.0,0.0,0.0,0.0,0.0,0.0,0.0,0.0,0.0,0.0,0.0,0.0,0.0,0.0,0.0,0.0,0.0,0.0,0.0,0.0,0.0,0.0,0.0,0.0,0.0,0.0,0.0,0.0,0.0,0.0,0.0,0.0,0.0,0.0,0.0,0.0,0.0,0.0,0.0,0.0,0.0,0.0,0.0,0.0,0.0,0.0,0.0,0.0,0.0,0.0,0.0,0.0,0.0,0.0,0.0,-2.2296,-2.1096,-2.2469,-2.1932,-1.9266,-2.0724,-2.1449,0.0,0.0,0.0,0.0,0.0,0.0,0.0,0.0,0.0,0.0,0.0,0.0,0.0,0.0,0.0,0.0,0.0,0.0,0.0,0.0,0.0,0.0,0.0,0.0,0.0,0.0,0.0,0.0,0.0,0.0,0.0,0.0,0.0,0.0,0.0,0.0,0.0,0.0,0.0,0.0,0.0,0.0,0.0,0.0,0.0,0.0,0.0,0.0,0.0,0.0,0.0,0.0,0.0,0.0,0.0,0.0,0.0,0.0,0.0,0.0,0.0,0.0,0.0,0.0,0.0,0.0,0.0,0.0,0.0,0.0,0.0,0.0,0.0,0.0,0.0,0.0,0.0,0.0,0.0,0.0,0.0,0.0,0.0,0.0,0.0,0.0,0.0,0.0,0.0,0.0,0.0,0.0,0.0,0.0,0.0,0.0,0.0,0.0,0.0,0.0,0.0,0.0,0.0,0.0,0.0,0.0,0.0,0.0,-2.0317,-1.8576,-1.9264,-1.9554,-1.9428,-2.216,-2.3419,0.0,0.0,0.0,0.0,0.0,0.0,0.0,0.0,0.0,0.0,0.0,0.0,0.0,0.0,0.0,0.0,0.0,0.0,0.0,0.0,0.0,0.0,0.0,0.0,0.0,0.0,0.0,0.0,0.0,0.0,0.0,0.0,0.0,0.0,0.0,0.0,0.0,0.0,0.0,0.0,0.0,0.0,0.0,0.0,0.0,0.0,0.0,0.0,0.0,0.0,0.0,0.0,0.0,0.0,0.0,0.0,0.0,0.0,0.0,0.0,0.0,0.0,0.0,0.0,0.0,0.0,0.0,0.0,0.0,0.0,0.0,0.0,0.0,0.0,0.0,0.0,0.0,0.0,0.0,0.0,0.0,0.0,0.0,0.0,0.0,0.0,0.0,0.0,0.0,0.0,0.0,0.0,0.0,0.0,0.0,0.0,0.0,0.0,0.0,0.0,0.0,0.0,0.0,0.0,0.0,0.0,0.0,0.0,-2.2997,-2.1943,-2.3626,-2.385,-2.2324,-2.1324,-2.0941,0.0,0.0,0.0,0.0,0.0,0.0,0.0,0.0,0.0,0.0,0.0,0.0,0.0,0.0,0.0,0.0,0.0,0.0,0.0,0.0,0.0,0.0,0.0,0.0,0.0,0.0,0.0,0.0,0.0,0.0,0.0,0.0,0.0,0.0,0.0,0.0,0.0,0.0,0.0,0.0,0.0,0.0,0.0,0.0,0.0,0.0,0.0,0.0,-1.6152,0.0,0.0,0.0,0.0,0.0,0.0,0.0,0.0,0.0,0.0,0.0,0.0,0.0,0.0,0.0,0.0,0.0,0.0,0.0,0.0,0.0,0.0,0.0,0.0,0.0,0.0,0.0,0.0,0.0,0.0,0.0,0.0,0.0,0.0,0.0,0.0,0.0,0.0,0.0,0.0,0.0,0.0,0.0,0.0,0.0,0.0,0.0,0.0,0.0,0.0,0.0,0.0,0.0,0.0,0.0,0.0,0.0,0.0,0.0,-2.2209,-2.1483,-2.2539,-2.2648,-2.1613,-2.0066,-2.0024,0.0,0.0,0.0,0.0,0.0,0.0,0.0,0.0,0.0,0.0,0.0,0.0,0.0,0.0,0.0,0.0,0.0,0.0,0.0,0.0,0.0,0.0,0.0,0.0,0.0,0.0,0.0,0.0,0.0,0.0,0.0,0.0,0.0,0.0,0.0,0.0,0.0,0.0,0.0,0.0,0.0,0.0,0.0,0.0,0.0,0.0,0.0,0.0,0.0,0.0,0.0,0.0,0.0,0.0,0.0,0.0,0.0,0.0,0.0,0.0,0.0,0.0,0.0,0.0,0.0,0.0,0.0,0.0,0.0,0.0,0.0,0.0,0.0,0.0,0.0,0.0,0.0,0.0,0.0,0.0,0.0,0.0,0.0,0.0,0.0,0.0,0.0,0.0,0.0,0.0,0.0,0.0,0.0,0.0,0.0,0.0,0.0,0.0,0.0,0.0,0.0,0.0,0.0,0.0,0.0,0.0,0.0,-2.1426,-2.1109,-2.0613,-2.0746,-2.0748,-2.0498,-1.9413,-2.0127,-2.275,0.0,0.0,0.0,0.0,0.0,0.0,0.0,0.0,0.0,0.0,0.0,0.0,0.0,0.0,0.0,0.0,0.0,0.0,0.0,0.0,0.0,0.0,0.0,0.0,0.0,0.0,0.0,0.0,0.0,0.0,0.0,0.0,0.0,0.0,0.0,0.0,0.0,0.0,-1.5928,-1.6259,0.0,0.0,0.0,0.0,0.0,0.0,0.0,0.0,-1.6364,0.0,0.0,0.0,0.0,0.0,0.0,0.0,0.0,0.0,0.0,0.0,0.0,0.0,0.0,0.0,0.0,0.0,0.0,0.0,0.0,0.0,0.0,0.0,0.0,0.0,0.0,0.0,0.0,0.0,0.0,0.0,0.0,0.0,0.0,0.0,0.0,0.0,0.0,0.0,0.0,0.0,0.0,0.0,0.0,0.0,0.0,0.0,0.0,0.0,0.0,0.0,0.0,0.0,0.0,0.0,0.0,-2.2727,-2.3777,-2.4214,-2.4066,-2.5047,-2.498,-2.3722,-2.1511,-2.1306,-2.3122,0.0,0.0,0.0,0.0,0.0,0.0,0.0,0.0,0.0,0.0,0.0,0.0,0.0,0.0,0.0,0.0,0.0,0.0,0.0,0.0,0.0,0.0,0.0,0.0,0.0,0.0,0.0,0.0,0.0,0.0,0.0,0.0,0.0,0.0,0.0,0.0,0.0,0.0,0.0,-1.7021,-1.7301,0.0,0.0,0.0,0.0,0.0,0.0,0.0,0.0,-1.6551,0.0,0.0,0.0,0.0,0.0,0.0,0.0,0.0,0.0,0.0,0.0,0.0,0.0,0.0,0.0,0.0,0.0,0.0,0.0,0.0,0.0,0.0,0.0,0.0,0.0,0.0,0.0,0.0,0.0,0.0,0.0,0.0,0.0,0.0,0.0,0.0,0.0,0.0,0.0,0.0,0.0,0.0,0.0,0.0,0.0,0.0,0.0,0.0,0.0,0.0,0.0,0.0,0.0,0.0,0.0,-2.2506,-2.2521,-2.2645,-2.293,-2.3181,-2.3008,-2.2259,-2.0354,-2.0268,0.0,0.0,0.0,0.0,0.0,0.0,0.0,0.0,0.0,0.0,0.0,0.0,0.0,0.0,0.0,0.0,0.0,0.0,0.0,0.0,0.0,0.0,0.0,0.0,0.0,0.0,0.0,0.0,0.0,0.0,0.0,0.0,0.0,0.0,0.0,0.0,0.0,0.0,0.0,0.0,-1.7341,-1.7622,-1.7609,0.0,0.0,0.0,0.0,0.0,0.0,-1.6805,-1.6725,0.0,0.0,0.0,0.0,0.0,0.0,0.0,0.0,0.0,0.0,0.0,0.0,0.0,0.0,0.0,0.0,0.0,0.0,0.0,0.0,0.0,0.0,0.0,0.0,0.0,0.0,0.0,0.0,0.0,0.0,0.0,0.0,0.0,0.0,0.0,0.0,0.0,0.0,0.0,0.0,0.0,0.0,0.0,0.0,0.0,0.0,0.0,0.0,0.0,0.0,0.0,0.0,0.0,0.0,0.0,-2.2044,-2.1306,-2.1105,-2.1564,-2.136,-2.1206,-2.1108,-1.9498,-1.9616,0.0,0.0,0.0,0.0,0.0,0.0,0.0,0.0,0.0,0.0,0.0,0.0,0.0,0.0,0.0,0.0,0.0,0.0,0.0,0.0,0.0,0.0,0.0,0.0,0.0,0.0,0.0,0.0,0.0,0.0,0.0,0.0,0.0,0.0,0.0,0.0,0.0,0.0,0.0,0.0,0.0,-1.8036,-1.8022,-1.7916,0.0,0.0,0.0,0.0,-1.7474,-1.7301,0.0,0.0,0.0,0.0,0.0,0.0,0.0,0.0,0.0,0.0,0.0,0.0,0.0,0.0,0.0,0.0,0.0,0.0,0.0,0.0,0.0,0.0,0.0,0.0,0.0,0.0,0.0,0.0,0.0,0.0,0.0,0.0,0.0,0.0,0.0,0.0,0.0,0.0,0.0,0.0,0.0,0.0,0.0,0.0,0.0,0.0,0.0,0.0,0.0,0.0,0.0,0.0,0.0,0.0,0.0,0.0,-2.2092,-2.2851,-2.324,-2.336,-2.4204,-2.4604,-2.434,-2.2007,-2.1509,0.0,0.0,0.0,0.0,0.0,0.0,0.0,0.0,0.0,0.0,0.0,0.0,0.0,0.0,0.0,0.0,0.0,0.0,0.0,0.0,0.0,0.0,0.0,0.0,0.0,0.0,0.0,0.0,0.0,0.0,0.0,0.0,0.0,0.0,0.0,0.0,0.0,0.0,0.0,0.0,0.0,-1.9172,-1.8129,-1.8436,-1.8543,0.0,0.0,-1.8343,-1.8371,-1.8517,0.0,0.0,0.0,0.0,0.0,0.0,0.0,0.0,0.0,0.0,0.0,0.0,0.0,0.0,0.0,0.0,0.0,0.0,0.0,0.0,0.0,0.0,0.0,0.0,0.0,0.0,0.0,0.0,0.0,0.0,0.0,0.0,0.0,0.0,0.0,0.0,0.0,0.0,0.0,0.0,0.0,0.0,0.0,0.0,0.0,0.0,0.0,0.0,0.0,0.0,0.0,0.0,0.0,0.0,0.0,-2.147,-2.2071,-2.2011,-2.2043,-2.2173,-2.2508,-2.2539,-2.223,-2.0516,-2.0099,0.0,0.0,0.0,0.0,0.0,0.0,0.0,0.0,0.0,0.0,0.0,0.0,0.0,0.0,0.0,0.0,0.0,0.0,0.0,0.0,0.0,0.0,0.0,0.0,0.0,0.0,0.0,0.0,0.0,0.0,0.0,0.0,0.0,0.0,0.0,0.0,0.0,0.0,0.0,0.0,0.0,0.0,-1.9065,-1.9118,0.0,0.0,0.0,-1.9013,-1.9013,0.0,0.0,0.0,0.0,0.0,0.0,0.0,0.0,0.0,0.0,0.0,0.0,0.0,0.0,0.0,0.0,0.0,0.0,0.0,0.0,0.0,0.0,0.0,0.0,0.0,0.0,0.0,0.0,0.0,0.0,0.0,0.0,0.0,0.0,0.0,0.0,0.0,0.0,0.0,0.0,0.0,0.0,0.0,0.0,0.0,0.0,0.0,0.0,0.0,0.0,0.0,0.0,0.0,0.0,0.0,0.0,0.0,-2.163,-2.1036,-2.0846,-2.1096,-2.0895,-2.0615,-2.0197,-1.921,0.0,0.0,0.0,0.0,0.0,0.0,0.0,0.0,0.0,0.0,0.0,0.0,0.0,0.0,0.0,0.0,0.0,0.0,0.0,0.0,0.0,0.0,0.0,0.0,0.0,0.0,0.0,-1.3828,0.0,0.0,0.0,0.0,0.0,0.0,0.0,0.0,0.0,0.0,0.0,0.0,0.0,0.0,-1.9276,-1.9746,-1.9776,-1.9776,0.0,0.0,-1.9696,-1.9629,-1.9533,-1.921,0.0,0.0,0.0,0.0,0.0,0.0,0.0,0.0,0.0,0.0,0.0,0.0,0.0,0.0,0.0,0.0,0.0,0.0,0.0,0.0,0.0,0.0,0.0,0.0,0.0,0.0,0.0,0.0,0.0,0.0,0.0,0.0,0.0,0.0,0.0,0.0,0.0,0.0,0.0,0.0,0.0,0.0,0.0,0.0,0.0,0.0,0.0,0.0,0.0,0.0,0.0,0.0,0.0,0.0,-1.8984,-2.0359,-2.0591,-2.0815,-2.1096,-2.1064,-2.0815,-2.021,-1.9639,-1.9347,0.0,0.0,0.0,0.0,0.0,0.0,0.0,0.0,0.0,0.0,0.0,0.0,0.0,0.0,0.0,0.0,0.0,0.0,0.0,0.0,0.0,0.0,0.0,0.0,0.0,0.0,0.0,0.0,0.0,0.0,0.0,0.0,0.0,0.0,0.0,0.0,0.0,0.0,0.0,0.0,0.0,-1.976,-1.98,-2.0254,-2.0525,0.0,-2.0428,-2.0494,-2.0184,-2.0584,-2.0401,-1.8758,0.0,0.0,0.0,0.0,0.0,0.0,0.0,0.0,0.0,0.0,0.0,0.0,0.0,0.0,0.0,0.0,0.0,0.0,0.0,0.0,0.0,0.0,0.0,0.0,0.0,0.0,0.0,0.0,0.0,0.0,0.0,0.0,0.0,0.0,0.0,0.0,0.0,0.0,0.0,0.0,0.0,0.0,0.0,0.0,0.0,0.0,0.0,0.0,0.0,0.0,0.0,0.0,0.0,-1.9724,-2.0303,-2.0741,-2.1002,-2.1096,-2.1109,-2.0922,-2.0521,-1.9933,-1.9307,0.0,0.0,0.0,0.0,0.0,0.0,0.0,0.0,0.0,0.0,0.0,0.0,0.0,0.0,0.0,0.0,0.0,0.0,0.0,0.0,0.0,0.0,0.0,0.0,0.0,0.0,0.0,0.0,-1.5324,-1.5458,-1.5621,0.0,0.0,0.0,0.0,0.0,0.0,0.0,0.0,0.0,0.0,-1.9933,-2.0281,-2.0565,0.0,0.0,-2.0869,-2.0909,-2.0757,-2.0815,-2.0494,-1.9466,-1.9239,0.0,0.0,0.0,0.0,0.0,0.0,0.0,0.0,0.0,0.0,0.0,0.0,0.0,0.0,0.0,0.0,0.0,0.0,0.0,0.0,0.0,0.0,0.0,0.0,0.0,0.0,0.0,0.0,0.0,0.0,0.0,0.0,0.0,0.0,0.0,0.0,0.0,0.0,0.0,0.0,0.0,0.0,0.0,0.0,0.0,0.0,0.0,0.0,0.0,0.0,0.0,0.0,-1.9814,-1.9872,-2.0665,-2.1109,-2.1109,-2.1109,-2.0975,-2.0712,-2.0107,-1.9292,0.0,0.0,0.0,0.0,0.0,0.0,0.0,0.0,0.0,0.0,0.0,0.0,0.0,0.0,0.0,0.0,0.0,0.0,0.0,0.0,0.0,0.0,0.0,0.0,0.0,0.0,0.0,0.0,-1.5524,-1.5581,-1.5781,0.0,0.0,0.0,0.0,0.0,0.0,0.0,0.0,0.0,0.0,-2.0147,-2.0722,-2.0833,-2.094,-2.1203,-2.1162,-2.1136,-2.1229,-2.1069,-2.0708,-2.004,0.0,0.0,0.0,0.0,0.0,0.0,0.0,0.0,0.0,0.0,0.0,0.0,0.0,0.0,0.0,0.0,0.0,0.0,0.0,0.0,0.0,0.0,0.0,0.0,0.0,0.0,0.0,-1.5808,0.0,0.0,-1.5781,0.0,0.0,0.0,0.0,0.0,0.0,0.0,0.0,0.0,0.0,0.0,0.0,0.0,0.0,0.0,0.0,0.0,0.0,0.0,0.0,0.0,0.0,-1.868,-1.8946,-2.0361,-2.1109,-2.1109,-2.1109,-2.0975,-2.0712,-2.0151,-1.9386,-1.849,0.0,0.0,0.0,0.0,0.0,0.0,0.0,0.0,0.0,0.0,0.0,0.0,0.0,0.0,0.0,0.0,0.0,0.0,0.0,0.0,0.0,0.0,0.0,0.0,0.0,0.0,-1.5781,-1.5795,-1.5808,0.0,0.0,0.0,0.0,0.0,0.0,0.0,0.0,0.0,-1.9653,-1.9997,-2.041,-2.1015,-2.1096,-2.1216,-2.1561,-2.1341,-2.1216,-2.1542,-2.1569,-2.1274,0.0,0.0,0.0,0.0,0.0,0.0,0.0,0.0,0.0,0.0,0.0,0.0,0.0,0.0,0.0,0.0,0.0,0.0,0.0,0.0,0.0,0.0,0.0,0.0,0.0,0.0,0.0,-1.6887,-1.6739,0.0,0.0,0.0,0.0,0.0,0.0,0.0,0.0,0.0,0.0,0.0,-1.8357,-1.8744,0.0,0.0,0.0,0.0,0.0,0.0,0.0,0.0,0.0,0.0,0.0,0.0,-1.8637,-1.8943,-2.0361,-2.1109,-2.1109,-2.1109,-2.1056,-2.0962,-2.0588,-1.9679,-1.8196,0.0,0.0,0.0,0.0,0.0,0.0,0.0,0.0,0.0,0.0,0.0,0.0,0.0,0.0,0.0,0.0,0.0,0.0,0.0,0.0,0.0,0.0,0.0,0.0,0.0,-1.5808,0.0,0.0,0.0,0.0,0.0,0.0,0.0,0.0,0.0,0.0,0.0,-1.9319,-1.997,-2.0508,-2.0962,-2.1381,-2.1596,-2.1724,0.0,0.0,0.0,0.0,0.0,0.0,0.0,0.0,0.0,0.0,0.0,0.0,0.0,0.0,-2.0441,-1.8798,-1.841,-1.8343,-1.8477,0.0,0.0,0.0,0.0,0.0,0.0,0.0,0.0,0.0,0.0,0.0,0.0,0.0,0.0,-1.7689,-1.7635,-1.7502,0.0,0.0,0.0,0.0,0.0,0.0,0.0,0.0,-1.9025,-1.9345,-1.9265,-1.9669,-1.9655,0.0,-1.9281,-1.8691,0.0,0.0,0.0,0.0,0.0,0.0,0.0,0.0,-1.8838,-1.9265,-2.0468,-2.1109,-2.1109,-2.1109,-2.1109,-2.1096,-2.0735,-1.9826,-1.8343,-1.7502,-1.6792,0.0,0.0,0.0,0.0,0.0,0.0,0.0,0.0,0.0,0.0,0.0,0.0,0.0,0.0,0.0,0.0,0.0,0.0,0.0,0.0,0.0,0.0,0.0,-1.5888,0.0,0.0,0.0,0.0,0.0,0.0,0.0,0.0,0.0,-1.9517,-1.9786,-2.0227,-2.0909,-2.1243,-2.1523,-2.185,0.0,0.0,0.0,0.0,0.0,0.0,0.0,-2.2171,-2.205,-2.1937,-2.1811,-2.1737,-2.2091,-2.2291,-2.2077,0.0,0.0,-2.004,-1.9655,-1.9615,-1.9693,-1.9773,-1.9867,-1.9943,-1.9987,-1.9987,0.0,0.0,0.0,0.0,0.0,0.0,0.0,0.0,-1.8236,-1.8263,0.0,-1.8209,0.0,0.0,0.0,0.0,-1.7729,-1.8812,0.0,0.0,-2.0521,-2.0949,-2.0726,-2.0739,-2.0753,-2.0722,-2.0739,-2.0284,-1.9428,-1.8529,0.0,0.0,0.0,0.0,0.0,0.0,-1.9196,-1.9813,-2.0668,-2.1109,-2.1109,-2.1109,-2.1109,-2.1096,-2.0561,-1.9823,-1.8983,-1.8651,-1.7956,-1.682,-1.6473,0.0,0.0,0.0,0.0,0.0,0.0,0.0,0.0,0.0,0.0,0.0,0.0,0.0,0.0,0.0,0.0,0.0,0.0,0.0,0.0,-1.5821,0.0,0.0,0.0,0.0,0.0,0.0,0.0,0.0,0.0,0.0,-2.082,-2.0975,-2.1424,-2.2285,0.0,0.0,0.0,0.0,-2.2565,-2.288,-2.292,-2.3027,-2.3252,-2.3278,-2.3172,-2.2974,0.0,0.0,-2.2974,-2.3402,-2.3576,-2.3027,-2.3113,-2.3025,-2.2211,-2.1729,-2.1622,-2.1877,-2.1689,-2.1676,-2.1917,-2.1796,-2.1817,-2.0321,0.0,0.0,0.0,0.0,-1.9078,-1.9399,-2.0057,-1.9703,-1.9503,-1.9412,-1.9332,0.0,0.0,0.0,0.0,0.0,0.0,-1.9356,-2.0,-2.0548,-2.0975,-2.1341,-2.1542,-2.1649,-2.1603,-2.1603,-2.1269,-2.0615,-2.033,-1.9292,-1.7528,0.0,0.0,0.0,0.0,-1.9703,-2.009,-2.0775,-2.1109,-2.1109,-2.1109,-2.1109,-2.1096,-2.0748,-2.0334,-1.9837,-1.9143,-1.8544,-1.7996,-1.7314,0.0,0.0,0.0,0.0,0.0,0.0,0.0,0.0,0.0,0.0,0.0,0.0,0.0,0.0,0.0,0.0,0.0,0.0,0.0,-1.6126,-1.6326,-1.6662,0.0,0.0,0.0,0.0,0.0,0.0,0.0,0.0,0.0,-2.2224,-2.2124,-2.2138,0.0,0.0,-2.2886,-2.2786,-2.31,-2.3455,-2.3536,-2.3549,0.0,-2.3634,-2.346,-2.3367,-2.3522,-2.3616,-2.3643,-2.3562,-2.3683,-2.375,-2.3562,-2.3581,-2.3589,-2.3335,-2.2659,-2.2245,-2.2258,-2.2058,-2.1897,-2.1997,-2.2024,-2.2024,-2.2004,-2.1122,-2.0374,-2.0258,-2.0481,-2.0338,-2.0632,-2.1208,-2.0882,-2.0722,-2.0655,-2.0428,-1.9863,-1.9172,-1.8973,0.0,0.0,0.0,-2.0147,-2.0775,-2.1087,-2.1422,-2.1756,-2.1897,-2.2024,-2.2024,-2.2024,-2.1804,-2.1456,-2.1456,-2.0628,-1.9025,0.0,0.0,-1.8743,-1.953,-2.009,-2.0414,-2.0837,-2.1109,-2.1109,-2.1109,-2.1109,-2.1096,-2.0935,-2.0708,-2.0414,-1.9907,-1.9372,-1.8851,-1.8237,-1.7582,0.0,0.0,0.0,0.0,0.0,0.0,0.0,0.0,0.0,0.0,0.0,-1.674,-1.6404,0.0,0.0,0.0,-1.6526,-1.674,-1.7275,-1.7475,0.0,0.0,0.0,0.0,0.0,0.0,0.0,-2.1577,-2.2258,-2.2853,-2.3215,-2.3166,-2.3126,-2.3092,-2.3354,-2.3474,-2.3442,0.0,-2.3941,-2.3941,-2.4178,-2.4289,-2.4325,-2.4235,-2.4186,-2.4312,-2.4182,-2.4115,-2.4115,-2.4115,-2.4115,-2.4115,-2.4115,-2.4115,-2.4115,-2.3567,-2.3086,-2.2966,-2.2726,-2.2525,-2.2512,-2.2432,-2.2372,-2.3345,-2.3212,-2.1884,-2.1443,-2.1649,-2.1655,-2.177,-2.1997,-2.1729,-2.177,-2.1937,-2.1416,-2.0851,-2.0317,-1.9813,0.0,-2.0357,-2.0935,-2.1323,-2.1668,-2.1917,-2.205,-2.2017,-2.2077,-2.2058,-2.2091,-2.2058,-2.2077,-2.2017,-2.2017,-2.1737,-2.1162,-2.0374,-1.9947,-1.992,-2.0214,-2.0508,-2.082,-2.1056,-2.1162,-2.1149,-2.1122,-2.1109,-2.1109,-2.1082,-2.0949,-2.0726,-2.0659,-2.0271,-1.9481,-1.9092,-1.841,-1.7354,0.0,0.0,0.0,0.0,0.0,0.0,0.0,0.0,0.0,0.0,0.0,0.0,0.0,0.0,0.0,-1.7742,0.0,-1.885,-1.897,0.0,0.0,0.0,-2.0307,-2.1149,-2.175,-2.2205,-2.2425,0.0,0.0,-2.3884,-2.4115,-2.4302,-2.4302,-2.4035,-2.3977,-2.4195,-2.4249,-2.4275,-2.4329,-2.477,-2.5141,-2.5064,-2.5251,-2.5304,-2.509,-2.489,-2.4679,-2.4666,-2.4666,-2.4666,-2.4666,-2.4666,-2.4653,-2.4639,-2.4409,-2.4182,-2.391,-2.3554,-2.334,-2.3278,-2.3113,-2.2974,-2.3875,-2.3634,-2.3322,-2.2779,-2.2205,-2.201,-2.1957,-2.201,-2.1943,-2.1957,-2.1964,-2.1844,-2.1697,-2.1563,-2.1462,-2.1475,-2.1577,-2.171,-2.1817,-2.193,-2.2178,-2.2311,-2.2325,-2.2586,-2.2693,-2.2693,-2.2679,-2.2539,-2.2325,-2.2311,-2.2138,-2.179,-2.1563,-2.1243,-2.0828,-2.1309,-2.1603,-2.167,-2.1737,-2.1703,-2.1475,-2.1229,-2.1109,-2.1109,-2.0895,-2.0779,-2.0668,-2.0271,-1.992,-1.9693,-1.9199,-1.8691,-1.821,-1.7248,0.0,0.0,0.0,0.0,0.0,0.0,0.0,0.0,0.0,-1.8412,-1.7286,0.0,-1.8503,0.0,-1.8811,-1.9053,-1.9281,-1.9653,0.0,0.0,-2.1376,-2.1724,-2.2378,-2.2779,-2.2998,-2.3065,-2.3852,-2.4386,-2.4399,-2.4877,-2.5197,-2.5184,-2.4719,-2.4462,-2.4492,-2.473,-2.4957,-2.5144,-2.5304,-2.5411,-2.5424,-2.5464,-2.5504,-2.5424,-2.5344,-2.5266,-2.5304,-2.5304,-2.5304,-2.5304,-2.5304,-2.5224,-2.501,-2.4917,-2.4756,-2.4476,-2.4022,-2.3661,-2.3661,-2.3629,-2.3589,-2.4422,-2.4142,-2.4008,-2.3661,-2.318,-2.2766,-2.2579,-2.2565,-2.2465,-2.2412,-2.2398,-2.2231,-2.2111,-2.2024,-2.2024,-2.2024,-2.1991,-2.2111,-2.2178,-2.2191,-2.2472,-2.2619,-2.2619,-2.2813,-2.2893,-2.2893,-2.2893,-2.2813,-2.2619,-2.2619,-2.2525,-2.2412,-2.2412,-2.2251,-2.1943,-2.1951,-2.2024,-2.2024,-2.2024,-2.1844,-2.1596,-2.1422,-2.1243,-2.1109,-2.0962,-2.09,-2.0869,-2.0428,-2.0067,-1.98,-1.9359,-1.8931,-1.8504,-1.7862,-1.7502,0.0,0.0,0.0,0.0,0.0,0.0,0.0,0.0,0.0,0.0,0.0,-1.9276,-1.9319,-1.9826,-2.0324,-2.0695,-2.1136,-2.171,-2.2492,-2.2719,-2.2966,-2.3442,-2.3607,-2.3785,-2.4075,-2.4529,-2.4839,-2.4973,-2.5266,-2.5518,-2.5518,-2.5237,-2.4986,-2.5037,-2.517,-2.5331,-2.5478,-2.5625,-2.5758,-2.5879,-2.5785,-2.5705,-2.5692,-2.5598,-2.5518,-2.5518,-2.5518,-2.5518,-2.5518,-2.5518,-2.5464,-2.5304,-2.5277,-2.5184,-2.489,-2.4583,-2.4312,-2.4022,-2.3897,-2.3817,-2.493,-2.4663,-2.4382,-2.4262,-2.4222,-2.3639,-2.3385,-2.3367,-2.3134,-2.2987,-2.2947,-2.2605,-2.2338,-2.2131,-2.2098,-2.2098,-2.2158,-2.2405,-2.2505,-2.2552,-2.288,-2.3014,-2.3014,-2.2974,-2.2974,-2.3014,-2.2974,-2.296,-2.296,-2.2947,-2.2934,-2.2893,-2.2893,-2.2893,-2.288,-2.2385,-2.2098,-2.2098,-2.2091,-2.1924,-2.1703,-2.1622,-2.1462,-2.1176,-2.1096,-2.1029,-2.0989,-2.0748,-2.0405,-1.984,-1.9629,-1.9281,-1.8744,-1.8679,-1.8625,0.0,-1.8531,0.0,0.0,0.0,0.0,0.0,0.0,0.0,0.0,-2.0027,-2.012,-2.008,-2.0882,-2.1678,-2.2458,-2.2806,-2.3241,-2.379,-2.3857,-2.3955,-2.4262,-2.4315,-2.4529,-2.5077,-2.5208,-2.5291,-2.5518,-2.5598,-2.5625,-2.5665,-2.5651,-2.5625,-2.5611,-2.5598,-2.5598,-2.5611,-2.5838,-2.6131,-2.6266,-2.6198,-2.6051,-2.6024,-2.5825,-2.5638,-2.5626,-2.5651,-2.5638,-2.5638,-2.5665,-2.5638,-2.5585,-2.5571,-2.5478,-2.5197,-2.5141,-2.4903,-2.4396,-2.4088,-2.3888,-2.5088,-2.497,-2.4639,-2.4519,-2.4492,-2.4146,-2.3901,-2.3688,-2.3656,-2.346,-2.322,-2.2947,-2.2773,-2.2733,-2.2733,-2.2733,-2.2746,-2.302,-2.3118,-2.3166,-2.346,-2.3629,-2.3616,-2.3354,-2.3367,-2.3616,-2.3354,-2.3198,-2.3212,-2.3212,-2.3113,-2.2907,-2.2893,-2.2893,-2.2893,0.0,0.0,0.0,-2.2458,-2.2311,-2.2245,-2.1823,-2.1588,-2.1489,-2.1034,0.0,-2.0384,-2.0317,-2.013,-1.9826,-1.9973,0.0,0.0,0.0,0.0,0.0,0.0,0.0,0.0,0.0,0.0,0.0,-2.0405,-2.0294,-2.017,-2.1229,-2.183,-2.163,-2.2392,-2.2932,-2.3105,-2.342,-2.3777,-2.4075,-2.4115,-2.4329,-2.4836,-2.4903,-2.505,-2.5384,-2.5677,-2.585,-2.5904,-2.6066,-2.6213,-2.6186,-2.6226,-2.6226,-2.6199,-2.6051,-2.5998,-2.6172,-2.6253,-2.6319,-2.6386,-2.6333,-2.6319,-2.6293,-2.6279,-2.6213,-2.6186,-2.6199,-2.6213,-2.6199,-2.6213,-2.6132,-2.5957,-2.5904,-2.5824,-2.5491,-2.5424,-2.5251,-2.4639,-2.4479,-2.4426,-2.5382,-2.5101,-2.4917,-2.4733,0.0,-2.4476,-2.4329,-2.4182,-2.3924,-2.3607,-2.3278,-2.3166,-2.3041,-2.2893,-2.2893,-2.2974,-2.31,-2.3212,-2.3372,-2.3554,-2.3736,-2.3817,-2.3803,-2.3621,-2.3621,-2.379,-2.3621,-2.3541,-2.3541,-2.3554,-2.3394,-2.31,-2.3086,-2.3054,-2.2907,-2.2893,-2.2893,-2.2893,-2.2712,-2.2565,-2.2385,-2.2138,-2.1877,-2.1596,-2.1301,0.0,0.0,0.0,0.0,0.0,0.0,0.0,0.0,0.0,0.0,-2.0231,-1.9947,-1.9907,-2.0201,-2.0227,-2.0565,-2.1269,-2.1622,-2.1662,-2.1304,-2.2124,-2.2645,-2.2659,-2.3207,-2.3607,-2.3754,-2.3888,-2.4102,-2.4382,-2.4543,-2.477,-2.5074,-2.5211,-2.5411,-2.5678,-2.5904,-2.6038,-2.6159,-2.6319,-2.6386,-2.64,-2.64,-2.64,-2.6386,-2.6305,-2.6279,-2.636,-2.64,-2.6386,-2.64,-2.64,-2.64,-2.6386,-2.64,-2.64,-2.64,-2.64,-2.64,-2.64,-2.64,-2.6333,-2.6252,-2.6172,-2.6118,-2.5812,-2.5732,-2.5598,-2.5157,-2.4919,-2.485,-2.5717,-2.5275,-2.5208,-2.4983,-2.4679,-2.4679,-2.4653,-2.4559,-2.4075,0.0,0.0,-2.3399,-2.326,-2.3067,-2.3067,-2.3201,-2.3407,-2.3425,-2.3607,-2.3884,-2.3937,-2.3964,-2.3928,-2.391,-2.3875,-2.3915,-2.391,-2.3884,-2.3884,-2.3884,-2.3701,-2.3399,-2.3407,-2.3247,-2.3,-2.292,-2.2893,-2.2893,-2.2893,-2.2773,-2.2498,-2.2445,-2.2191,-2.1743,-2.1689,-2.1529,-2.1203,-2.1015,-2.0775,-2.045,-2.0241,-2.0241,-2.0521,-2.0464,-2.0664,-2.1216,-2.1256,-2.1395,-2.1649,-2.1662,-2.181,-2.2111,-2.2632,-2.2819,-2.2525,-2.2819,-2.3153,-2.346,-2.3714,-2.3968,-2.4249,-2.4342,-2.4449,-2.469,-2.4983,-2.517,-2.5237,-2.5438,-2.5705,-2.6011,-2.6078,-2.6158,-2.6346,-2.6386,-2.64,-2.64,-2.64,-2.6413,-2.644,-2.6413,-2.6386,-2.648,-2.6507,-2.6493,-2.6547,-2.6587,-2.6533,-2.6493,-2.648,-2.6453,-2.64,-2.64,-2.64,-2.64,-2.64,-2.6386,-2.6386,-2.6373,-2.6306,-2.6118,-2.6065,-2.6011,-2.5718,-2.5438,-2.5275,-2.5944,-2.585,-2.5558,-2.5277,-2.5061,-2.5024,-2.4863,-2.4572,-2.4289,-2.4115,-2.4062,-2.3821,-2.3723,-2.3683,-2.3669,-2.3696,-2.3763,-2.3968,-2.4102,-2.4155,-2.4359,-2.4479,-2.4466,-2.4262,-2.4275,-2.4452,-2.4262,-2.4142,-2.4142,-2.4142,-2.3995,-2.3777,-2.3701,-2.3554,-2.326,-2.3027,-2.2893,-2.2893,-2.2893,-2.288,-2.284,-2.2552,-2.2378,-2.2265,-2.2058,-2.1823,-2.1542,-2.1716,-2.1703,-2.1422,-2.1355,-2.1475,-2.171,-2.1515,-2.1542,-2.183,-2.1857,-2.1884,-2.1924,-2.1957,-2.2198,-2.2733,-2.306,-2.3126,-2.288,-2.3348,-2.3803,-2.4048,-2.4115,-2.4226,-2.4506,-2.4796,-2.4943,-2.5061,-2.5277,-2.5545,-2.581,-2.5904,-2.6038,-2.6305,-2.6372,-2.6333,-2.6373,-2.64,-2.64,-2.64,-2.6426,-2.648,-2.6667,-2.6547,-2.652,-2.6694,-2.676,-2.6867,-2.7055,-2.7175,-2.7001,-2.676,-2.672,-2.668,-2.6453,-2.6426,-2.6413,-2.64,-2.64,-2.64,-2.64,-2.64,-2.636,-2.6293,-2.6293,-2.6266,-2.6199,-2.6024,-2.5784,-2.6145,-2.5984,-2.585,-2.5585,-2.5304,-2.5181,-2.4917,-2.4599,-2.4466,-2.4306,-2.4195,-2.4062,-2.395,-2.3817,-2.3817,-2.3897,-2.4008,-2.4142,-2.4289,-2.4412,-2.4532,-2.4599,-2.4586,-2.4502,-2.4466,-2.4586,-2.4466,-2.4436,-2.4399,-2.4436,-2.4289,-2.4008,-2.3884,-2.3736,-2.3567,-2.3434,-2.3388,-2.3375,-2.3067,-2.2893,-2.2893,-2.276,-2.2592,-2.2418,-2.2285,-2.2084,-2.1836,-2.1943,-2.1924,-2.1823,-2.1823,-2.1877,-2.1977,-2.189,-2.1877,-2.201,-2.2024,-2.2058,-2.2205,-2.2525,-2.2899,-2.3362,-2.3634,-2.3741,-2.3594,-2.3848,-2.4128,-2.4396,-2.4399,-2.4519,-2.4836,-2.4997,-2.5144,-2.5304,-2.5571,-2.585,-2.5984,-2.6145,-2.6292,-2.6373,-2.64,-2.64,-2.64,-2.64,-2.64,-2.64,-2.6507,-2.6734,-2.7014,-2.7001,-2.6907,-2.7028,-2.7095,-2.7162,-2.7296,-2.7309,-2.7242,-2.7122,-2.7068,-2.6947,-2.6694,-2.6627,-2.656,-2.6426,-2.64,-2.64,-2.64,-2.64,-2.64,-2.64,-2.64,-2.64,-2.6373,-2.6266,-2.6039,-2.6253,-2.6091,-2.6091,-2.5917,-2.5585,-2.5237,-2.4943,-2.4693,-2.4626,-2.4479,-2.4315,-2.4302,-2.4182,-2.3981,-2.3968,-2.4088,-2.4275,-2.4302,-2.4386,-2.4586,-2.4599,-2.4599,-2.4599,-2.4599,-2.4599,-2.4599,-2.4599,-2.4599,-2.4599,-2.4599,-2.4492,-2.4289,-2.4044,-2.3861,-2.391,-2.383,-2.3817,-2.3777,-2.3348,-2.3067,-2.3,-2.2934,-2.2786,-2.2539,-2.2525,-2.2418,-2.2205,-2.2211,-2.2224,-2.2211,-2.2158,-2.2111,-2.2178,-2.2111,-2.2111,-2.2211,-2.2178,-2.2311,-2.2619,-2.3113,-2.3554,-2.3848,-2.4075,-2.4222,-2.4289,-2.4302,-2.4396,-2.4559,-2.4653,-2.4836,-2.505,-2.5262,-2.5371,-2.5598,-2.5879,-2.6091,-2.6118,-2.6292,-2.64,-2.64,-2.64,-2.64,-2.64,-2.64,-2.6426,-2.652,-2.6787,-2.7108,-2.7321,-2.7443,-2.7496,-2.7483,-2.7456,-2.7456,-2.7483,-2.7523,-2.7496,-2.7429,-2.7403,-2.7228,-2.7014,-2.6921,-2.6814,-2.6587,-2.6507,-2.652,-2.6493,-2.6426,-2.644,-2.648,-2.6466,-2.64,-2.6386,-2.6373,-2.6266,-2.6373,-2.636,-2.6346,-2.6225,-2.5891,-2.5369,-2.5077,-2.4997,-2.4719,-2.4599,-2.4546,-2.4559,-2.4532,-2.4519,-2.4506,-2.4519,-2.4546,-2.4559,-2.4572,-2.4586,-2.4599,-2.4599,-2.4599,-2.4599,-2.4599,-2.4599,-2.4599,-2.4599,-2.4599,-2.4599,-2.4586,-2.4532,-2.4302,-2.4168,-2.4142,-2.3915,-2.3817,-2.3817,-2.375,-2.3554,-2.3287,-2.3041,-2.288,-2.2867,-2.2853,-2.284,-2.2786,-2.2813,-2.2813,-2.28,-2.2525,-2.2498,-2.2746,-2.2525,-2.2498,-2.2786,-2.2813,-2.2947,-2.3233,-2.3554,-2.3897,-2.4128,-2.4195,-2.4329,-2.4519,-2.4559,-2.4559,-2.4639,-2.489,-2.5074,-2.5104,-2.5583,-2.5877,-2.5957,-2.6198,-2.6346,-2.6333,-2.6373,-2.64,-2.64,-2.64,-2.64,-2.6426,-2.6453,-2.6533,-2.68,-2.7215,-2.7549,-2.7655,-2.7884,-2.8005,-2.8005,-2.7884,-2.7831,-2.7978,-2.8098,-2.7938,-2.7709,-2.7655,-2.7522,-2.7335,-2.7255,-2.7175,-2.6867,-2.6787,-2.6787,-2.6734,-2.66,-2.652,-2.6694,-2.6613,-2.64,-2.64,-2.64,-2.6319,-2.6547,-2.64,-2.64,-2.6265,-2.5971,-2.573,-2.5436,-2.5077,-2.4957,-2.4773,-2.4613,-2.4599,-2.4599,-2.4599,-2.4599,-2.4599,-2.4599,-2.4599,-2.4599,-2.4599,-2.4599,-2.4599,-2.4599,-2.4599,-2.4599,-2.4599,-2.4599,-2.4599,-2.4599,-2.4599,-2.4599,-2.4586,-2.4466,-2.4426,-2.4412,-2.4342,-2.4275,-2.4275,-2.4115,-2.3968,-2.3808,-2.338,-2.3081,-2.292,-2.2893,-2.2893,-2.2893,-2.2893,-2.2974,-2.31,-2.2846,-2.2819,-2.3113,-2.2846,-2.2853,-2.3113,-2.3335,-2.3562,-2.3821,-2.3968,-2.4155,-2.4399,-2.4462,-2.4479,-2.4599,-2.4796,-2.489,-2.4917,-2.501,-2.5235,-2.5583,-2.5864,-2.6065,-2.6225,-2.6319,-2.64,-2.64,-2.64,-2.64,-2.64,-2.64,-2.6466,-2.6627,-2.68,-2.7014,-2.7281,-2.7589,-2.7749,-2.7965,-2.8112,-2.8165,-2.8165,-2.8072,-2.8058,-2.8165,-2.8192,-2.8112,-2.8045,-2.8005,-2.7898,-2.7602,-2.7563,-2.7428,-2.7134,-2.7094,-2.7081,-2.7081,-2.7028,-2.6961,-2.7001,-2.6841,-2.66,-2.6426,-2.64,-2.64,-2.6694,-2.6507,-2.6426,-2.6305,-2.6105,-2.6024,-2.5757,-2.5369,-2.5237,-2.5077,-2.4853,-2.4839,-2.4786,-2.4719,-2.4639,-2.4599,-2.4599,-2.4599,-2.4599,-2.4599,-2.4599,-2.4599,-2.4599,-2.4599,-2.4599,-2.4599,-2.4599,-2.4599,-2.4599,-2.4599,-2.4599,-2.4599,-2.4599,-2.4599,-2.4599,-2.4599,-2.4599,-2.4572,-2.4386,-2.4275,-2.4155,-2.3781,-2.342,-2.3174,-2.3148,-2.3148,-2.3148,-2.3148,-2.3241,-2.3399,-2.3233,-2.3241,-2.342,-2.3233,-2.3241,-2.3447,-2.3763,-2.3968,-2.4195,-2.4275,-2.4372,-2.4572,-2.4599,-2.4599,-2.4653,-2.4917,-2.5117,-2.5211,-2.5302,-2.5583,-2.5891,-2.6065,-2.6212,-2.636,-2.64,-2.64,-2.64,-2.64,-2.64,-2.64,-2.648,-2.6627,-2.6907,-2.7188,-2.7442,-2.7615,-2.7762,-2.7869,-2.8125,-2.8179,-2.8192,-2.8192,-2.8179,-2.8179,-2.8192,-2.8192,-2.8192,-2.8192,-2.8165,-2.8085,-2.7856,-2.7829,-2.7722,-2.7468,-2.7456,-2.7416,-2.7348,-2.7348,-2.7255,-2.7108,-2.6934,-2.6694,-2.6426,-2.64,-2.64,-2.6774,-2.672,-2.6507,-2.6412,-2.6346,-2.6131,-2.5984,-2.5877,-2.5611,-2.5478,-2.5438,-2.5438,-2.5304,-2.505,-2.4796,-2.4599,-2.4599,-2.4599,-2.4599,-2.4599,-2.4599,-2.4599,-2.4599,-2.4599,-2.4599,-2.4599,-2.4599,-2.4599,-2.4599,-2.4599,-2.4599,-2.4599,-2.4599,-2.4599,-2.4599,-2.4599,-2.4599,-2.4586,-2.4559,-2.4452,-2.4212,-2.4182,-2.4008,-2.3768,-2.375,-2.3723,-2.3736,-2.375,-2.3763,-2.3777,-2.375,-2.375,-2.379,-2.3763,-2.3763,-2.3817,-2.4022,-2.4195,-2.4249,-2.4412,-2.4572,-2.4599,-2.4599,-2.4599,-2.4613,-2.4943,-2.5211,-2.5464,-2.5718,-2.5971,-2.6038,-2.6238,-2.6333,-2.6373,-2.64,-2.64,-2.64,-2.64,-2.64,-2.644,-2.6627,-2.6894,-2.7229,-2.7495,-2.7669,-2.7776,-2.7991,-2.8152,-2.8165,-2.8192,-2.8192,-2.8192,-2.8192,-2.8192,-2.8192,-2.8192,-2.8192,-2.8192,-2.8179,-2.8221,-2.8221,-2.8125,-2.7965,-2.7789,-2.7722,-2.7669,-2.7629,-2.7482,-2.7268,-2.7081,-2.6867,-2.6627,-2.664,-2.6466,-2.6493,-2.7161,-2.68,-2.6507,-2.64,-2.6373,-2.6279,-2.6172,-2.5984,-2.5891,-2.5692,-2.5531,-2.5518,-2.5451,-2.5358,-2.5251,-2.4946,-2.4613,-2.4599,-2.4599,-2.4599,-2.4599,-2.4599,-2.4599,-2.4599,-2.4599,-2.4599,-2.4599,-2.4599,-2.4599,-2.4599,-2.4599,-2.4599,-2.4599,-2.4599,-2.4599,-2.4599,-2.4599,-2.4599,-2.4599,-2.4546,-2.4452,-2.4452,-2.4386,-2.4315,-2.3991,-2.3817,-2.3817,-2.3817,-2.3884,-2.4035,-2.3875,-2.3897,-2.4022,-2.4048,-2.4048,-2.4075,-2.4315,-2.4439,-2.4452,-2.4532,-2.4599,-2.4599,-2.4599,-2.4599,-2.4679,-2.5026,-2.5398,-2.5533,-2.5972,-2.6213,-2.6239,-2.6333,-2.64,-2.64,-2.64,-2.64,-2.64,-2.64,-2.64,-2.6466,-2.6787,-2.7148,-2.7389,-2.7724,-2.8005,-2.8031,-2.8112,-2.8179,-2.8192,-2.8192,-2.8192,-2.8192,-2.8192,-2.8192,-2.8192,-2.8192,-2.8192,-2.8192,-2.8179,-2.8179,-2.8179,-2.8179,-2.8045,-2.8018,-2.7991,-2.7965,-2.7911,-2.7844,-2.7535,-2.7362,-2.7121,-2.6921,-2.6987,-2.6881,-2.6907,-2.7362,-2.6827,-2.6613,-2.648,-2.64,-2.64,-2.6319,-2.6145,-2.6131,-2.6024,-2.5812,-2.5798,-2.5745,-2.5665,-2.5651,-2.5398,-2.4906,-2.4893,-2.4879,-2.4879,-2.4879,-2.4879,-2.4879,-2.4879,-2.4879,-2.4879,-2.4879,-2.4879,-2.4866,-2.4786,-2.4799,-2.4879,-2.4836,-2.4799,-2.4866,-2.4879,-2.4879,-2.4879,-2.4786,-2.4783,-2.477,-2.4653,-2.4599,-2.4546,-2.4249,-2.4048,-2.4048,-2.4048,-2.4128,-2.4289,-2.4155,-2.4142,-2.4315,-2.4342,-2.4342,-2.4369,-2.4479,-2.4599,-2.4599,-2.4599,-2.4599,-2.4599,-2.4599,-2.4599,-2.4639,-2.517,-2.5464,-2.5638,-2.6039,-2.64,-2.64,-2.6386,-2.64,-2.64,-2.64,-2.64,-2.64,-2.64,-2.6493,-2.676,-2.7108,-2.7402,-2.7617,-2.7951,-2.8138,-2.8192,-2.8192,-2.8192,-2.8192,-2.8192,-2.8192,-2.8192,-2.8192,-2.8192,-2.8192,-2.8192,-2.8192,-2.8192,-2.8192,-2.8192,-2.8192,-2.8192,-2.8192,-2.8192,-2.8192,-2.8192,-2.8152,-2.8098,-2.7965,-2.7749,-2.7455,-2.7215,-2.7242,-2.7269,-2.7255,-2.7375,-2.6894,-2.6774,-2.6653,-2.644,-2.64,-2.6386,-2.636,-2.636,-2.6319,-2.6266,-2.6346,-2.6159,-2.6038,-2.5998,-2.5798,-2.5558,-2.5518,-2.5478,-2.5438,-2.5438,-2.5438,-2.5438,-2.5424,-2.5411,-2.5424,-2.544,-2.5478,-2.5424,-2.5211,-2.5211,-2.5384,-2.5197,-2.5184,-2.544,-2.5424,-2.5464,-2.5398,-2.5197,-2.5077,-2.505,-2.4836,-2.4679,-2.4666,-2.4599,-2.4572,-2.4572,-2.4559,-2.4532,-2.4559,-2.4559,-2.4586,-2.4559,-2.4559,-2.4572,-2.4559,-2.4599,-2.4599,-2.4599,-2.4599,-2.4599,-2.4599,-2.4599,-2.4613,-2.4733,-2.5184,-2.5531,-2.5638,-2.6039,-2.64,-2.64,-2.64,-2.64,-2.64,-2.64,-2.64,-2.64,-2.64,-2.6613,-2.7148,-2.7468,-2.7831,-2.8058,-2.8152,-2.8179,-2.8192,-2.8192,-2.8192,-2.8192,-2.8192,-2.8192,-2.8192,-2.8192,-2.8192,-2.8192,-2.8192,-2.8192,-2.8192,-2.8192,-2.8192,-2.8192,-2.8192,-2.8192,-2.8192,-2.8192,-2.8179,-2.8165,-2.8098,-2.7991,-2.7776,-2.759,-2.751,-2.755,-2.7563,-2.7483,-2.7589,-2.7375,-2.6987,-2.6734,-2.6667,-2.648,-2.64,-2.64,-2.64,-2.64,-2.64,-2.64,-2.6333,-2.6279,-2.6253,-2.6199,-2.6119,-2.6106,-2.5905,-2.5585,-2.5531,-2.5531,-2.5531,-2.5518,-2.5518,-2.5518,-2.5518,-2.5518,-2.5518,-2.5424,-2.5438,-2.5478,-2.5424,-2.5424,-2.5493,-2.5518,-2.5518,-2.5504,-2.5424,-2.5371,-2.5371,-2.5291,-2.5237,-2.5211,-2.505,-2.4943,-2.493,-2.4743,-2.4599,-2.4599,-2.4599,-2.4599,-2.4599,-2.4599,-2.4599,-2.4599,-2.4599,-2.4599,-2.4599,-2.4599,-2.4599,-2.4599,-2.4599,-2.4706,-2.4943,-2.5291,-2.5598,-2.5785,-2.6172,-2.64,-2.64,-2.64,-2.64,-2.64,-2.64,-2.6413,-2.6466,-2.6587,-2.6854,-2.7242,-2.7563,-2.7764,-2.7898,-2.8018,-2.8179,-2.8192,-2.8192,-2.8192,-2.8192,-2.8192,-2.8192,-2.8192,-2.8192,-2.8192,-2.8192,-2.8192,-2.8192,-2.8192,-2.8192,-2.8192,-2.8192,-2.8192,-2.8192,-2.8192,-2.8192,-2.8179,-2.8165,-2.8112,-2.8018,-2.8005,-2.7938,-2.7911,-2.7911,-2.7857,-2.7764,-2.7789,-2.7655,-2.7308,-2.7014,-2.6774,-2.6613,-2.648,-2.64,-2.64,-2.64,-2.64,-2.64,-2.64,-2.64,-2.64,-2.64,-2.64,-2.6386,-2.6199,-2.5879,-2.5838,-2.5838,-2.5838,-2.5838,-2.5838,-2.5838,-2.5838,-2.5838,-2.5838,-2.5732,-2.5732,-2.5825,-2.5732,-2.5745,-2.5825,-2.5838,-2.5838,-2.5825,-2.5732,-2.5678,-2.5651,-2.5571,-2.5518,-2.5491,-2.5331,-2.5197,-2.5128,-2.4903,-2.4719,-2.4626,-2.4599,-2.4599,-2.4599,-2.4599,-2.4599,-2.4599,-2.4599,-2.4599,-2.4599,-2.4599,-2.4599,-2.4613,-2.4693,-2.4863,-2.5117,-2.5411,-2.581,-2.5984,-2.6213,-2.64,-2.64,-2.64,-2.6426,-2.6547,-2.656,-2.66,-2.6707,-2.6974,-2.7201,-2.7468,-2.7737,-2.7871,-2.7965,-2.8031,-2.8179,-2.8192,-2.8192,-2.8192,-2.8192,-2.8192,-2.8192,-2.8192,-2.8192,-2.8192,-2.8192,-2.8192,-2.8192,-2.8192,-2.8192,-2.8192,-2.8192,-2.8192,-2.8192,-2.8192,-2.8192,-2.8192,-2.8165,-2.8179,-2.8125,-2.8179,-2.8192,-2.8125,-2.8058,-2.8098,-2.8031,-2.8018,-2.7736,-2.7696,-2.7375,-2.6894,-2.6841,-2.6653,-2.6453,-2.64,-2.64,-2.64,-2.64,-2.64,-2.64,-2.64,-2.64,-2.64,-2.6386,-2.6373,-2.6319,-2.6319,-2.6306,-2.6293,-2.6279,-2.6279,-2.6306,-2.6319,-2.6346,-2.6279,-2.6131,-2.6158,-2.6266,-2.6131,-2.6145,-2.6266,-2.6373,-2.6319,-2.6266,-2.6131,-2.6024,-2.6011,-2.5745,-2.5611,-2.5611,-2.5571,-2.5438,-2.5251,-2.5104,-2.4917,-2.4639,-2.4599,-2.4599,-2.4599,-2.4599,-2.4599,-2.4599,-2.4599,-2.4626,-2.4626,-2.4679,-2.4693,-2.4746,-2.4983,-2.5155,-2.5302,-2.5677,-2.5971,-2.6065,-2.6253,-2.64,-2.64,-2.644,-2.6573,-2.6827,-2.6867,-2.6961,-2.7296,-2.7509,-2.7615,-2.7736,-2.8005,-2.8179,-2.8138,-2.8179,-2.8179,-2.8192,-2.8192,-2.8192,-2.8192,-2.8192,-2.8192,-2.8192,-2.8192,-2.8192,-2.8192,-2.8192,-2.8192,-2.8192,-2.8192,-2.8192,-2.8192,-2.8192,-2.8192,-2.8192,-2.8192,-2.8192,-2.8192,-2.8192,-2.8192,-2.8192,-2.8192,-2.8192,-2.8192,-2.8192,-2.8179,-2.8138,-2.8045,-2.7789,-2.7602,-2.7402,-2.7028,-2.6787,-2.664,-2.6466,-2.64,-2.64,-2.64,-2.64,-2.64,-2.64,-2.64,-2.64,-2.64,-2.64,-2.64,-2.64,-2.64,-2.64,-2.64,-2.64,-2.64,-2.64,-2.64,-2.6386,-2.6293,-2.6306,-2.6373,-2.6346,-2.6293,-2.6386,-2.64,-2.64,-2.6386,-2.6333,-2.6266,-2.6253,-2.6186,-2.6159,-2.6132,-2.5945,-2.585,-2.5717,-2.5342,-2.4943,-2.4626,-2.4599,-2.4599,-2.4599,-2.4599,-2.4599,-2.4599,-2.4613,-2.4706,-2.4903,-2.497,-2.505,-2.5251,-2.5331,-2.5491,-2.5757,-2.5904,-2.6105,-2.6252,-2.636,-2.64,-2.6426,-2.6587,-2.6907,-2.7335,-2.7281,-2.7281,-2.7522,-2.7642,-2.7776,-2.8031,-2.8138,-2.8179,-2.8192,-2.8192,-2.8192,-2.8192,-2.8192,-2.8192,-2.8192,-2.8192,-2.8192,-2.8192,-2.8192,-2.8192,-2.8192,-2.8192,-2.8192,-2.8192,-2.8192,-2.8192,-2.8192,-2.8192,-2.8192,-2.8192,-2.8192,-2.8192,-2.8192,-2.8192,-2.8192,-2.8192,-2.8192,-2.8192,-2.8192,-2.8192,-2.8192,-2.8192,-2.8165,-2.8005,-2.7816,-2.7642,-2.7201,-2.6934,-2.6734,-2.652,-2.64,-2.64,-2.64,-2.64,-2.64,-2.64,-2.64,-2.64,-2.64,-2.64,-2.64,-2.64,-2.64,-2.64,-2.64,-2.64,-2.64,-2.64,-2.64,-2.6386,-2.64,-2.64,-2.6386,-2.64,-2.64,-2.6386,-2.64,-2.64,-2.6386,-2.64,-2.64,-2.64,-2.64,-2.6386,-2.636,-2.6252,-2.6131,-2.5957,-2.5543,-2.5077,-2.4706,-2.4599,-2.4599,-2.4599,-2.4599,-2.4599,-2.4599,-2.4706,-2.4903,-2.505,-2.5184,-2.5344,-2.5504,-2.5611,-2.581,-2.5971,-2.6091,-2.6279,-2.6386,-2.6386,-2.64,-2.6453,-2.6747,-2.7201,-2.7575,-2.7697,-2.7737,-2.7869,-2.7938,-2.8005,-2.8138,-2.8192,-2.8192,-2.8192,-2.8192,-2.8192,-2.8192,-2.8192,-2.8192,-2.8192,-2.8192,-2.8192,-2.8192,-2.8192,-2.8192,-2.8192,-2.8192,-2.8192,-2.8192,-2.8192,-2.8192,-2.8192,-2.8192,-2.8192,-2.8192,-2.8192,-2.8192,-2.8192,-2.8192,-2.8192,-2.8192,-2.8192,-2.8192,-2.8192,-2.8192,-2.8192,-2.8192,-2.8192,-2.8179,-2.8031,-2.7722,-2.7443,-2.7108,-2.6854,-2.6533,-2.64,-2.64,-2.64,-2.64,-2.64,-2.64,-2.64,-2.64,-2.64,-2.64,-2.64,-2.64,-2.64,-2.64,-2.64,-2.64,-2.64,-2.64,-2.64,-2.64,-2.64,-2.64,-2.64,-2.64,-2.64,-2.64,-2.64,-2.64,-2.64,-2.64,-2.64,-2.64,-2.64,-2.64,-2.6386,-2.6373,-2.6199,-2.6011,-2.5678,-2.5317,-2.4719,-2.4693,-2.4746,-2.4733,-2.4706,-2.4719,-2.4773,-2.501,-2.5144,-2.5224,-2.5451,-2.5598,-2.5705,-2.5931,-2.6038,-2.6118,-2.6265,-2.636,-2.6386,-2.6386,-2.6453,-2.6627,-2.7055,-2.7415,-2.7749,-2.8018,-2.8152,-2.8192,-2.8192,-2.8192,-2.8192,-2.8192,-2.8192,-2.8192,-2.8192,-2.8192,-2.8192,-2.8192,-2.8192,-2.8192,-2.8192,-2.8192,-2.8192,-2.8192,-2.8192,-2.8192,-2.8192,-2.8192,-2.8192,-2.8192,-2.8192,-2.8192,-2.8192,-2.8192,-2.8192,-2.8192,-2.8192,-2.8192,-2.8192,-2.8192,-2.8192,-2.8192,-2.8192,-2.8192,-2.8192,-2.8192,-2.8192,-2.8192,-2.8192,-2.8152,-2.8005,-2.7536,-2.7269,-2.7148,-2.66,-2.64,-2.64,-2.64,-2.64,-2.64,-2.64,-2.64,-2.64,-2.64,-2.64,-2.64,-2.64,-2.64,-2.64,-2.64,-2.64,-2.64,-2.64,-2.64,-2.64,-2.64,-2.64,-2.64,-2.64,-2.64,-2.64,-2.64,-2.64,-2.64,-2.64,-2.64,-2.64,-2.64,-2.64,-2.64,-2.64,-2.6292,-2.6065,-2.5931,-2.5692,-2.5424,-2.528,-2.5317,-2.5226,-2.5239,-2.5264,-2.5277,-2.5344,-2.5518,-2.5757,-2.585,-2.5998,-2.6132,-2.6186,-2.6293,-2.6306,-2.6333,-2.64,-2.64,-2.64,-2.66,-2.7014,-2.7388,-2.7737,-2.7991,-2.8125,-2.8192,-2.8192,-2.8192,-2.8192,-2.8192,-2.8192,-2.8192,-2.8192,-2.8192,-2.8192,-2.8192,-2.8192,-2.8192,-2.8192,-2.8192,-2.8192,-2.8192,-2.8192,-2.8192,-2.8192,-2.8192,-2.8192,-2.8192,-2.8192,-2.8192,-2.8192,-2.8192,-2.8192,-2.8192,-2.8192,-2.8192,-2.8192,-2.8192,-2.8192,-2.8192,-2.8192,-2.8192,-2.8192,-2.8192,-2.8192,-2.8192,-2.8192,-2.8192,-2.8098,-2.7911,-2.7496,-2.7229,-2.6987,-2.66,-2.64,-2.64,-2.64,-2.64,-2.64,-2.64,-2.64,-2.64,-2.64,-2.64,-2.64,-2.64,-2.64,-2.644,-2.6507,-2.6547,-2.644,-2.6533,-2.652,-2.6426,-2.64,-2.64,-2.64,-2.64,-2.64,-2.64,-2.64,-2.64,-2.64,-2.64,-2.64,-2.64,-2.64,-2.64,-2.64,-2.6386,-2.6346,-2.6225,-2.6159,-2.6079,-2.5972,-2.5919,-2.5772,-2.552,-2.5518,-2.5518,-2.5518,-2.5665,-2.5758,-2.5971,-2.6131,-2.6265,-2.6373,-2.64,-2.6386,-2.64,-2.64,-2.64,-2.6426,-2.656,-2.6841,-2.7388,-2.7562,-2.7884,-2.8098,-2.8192,-2.8192,-2.8192,-2.8192,-2.8192,-2.8192,-2.8192,-2.8192,-2.8192,-2.8192,-2.8192,-2.8192,-2.8192,-2.8192,-2.8192,-2.8192,-2.8192,-2.8192,-2.8192,-2.8192,-2.8192,-2.8192,-2.8192,-2.8192,-2.8192,-2.8192,-2.8192,-2.8192,-2.8192,-2.8192,-2.8192,-2.8192,-2.8192,-2.8192,-2.8192,-2.8192,-2.8192,-2.8192,-2.8192,-2.8192,-2.8192,-2.8192,-2.8192,-2.8192,-2.8005,-2.7682,-2.7388,-2.7108,-2.6814,-2.652,-2.64,-2.64,-2.64,-2.64,-2.64,-2.64,-2.64,-2.64,-2.64,-2.64,-2.64,-2.64,-2.64,-2.6466,-2.668,-2.676,-2.652,-2.6747,-2.6734,-2.6547,-2.6453,-2.6466,-2.6413,-2.64,-2.64,-2.64,-2.64,-2.64,-2.64,-2.64,-2.64,-2.64,-2.64,-2.64,-2.64,-2.6386,-2.6386,-2.6346,-2.636,-2.636,-2.64,-2.64,-2.6119,-2.5812,-2.5651,-2.5638,-2.5678,-2.5905,-2.6026,-2.6131,-2.6279,-2.6373,-2.64,-2.64,-2.64,-2.64,-2.64,-2.644,-2.6587,-2.6787,-2.7175,-2.7629,-2.7776,-2.7938,-2.8112,-2.8192,-2.8192,-2.8192,-2.8192,-2.8192,-2.8192,-2.8192,-2.8192,-2.8192,-2.8192,-2.8192,-2.8192,-2.8192,-2.8192,-2.8192,-2.8192,-2.8192,-2.8192,-2.8192,-2.8192,-2.8192,-2.8192,-2.8192,-2.8192,-2.8192,-2.8192,-2.8192,-2.8192,-2.8192,-2.8192,-2.8192,-2.8192,-2.8192,-2.8192,-2.8192,-2.8192,-2.8192,-2.8192,-2.8192,-2.8192,-2.8192,-2.8192,-2.8192,-2.8192,-2.8018,-2.7682,-2.7429,-2.7094,-2.68,-2.652,-2.64,-2.64,-2.64,-2.64,-2.64,-2.64,-2.64,-2.64,-2.64,-2.64,-2.64,-2.64,-2.64,-2.652,-2.6907,-2.7001,-2.6907,-2.7054,-2.7068,-2.6814,-2.6707,-2.6667,-2.6466,-2.6413,-2.6426,-2.6426,-2.64,-2.64,-2.64,-2.64,-2.64,-2.64,-2.64,-2.64,-2.64,-2.64,-2.64,-2.64,-2.64,-2.64,-2.64,-2.64,-2.6333,-2.6213,-2.6186,-2.6186,-2.6186,-2.6213,-2.6266,-2.6293,-2.6346,-2.64,-2.64,-2.64,-2.64,-2.64,-2.6426,-2.656,-2.6854,-2.7201,-2.7589,-2.7682,-2.7938,-2.8085,-2.8179,-2.8192,-2.8192,-2.8192,-2.8192,-2.8192,-2.8192,-2.8192,-2.8192,-2.8192,-2.8192,-2.8192,-2.8192,-2.8192,-2.8192,-2.8192,-2.8192,-2.8192,-2.8192,-2.8192,-2.8192,-2.8192,-2.8192,-2.8192,-2.8192,-2.8192,-2.8192,-2.8192,-2.8192,-2.8192,-2.8192,-2.8192,-2.8192,-2.8192,-2.8192,-2.8192,-2.8192,-2.8192,-2.8192,-2.8192,-2.8192,-2.8192,-2.8192,-2.8192,-2.8192,-2.8005,-2.7669,-2.7429,-2.7094,-2.676,-2.652,-2.64,-2.64,-2.64,-2.64,-2.64,-2.64,-2.64,-2.64,-2.64,-2.64,-2.64,-2.64,-2.6493,-2.6627,-2.7122,-2.7255,-2.7348,-2.759,-2.7496,-2.7094,-2.7054,-2.6961,-2.6854,-2.6707,-2.6613,-2.656,-2.6466,-2.6413,-2.64,-2.64,-2.64,-2.64,-2.64,-2.64,-2.64,-2.64,-2.64,-2.64,-2.64,-2.64,-2.64,-2.64,-2.64,-2.64,-2.64,-2.64,-2.64,-2.64,-2.64,-2.64,-2.64,-2.64,-2.64,-2.64,-2.64,-2.644,-2.6547,-2.68,-2.7215,-2.7428,-2.7776,-2.7965,-2.8098,-2.8165,-2.8192,-2.8192,-2.8192,-2.8192,-2.8192,-2.8192,-2.8192,-2.8192,-2.8192,-2.8192,-2.8192,-2.8192,-2.8192,-2.8192,-2.8192,-2.8192,-2.8192,-2.8192,-2.8192,-2.8192,-2.8192,-2.8192,-2.8192,-2.8192,-2.8192,-2.8192,-2.8192,-2.8192,-2.8192,-2.8192,-2.8192,-2.8192,-2.8192,-2.8192,-2.8192,-2.8192,-2.8192,-2.8192,-2.8192,-2.8192,-2.8192,-2.8192,-2.8192,-2.8192,-2.8192,-2.8018,-2.7682,-2.7429,-2.7135,-2.6814,-2.652,-2.64,-2.64,-2.64,-2.64,-2.64,-2.64,-2.64,-2.64,-2.64,-2.64,-2.6413,-2.648,-2.6627,-2.6854,-2.7188,-2.7455,-2.7629,-2.7951,-2.7911,-2.7483,-2.7403,-2.7362,-2.7175,-2.6947,-2.6787,-2.6707,-2.652,-2.644,-2.64,-2.64,-2.64,-2.64,-2.64,-2.64,-2.64,-2.64,-2.64,-2.64,-2.64,-2.64,-2.64,-2.64,-2.64,-2.64,-2.64,-2.64,-2.64,-2.64,-2.64,-2.64,-2.64,-2.64,-2.64,-2.64,-2.64,-2.6493,-2.672,-2.7121,-2.7575,-2.7789,-2.7883,-2.8098,-2.8179,-2.8192,-2.8192,-2.8192,-2.8192,-2.8192,-2.8192,-2.8192,-2.8192,-2.8192,-2.8192,-2.8192,-2.8192,-2.8192,-2.8192,-2.8192,-2.8192,-2.8192,-2.8192,-2.8192,-2.8192,-2.8192,-2.8192,-2.8192,-2.8192,-2.8192,-2.8192,-2.8192,-2.8192,-2.8192,-2.8192,-2.8192,-2.8192,-2.8192,-2.8192,-2.8192,-2.8192,-2.8192,-2.8192,-2.8192,-2.8192,-2.8192,-2.8192,-2.8192,-2.8192,-2.8192,-2.8192,-2.8018,-2.7696,-2.7456,-2.7108,-2.6827,-2.656,-2.64,-2.6426,-2.64,-2.6413,-2.64,-2.64,-2.64,-2.64,-2.64,-2.64,-2.6413,-2.6613,-2.676,-2.6921,-2.7415,-2.7615,-2.7789,-2.8058,-2.7978,-2.7764,-2.7697,-2.7576,-2.7362,-2.7094,-2.6814,-2.6921,-2.6627,-2.64,-2.64,-2.64,-2.64,-2.64,-2.64,-2.64,-2.64,-2.64,-2.64,-2.64,-2.64,-2.64,-2.64,-2.64,-2.64,-2.64,-2.64,-2.64,-2.64,-2.64,-2.64,-2.64,-2.64,-2.64,-2.64,-2.6413,-2.64,-2.6627,-2.6947,-2.7403,-2.7655,-2.7951,-2.8098,-2.8165,-2.8179,-2.8192,-2.8192,-2.8192,-2.8192,-2.8192,-2.8192,-2.8192,-2.8192,-2.8192,-2.8192,-2.8192,-2.8192,-2.8192,-2.8192,-2.8192,-2.8192,-2.8192,-2.8192,-2.8192,-2.8192,-2.8192,-2.8192,-2.8192,-2.8192,-2.8192,-2.8192,-2.8192,-2.8192,-2.8192,-2.8192,-2.8192,-2.8192,-2.8192,-2.8192,-2.8192,-2.8192,-2.8192,-2.8192,-2.8192,-2.8192,-2.8192,-2.8192,-2.8192,-2.8192,-2.8192,-2.8192,-2.8112,-2.7965,-2.767,-2.7442,-2.7281,-2.7014,-2.6787,-2.6653,-2.6627,-2.6547,-2.6453,-2.64,-2.64,-2.64,-2.64,-2.64,-2.6466,-2.6694,-2.6907,-2.7134,-2.7482,-2.7749,-2.7991,-2.8085,-2.8138,-2.8005,-2.7978,-2.7898,-2.7764,-2.751,-2.7348,-2.7215,-2.6854,-2.6694,-2.66,-2.6493,-2.64,-2.64,-2.64,-2.64,-2.64,-2.64,-2.64,-2.64,-2.64,-2.64,-2.64,-2.64,-2.64,-2.64,-2.64,-2.64,-2.64,-2.64,-2.64,-2.64,-2.64,-2.64,-2.6453,-2.656,-2.6787,-2.7068,-2.7321,-2.7657,-2.7965,-2.8098,-2.8179,-2.8192,-2.8192,-2.8192,-2.8192,-2.8192,-2.8192,-2.8192,-2.8192,-2.8192,-2.8192,-2.8192,-2.8192,-2.8192,-2.8192,-2.8192,-2.8192,-2.8192,-2.8192,-2.8192,-2.8192,-2.8192,-2.8192,-2.8192,-2.8192,-2.8192,-2.8192,-2.8192,-2.8192,-2.8192,-2.8192,-2.8192,-2.8192,-2.8192,-2.8192,-2.8192,-2.8192,-2.8192,-2.8192,-2.8192,-2.8192,-2.8192,-2.8192,-2.8192,-2.8192,-2.8192,-2.8192,-2.8192,-2.8192,-2.8192,-2.8152,-2.7871,-2.7696,-2.7655,-2.7403,-2.7134,-2.6987,-2.6921,-2.6814,-2.6653,-2.664,-2.6627,-2.6507,-2.6493,-2.6493,-2.6587,-2.68,-2.7094,-2.7388,-2.7682,-2.7978,-2.8192,-2.8165,-2.8165,-2.8179,-2.8165,-2.8152,-2.8165,-2.7749,-2.7669,-2.7549,-2.7215,-2.6907,-2.676,-2.6613,-2.6493,-2.6413,-2.64,-2.64,-2.64,-2.64,-2.64,-2.64,-2.64,-2.64,-2.64,-2.64,-2.64,-2.64,-2.64,-2.64,-2.6413,-2.6466,-2.648,-2.6426,-2.64,-2.6426,-2.656,-2.6774,-2.7121,-2.7535,-2.7709,-2.7816,-2.8112,-2.8165,-2.8179,-2.8192,-2.8192,-2.8192,-2.8192,-2.8192,-2.8192,-2.8192,-2.8192,-2.8192,-2.8192,-2.8192,-2.8192,-2.8192,-2.8192,-2.8192,-2.8192,-2.8192,-2.8192,-2.8192,-2.8192,-2.8192,-2.8192,-2.8192,-2.8192,-2.8192,-2.8192,-2.8192,-2.8192,-2.8192,-2.8192,-2.8192,-2.8192,-2.8192,-2.8192,-2.8192,-2.8192,-2.8192,-2.8192,-2.8192,-2.8192,-2.8192,-2.8192,-2.8192,-2.8192,-2.8192,-2.8192,-2.8192,-2.8192,-2.8192,-2.8207,-2.7829,-2.7709,-2.7709,-2.7469,-2.7336,-2.7241,-2.7215,-2.7215,-2.7202,-2.7122,-2.6987,-2.6787,-2.6747,-2.6787,-2.6894,-2.7094,-2.7362,-2.767,-2.7924,-2.8138,-2.8179,-2.8192,-2.8192,-2.8192,-2.8192,-2.8192,-2.8152,-2.7938,-2.7762,-2.7642,-2.7428,-2.7054,-2.6894,-2.6747,-2.66,-2.6453,-2.64,-2.64,-2.64,-2.64,-2.64,-2.64,-2.64,-2.64,-2.64,-2.64,-2.64,-2.64,-2.64,-2.64,-2.6493,-2.6627,-2.664,-2.6573,-2.6547,-2.6587,-2.68,-2.7081,-2.7375,-2.7736,-2.7722,-2.7856,-2.8138,-2.8179,-2.8192,-2.8192,-2.8192,-2.8192,-2.8192,-2.8192,-2.8192,-2.8192,-2.8192,-2.8192,-2.8192,-2.8192,-2.8192,-2.8192,-2.8192,-2.8192,-2.8192,-2.8192,-2.8192,-2.8192,-2.8192,-2.8192,-2.8192,-2.8192,-2.8192,-2.8192,-2.8192,-2.8192,-2.8192,-2.8192,-2.8192,-2.8192,-2.8192,-2.8192,-2.8192,-2.8192,-2.8192,-2.8192,-2.8192,-2.8192,-2.8192,-2.8192,-2.8192,-2.8192,-2.8192,-2.8192,-2.8192,-2.8192,-2.8192,-2.8192,-2.8179,-2.8058,-2.8018,-2.8005,-2.7898,-2.7737,-2.7522,-2.7403,-2.7309,-2.7322,-2.7309,-2.7215,-2.7108,-2.7094,-2.7094,-2.7188,-2.7388,-2.7589,-2.7802,-2.8018,-2.8179,-2.8192,-2.8192,-2.8192,-2.8192,-2.8192,-2.8192,-2.8125,-2.8045,-2.8045,-2.7924,-2.7655,-2.7295,-2.6947,-2.6774,-2.668,-2.6453,-2.64,-2.64,-2.64,-2.64,-2.64,-2.64,-2.64,-2.64,-2.64,-2.6413,-2.6426,-2.6453,-2.6453,-2.652,-2.664,-2.6814,-2.6854,-2.6907,-2.6961,-2.7108,-2.7295,-2.7495,-2.7697,-2.7951,-2.8005,-2.8045,-2.8152,-2.8192,-2.8192,-2.8192,-2.8192,-2.8192,-2.8192,-2.8192,-2.8192,-2.8192,-2.8192,-2.8192,-2.8192,-2.8192,-2.8192,-2.8192,-2.8192,-2.8192,-2.8192,-2.8192,-2.8192,-2.8192,-2.8192,-2.8192,-2.8192,-2.8192,-2.8192,-2.8192,-2.8192,-2.8192,-2.8192,-2.8192,-2.8192,-2.8192,-2.8192,-2.8192,-2.8192,-2.8192,-2.8192,-2.8192,-2.8192,-2.8192,-2.8192,-2.8192,-2.8192,-2.8192,-2.8192,-2.8192,-2.8192,-2.8192,-2.8192,-2.8192,-2.8192,-2.8192,-2.8192,-2.8192,-2.8165,-2.8085,-2.7816,-2.7643,-2.7563,-2.7563,-2.7576,-2.751,-2.7428,-2.7402,-2.7402,-2.7468,-2.7575,-2.7736,-2.7924,-2.8045,-2.8192,-2.8192,-2.8192,-2.8192,-2.8192,-2.8192,-2.8192,-2.8192,-2.8179,-2.8165,-2.8125,-2.7978,-2.7575,-2.7201,-2.7014,-2.6867,-2.66,-2.6533,-2.6453,-2.6453,-2.648,-2.6547,-2.656,-2.6573,-2.6627,-2.664,-2.664,-2.66,-2.6627,-2.672,-2.6774,-2.6907,-2.7054,-2.7148,-2.7282,-2.7416,-2.7482,-2.7602,-2.7817,-2.7965,-2.8125,-2.8192,-2.8165,-2.8179,-2.8192,-2.8192,-2.8192,-2.8192,-2.8192,-2.8192,-2.8192,-2.8192,-2.8192,-2.8192,-2.8192,-2.8192,-2.8192,-2.8192,-2.8192,-2.8192,-2.8192,-2.8192,-2.8192,-2.8192,-2.8192,-2.8192,-2.8192,-2.8192,-2.8192,-2.8192,-2.8192,-2.8192,-2.8192,-2.8192,-2.8192,-2.8192,-2.8192,-2.8192,-2.8192,-2.8192,-2.8192,-2.8192,-2.8192,-2.8192,-2.8192,-2.8192,-2.8192,-2.8192,-2.8192,-2.8192,-2.8192,-2.8192,-2.8192,-2.8192,-2.8192,-2.8192,-2.8192,-2.8192,-2.8192,-2.8192,-2.8165,-2.8125,-2.8085,-2.8085,-2.8085,-2.8018,-2.7911,-2.7764,-2.7696,-2.7696,-2.7722,-2.7791,-2.7938,-2.8058,-2.8179,-2.8192,-2.8192,-2.8192,-2.8192,-2.8192,-2.8192,-2.8192,-2.8192,-2.8192,-2.8192,-2.8192,-2.8179,-2.8005,-2.7709,-2.7629,-2.7281,-2.6934,-2.6814,-2.6694,-2.664,-2.672,-2.6814,-2.6814,-2.6814,-2.6894,-2.7055,-2.6894,-2.6921,-2.7108,-2.7148,-2.7215,-2.7241,-2.7482,-2.7495,-2.7389,-2.7562,-2.7696,-2.7776,-2.7991,-2.8125,-2.8179,-2.8192,-2.8192,-2.8192,-2.8192,-2.8192,-2.8192,-2.8192,-2.8192,-2.8192,-2.8192,-2.8192,-2.8192,-2.8192,-2.8192,-2.8192,-2.8192,-2.8192,-2.8192,-2.8192,-2.8192,-2.8192,-2.8192,-2.8192,-2.8192,-2.8192,-2.8192,-2.8192,-2.8192,-2.8192,-2.8192,-2.8192,-2.8192,-2.8192,-2.8192,-2.8192,-2.8192,-2.8192,-2.8192,-2.8192,-2.8192,-2.8192,-2.8192,-2.8192,-2.8192,-2.8192,-2.8192,-2.8192,-2.8192,-2.8192,-2.8192,-2.8192,-2.8192,-2.8192,-2.8192,-2.8192,-2.8192,-2.8192,-2.8192,-2.8192,-2.8192,-2.8192,-2.8192,-2.8192,-2.8192,-2.8179,-2.8112,-2.8045,-2.8031,-2.8031,-2.8031,-2.8018,-2.8085,-2.8179,-2.8192,-2.8192,-2.8192,-2.8192,-2.8192,-2.8192,-2.8192,-2.8192,-2.8192,-2.8192,-2.8192,-2.8192,-2.8165,-2.8031,-2.7749,-2.7655,-2.7509,-2.7202,-2.7148,-2.7095,-2.6988,-2.7054,-2.7108,-2.7108,-2.7108,-2.7242,-2.7349,-2.7161,-2.7242,-2.7349,-2.7362,-2.7429,-2.7495,-2.7696,-2.7762,-2.7831,-2.8005,-2.8018,-2.8058,-2.8098,-2.8192,-2.8192,-2.8192,-2.8192,-2.8192,-2.8192,-2.8192,-2.8192,-2.8192,-2.8192,-2.8192,-2.8192,-2.8192,-2.8192,-2.8192,-2.8192,-2.8192,-2.8192,-2.8192,-2.8192,-2.8192,-2.8192,-2.8192,-2.8192,-2.8192,-2.8192,-2.8192,-2.8192,-2.8192,-2.8192,-2.8192,-2.8192,-2.8192,-2.8192,-2.8192,-2.8192,-2.8192,-2.8192,-2.8192,-2.8192,-2.8192,-2.8192,-2.8192,-2.8192,-2.8192,-2.8192,-2.8192,-2.8192,-2.8192,-2.8192,-2.8192,-2.8192,-2.8192,-2.8192,-2.8192,-2.8192,-2.8192,-2.8192,-2.8192,-2.8192,-2.8192,-2.8192,-2.8192,-2.8192,-2.8192,-2.8192,-2.8192,-2.8192,-2.8192,-2.8179,-2.8179,-2.8192,-2.8179,-2.8179,-2.8179,-2.8192,-2.8192,-2.8192,-2.8192,-2.8192,-2.8192,-2.8192,-2.8192,-2.8192,-2.8192,-2.8192,-2.8192,-2.8152,-2.8112,-2.7951,-2.7856,-2.7736,-2.7509,-2.7402,-2.7403,-2.7308,-2.7335,-2.7456,-2.7456,-2.7469,-2.751,-2.7536,-2.7523,-2.7523,-2.755,-2.763,-2.771,-2.7844,-2.7911,-2.8005,-2.8112,-2.8152,-2.8138,-2.8165,-2.8192,-2.8192,-2.8192,-2.8192,-2.8192,-2.8192,-2.8192,-2.8192,-2.8192,-2.8192,-2.8192,-2.8192,-2.8192,-2.8192,-2.8192,-2.8192,-2.8192,-2.8192,-2.8192,-2.8192,-2.8192,-2.8192,-2.8192,-2.8192,-2.8192,-2.8192,-2.8192,-2.8192,-2.8192,-2.8192,-2.8192,-2.8192,-2.8192,-2.8192,-2.8192,-2.8192,-2.8192,-2.8192,-2.8192,-2.8192,-2.8192,-2.8192,-2.8192,-2.8192,-2.8192,-2.8192,-2.8192,-2.8192,-2.8192,-2.8192,-2.8192,-2.8192,-2.8192,-2.8192,-2.8192,-2.8192,-2.8192,-2.8192,-2.8192,-2.8192,-2.8192,-2.8192,-2.8192,-2.8192,-2.8192,-2.8192,-2.8192,-2.8192,-2.8192,-2.8192,-2.8192,-2.8192,-2.8192,-2.8192,-2.8192,-2.8192,-2.8192,-2.8192,-2.8192,-2.8192,-2.8192,-2.8192,-2.8192,-2.8192,-2.8192,-2.8192,-2.8192,-2.8192,-2.8179,-2.8152,-2.8098,-2.8072,-2.7951,-2.7791,-2.7709,-2.7615,-2.7603,-2.7643,-2.7696,-2.7709,-2.7764,-2.7884,-2.7924,-2.7898,-2.7965,-2.8058,-2.8165,-2.8179,-2.8165,-2.8152,-2.8165,-2.8179,-2.8179,-2.8192,-2.8192,-2.8192,-2.8192,-2.8192,-2.8192,-2.8192,-2.8192,-2.8192,-2.8192,-2.8192,-2.8192,-2.8192,-2.8192,-2.8192,-2.8192,-2.8192,-2.8192,-2.8192,-2.8192,-2.8192,-2.8192,-2.8192,-2.8192,-2.8192,-2.8192,-2.8192,-2.8192,-2.8192,-2.8192,-2.8192,-2.8192,-2.8192,-2.8192,-2.8192,-2.8192,-2.8192,-2.8192,-2.8192,-2.8192,-2.8192,-2.8192,-2.8192,-2.8192,-2.8192,-2.8192,-2.8192,-2.8192,-2.8192,-2.8192,-2.8192,-2.8192,-2.8192,-2.8192,-2.8192,-2.8192,-2.8192,-2.8192,-2.8192,-2.8192,-2.8192,-2.8192,-2.8192,-2.8192,-2.8192,-2.8192,-2.8192,-2.8192,-2.8192,-2.8192,-2.8192,-2.8192,-2.8192,-2.8192,-2.8192,-2.8192,-2.8192,-2.8192,-2.8192,-2.8192,-2.8192,-2.8192,-2.8192,-2.8192,-2.8192,-2.8192,-2.8192,-2.8192,-2.8192,-2.8192,-2.8192,-2.8192,-2.8192,-2.8192,-2.8112,-2.8058,-2.8018,-2.7924,-2.7938,-2.7938,-2.8018,-2.8018,-2.8018,-2.8112,-2.8112,-2.8098,-2.8138,-2.8152,-2.8192,-2.8179,-2.8179,-2.8179,-2.8179,-2.8192,-2.8192,-2.8192,-2.8192,-2.8192,-2.8192,-2.8192,-2.8192,-2.8192,-2.8192,-2.8192,-2.8192,-2.8192,-2.8192,-2.8192,-2.8192,-2.8192,-2.8192,-2.8192,-2.8192,-2.8192,-2.8192,-2.8192,-2.8192,-2.8192,-2.8192,-2.8192,-2.8192,-2.8192,-2.8192,-2.8192,-2.8192,-2.8192,-2.8192,-2.8192,-2.8192,-2.8192,-2.8192,-2.8192,-2.8192,-2.8192,-2.8192,-2.8192,-2.8192,-2.8192,-2.8192,-2.8192,-2.8192,-2.8192,-2.8192,-2.8192,-2.8192,-2.8192,-2.8192,-2.8192,-2.8192,-2.8192,-2.8192,-2.8192,-2.8192,-2.8192,-2.8192,-2.8192,-2.8192,-2.8192,-2.8192,-2.8192,-2.8192,-2.8192,-2.8192,-2.8192,-2.8192,-2.8192,-2.8192,-2.8192,-2.8192,-2.8192,-2.8192,-2.8192,-2.8192,-2.8192,-2.8192,-2.8192,-2.8192,-2.8192,-2.8192,-2.8192,-2.8192,-2.8192,-2.8192,-2.8192,-2.8192,-2.8192,-2.8192,-2.8192,-2.8192,-2.8192,-2.8192,-2.8192,-2.8192,-2.8192,-2.8192,-2.8192,-2.8192,-2.8192,-2.8192,-2.8192,-2.8192,-2.8192,-2.8192,-2.8192,-2.8192,-2.8192,-2.8192,-2.8192,-2.8192,-2.8192,-2.8192,-2.8192,-2.8192,-2.8192,-2.8192,-2.8192,-2.8192,-2.8192,-2.8192,-2.8192,-2.8192,-2.8192,-2.8192,-2.8192,-2.8192,-2.8192,-2.8192,-2.8192,-2.8192,-2.8192,-2.8192,-2.8192,-2.8192,-2.8192,-2.8192,-2.8192,-2.8192,-2.8192,-2.8192,-2.8192,-2.8192,-2.8192,-2.8192,-2.8192,-2.8192,-2.8192,-2.8192,-2.8192,-2.8192,-2.8192,-2.8192,-2.8192,-2.8192,-2.8192,-2.8192,-2.8192,-2.8192,-2.8192,-2.8192,-2.8192,-2.8192,-2.8192,-2.8192,-2.8192,-2.8192,-2.8192,-2.8192,-2.8192,-2.8192,-2.8192,-2.8192,-2.8192,-2.8192,-2.8192,-2.8192,-2.8192,-2.8192,-2.8192,-2.8192,-2.8192,-2.8192,-2.8192,-2.8192,-2.8192,-2.8192,-2.8192,-2.8192,-2.8192,-2.8192,-2.8192,-2.8192,-2.8192,-2.8192,-2.8192,-2.8192,-2.8192,-2.8192,-2.8192,-2.8192,-2.8192,-2.8192,-2.8192,-2.8192,-2.8192,-2.8192,-2.8192,-2.8192,-2.8192,-2.8192,-2.8192,-2.8192,-2.8192,-2.8192,-2.8192,-2.8192,-2.8192,-2.8192,-2.8192,-2.8192,-2.8192,-2.8192,-2.8192,-2.8192,-2.8192,-2.8192,-2.8192,-2.8192,-2.8192,-2.8192,-2.8192,-2.8192,-2.8192,-2.8192,-2.8192,-2.8192,-2.8192,-2.8192,-2.8192,-2.8192,-2.8192,-2.8192,-2.8192,-2.8192,-2.8192,-2.8192,-2.8192,-2.8192,-2.8192,-2.8192,-2.8192,-2.8192,-2.8192,-2.8192,-2.8192,-2.8192,-2.8192,-2.8192,-2.8192,-2.8192,-2.8192,-2.8192,-2.8192,-2.8192,-2.8192,-2.8192,-2.8192,-2.8192,-2.8192,-2.8192,-2.8192,-2.8192,-2.8192,-2.8192,-2.8192,-2.8192,-2.8192,-2.8192,-2.8192,-2.8192,-2.8192,-2.8192,-2.8192,-2.8192,-2.8192,-2.8192,-2.8192,-2.8192,-2.8192,-2.8192,-2.8192,-2.8192,-2.8192,-2.8192,-2.8192,-2.8192,-2.8192,-2.8192,-2.8192,-2.8192,-2.8192,-2.8192,-2.8192,-2.8192,-2.8192,-2.8192,-2.8192,-2.8192,-2.8192,-2.8192,-2.8192,-2.8192,-2.8192,-2.8192,-2.8192,-2.8192,-2.8192,-2.8192,-2.8192,-2.8192,-2.8192,-2.8192,-2.8192,-2.8192,-2.8192,-2.8192,-2.8192,-2.8192,-2.8192,-2.8192,-2.8192,-2.8192,-2.8192,-2.8192,-2.8192,-2.8192,-2.8192,-2.8192,-2.8192,-2.8192,-2.8192,-2.8192,-2.8192,-2.8192,-2.8192,-2.8192,-2.8192,-2.8192,-2.8192,-2.8192,-2.8192,-2.8192,-2.8192,-2.8192,-2.8192,-2.8192,-2.8192,-2.8192,-2.8192,-2.8192,-2.8192,-2.8192,-2.8192,-2.8192,-2.8192,-2.8192,-2.8192,-2.8192,-2.8192,-2.8192,-2.8192,-2.8192,-2.8192,-2.8192,-2.8192,-2.8192,-2.8192,-2.8192,-2.8192,-2.8192,-2.8192,-2.8192,-2.8192,-2.8192,-2.8192,-2.8192,-2.8192,-2.8192,-2.8192,-2.8192,-2.8192,-2.8192,-2.8192,-2.8192,-2.8192,-2.8192,-2.8192,-2.8192,-2.8192,-2.8192,-2.8192,-2.8192,-2.8192,-2.8192,-2.8192,-2.8192,-2.8192,-2.8192,-2.8192,-2.8192,-2.8192,-2.8192,-2.8192,-2.8192,-2.8192,-2.8192,-2.8192,-2.8192,-2.8192,-2.8192,-2.8192,-2.8192,-2.8192,-2.8192,-2.8192,-2.8192,-2.8192,-2.8192,-2.8192,-2.8192,-2.8192,-2.8192,-2.8192,-2.8192,-2.8192,-2.8192,-2.8192,-2.8192,-2.8192,-2.8192,-2.8192,-2.8192,-2.8192,-2.8192,-2.8192,-2.8192,-2.8192,-2.8192,-2.8192,-2.8192,-2.8192,-2.8192,-2.8192,-2.8192,-2.8192,-2.8192,-2.8192,-2.8192,-2.8192,-2.8192,-2.8192,-2.8192,-2.8192,-2.8192,-2.8192,-2.8192,-2.8192,-2.8192,-2.8192,-2.8192,-2.8192,-2.8192,-2.8192,-2.8192,-2.8192,-2.8192,-2.8192,-2.8192,-2.8192,-2.8192,-2.8192,-2.8192,-2.8192,-2.8192,-2.8192,-2.8192,-2.8192,-2.8192,-2.8192,-2.8192,-2.8192,-2.8192,-2.8192,-2.8192,-2.8192,-2.8192,-2.8192,-2.8192,-2.8192,-2.8192,-2.8192,-2.8192,-2.8192,-2.8192,-2.8192,-2.8192,-2.8192,-2.8192,-2.8192,-2.8192,-2.8192,-2.8192,-2.8192,-2.8192,-2.8192,-2.8192,-2.8192,-2.8192,-2.8192,-2.8192,-2.8192,-2.8192,-2.8192,-2.8192,-2.8192,-2.8192,-2.8192,-2.8192,-2.8192,-2.8192,-2.8192,-2.8192,-2.8192,-2.8192,-2.8192,-2.8192,-2.8192,-2.8192,-2.8192,-2.8192,-2.8192,-2.8192,-2.8192,-2.8192,-2.8192,-2.8192,-2.8192,-2.8192,-2.8192,-2.8192,-2.8192,-2.8192,-2.8192,-2.8192,-2.8192,-2.8192,-2.8192,-2.8192,-2.8192,-2.8192,-2.8192,-2.8192,-2.8192,-2.8192,-2.8192,-2.8192,-2.8192,-2.8192,-2.8192,-2.8192,-2.8192,-2.8192,-2.8192,-2.8192,-2.8192,-2.8192,-2.8192,-2.8192,-2.8192,-2.8192,-2.8192,-2.8192,-2.8192,-2.8192,-2.8192,-2.8192,-2.8192,-2.8192,-2.8192,-2.8192,-2.8192,-2.8192,-2.8192,-2.8192,-2.8192,-2.8192,-2.8192,-2.8192,-2.8192,-2.8192,-2.8192,-2.8192,-2.8192,-2.8192,-2.8192,-2.8192,-2.8192,-2.8192,-2.8192,-2.8192,-2.8192,-2.8192,-2.8192,-2.8192,-2.8192,-2.8192,-2.8192,-2.8192,-2.8192,-2.8192,-2.8192,-2.8192,-2.8192,-2.8192,-2.8192,-2.8192,-2.8192,-2.8192,-2.8192,-2.8192,-2.8192,-2.8192,-2.8192,-2.8192,-2.8192,-2.8192,-2.8192,-2.8192,-2.8192,-2.8192,-2.8192,-2.8192,-2.8192,-2.8192,-2.8192,-2.8192,-2.8192,-2.8192,-2.8192,-2.8192,-2.8192,-2.8192,-2.8192,-2.8192,-2.8192,-2.8192,-2.8192,-2.8192,-2.8192,-2.8192,-2.8192,-2.8192,-2.8192,-2.8192,-2.8192,-2.8192,-2.8192,-2.8192,-2.8192,-2.8192,-2.8192,-2.8192,-2.8192,-2.8192,-2.8192,-2.8192,-2.8192,-2.8192,-2.8192,-2.8192,-2.8192,-2.8192,-2.8192,-2.8192,-2.8192,-2.8192,-2.8192,-2.8192,-2.8192,-2.8192,-2.8192,-2.8192,-2.8192,-2.8192,-2.8192,-2.8192,-2.8192,-2.8192,-2.8192,-2.8192,-2.8192,-2.8192,-2.8192,-2.8192,-2.8192,-2.8192,-2.8192,-2.8192,-2.8192,-2.8192,-2.8192,-2.8192,-2.8192,-2.8192,-2.8192,-2.8192,-2.8192,-2.8192,-2.8192,-2.8192,-2.8192,-2.8192,-2.8192,-2.8192,-2.8192,-2.8192,-2.8192,-2.8192,-2.8192,-2.8192,-2.8192,-2.8192,-2.8192,-2.8192,-2.8192,-2.8192,-2.8192,-2.8192,-2.8192,-2.8192,-2.8192]},{"header":{"parameterUnit":"m.s-1","parameterCategory":1,"la1":31.0,"la2":29.5877,"lo1":-88.7671,"lo2":-86.6584,"dy":0.0162,"dx":0.0185,"nx":115,"ny":88,"refTime":"2024-06-13T18:00:00:Z","depth":0,"parameterNumber":3,"parameterNumberName":"V-component_of_WINDS"},"data":[0.0,0.0,0.0,0.0,0.0,0.0,0.0,0.0,0.0,0.0,0.0,0.0,0.0,0.0,0.0,0.0,0.0,0.0,0.0,0.0,0.0,0.0,0.0,0.0,0.0,0.0,0.0,0.0,0.0,0.0,0.0,0.0,0.0,0.0,0.0,0.0,0.0,0.0,0.0,0.0,0.0,0.0,0.0,0.0,0.0,0.0,0.0,0.0,0.0,0.0,0.0,0.0,0.0,0.0,0.0,0.0,0.0,0.0,0.0,0.0,0.0,0.0,0.0,0.0,0.0,0.0,0.0,0.0,0.0,0.0,0.0,0.0,0.0,0.0,0.0,0.0,0.0,0.0,0.0,0.0,0.0,0.0,0.0,0.0,0.0,0.0,0.0,0.0,0.0,0.0,0.0,0.0,0.0,0.0,0.0,0.0,0.0,0.0,0.0,0.0,0.0,0.0,0.0,0.0,0.0,0.0,0.0,0.0,0.0,0.0,0.0,0.0,0.0,0.0,0.0,0.0,0.0,0.0,0.0,0.0,0.0,0.0,0.0,0.0,0.0,0.0,0.0,0.0,0.0,0.0,0.0,0.0,0.0,0.0,0.0,0.0,0.0,0.0,0.0,0.0,0.0,0.0,0.0,0.0,0.0,0.0,0.0,0.0,0.0,0.0,0.0,0.0,0.0,0.0,0.0,0.0,0.0,0.0,0.0,0.0,0.0,0.0,0.0,0.0,0.0,0.0,0.0,0.0,0.0,0.0,0.0,0.0,0.0,0.0,0.0,0.0,0.0,0.0,0.0,0.0,0.0,0.0,0.0,0.0,0.0,0.0,0.0,0.0,0.0,0.0,0.0,0.0,0.0,0.0,0.0,0.0,0.0,0.0,0.0,0.0,0.0,0.0,0.0,0.0,0.0,0.0,0.0,0.0,0.0,0.0,0.0,0.0,0.0,0.0,0.0,0.0,0.0,0.0,0.0,0.0,0.0,0.0,0.0,0.0,0.0,0.0,0.0,0.0,0.0,0.0,0.0,0.0,0.0,0.0,0.0,0.0,0.0,0.0,0.0,0.0,0.0,0.0,0.0,0.0,0.0,0.0,0.0,0.0,0.0,0.0,0.0,0.0,0.0,0.0,0.0,0.0,0.0,0.0,0.0,0.0,0.0,0.0,0.0,0.0,0.0,0.0,0.0,0.0,0.0,0.0,0.0,0.0,0.0,0.0,0.0,0.0,0.0,0.0,0.0,0.0,0.0,0.0,0.0,0.0,0.0,0.0,0.0,0.0,0.0,0.0,0.0,0.0,0.0,0.0,0.0,0.0,0.0,0.0,0.0,0.0,0.0,0.0,0.0,0.0,0.0,0.0,0.0,0.0,0.0,0.0,0.0,0.0,0.0,0.0,0.0,0.0,0.0,0.0,0.0,0.0,0.0,0.0,0.0,0.0,0.0,0.0,0.0,0.0,0.0,0.0,0.0,0.0,0.0,0.0,0.0,0.0,0.0,0.0,0.0,0.0,0.0,0.0,0.0,0.0,0.0,0.0,0.0,0.0,0.0,0.0,0.0,0.0,0.0,0.0,0.0,0.0,0.0,0.0,0.0,0.0,0.0,0.0,0.0,0.0,0.0,0.0,0.0,0.0,0.0,0.0,0.0,0.0,0.0,0.0,0.0,0.0,0.0,0.0,0.0,0.0,0.0,0.0,0.0,0.0,0.0,0.0,0.0,0.0,0.0,0.0,0.0,0.0,0.0,0.0,0.0,0.0,0.0,0.0,0.0,0.0,0.0,0.0,0.0,0.0,0.0,0.0,0.0,0.0,0.0,0.0,0.0,0.0,0.0,0.0,0.0,0.0,0.0,0.0,0.0,0.0,0.0,0.0,0.0,0.0,0.0,0.0,0.0,0.0,0.0,0.0,0.0,0.0,0.0,0.0,0.0,0.0,0.0,0.0,0.0,0.0,0.0,0.0,0.0,0.0,0.0,0.0,0.0,0.0,0.0,0.0,0.0,0.0,0.0,0.0,0.0,0.0,0.0,0.0,0.0,0.0,0.0,0.0,0.0,0.0,0.0,0.0,0.0,0.0,0.0,0.0,0.0,0.0,0.0,0.0,0.0,0.0,0.0,0.0,0.0,0.0,0.0,0.0,0.0,0.0,0.0,0.0,0.0,0.0,0.0,0.0,0.0,0.0,0.0,0.0,0.0,0.0,0.0,0.0,0.0,0.0,0.0,0.0,0.0,0.0,0.0,0.0,0.0,0.0,0.0,0.0,0.0,0.0,0.0,0.0,0.0,0.0,0.0,0.0,0.0,0.0,0.0,0.0,0.0,0.0,0.0,0.0,0.0,0.0,0.0,0.0,0.0,0.0,0.0,0.0,0.0,0.0,0.0,0.0,0.0,0.0,0.0,0.0,0.0,0.0,0.0,0.0,0.0,0.0,0.0,0.0,0.0,0.0,0.0,0.0,0.0,0.0,0.0,0.0,0.0,0.0,0.0,0.0,0.0,0.0,0.0,0.0,0.0,0.0,0.0,0.0,0.0,0.0,0.0,0.0,0.0,0.0,0.0,0.0,0.0,0.0,0.0,0.0,0.0,0.0,0.0,0.0,0.0,0.0,0.0,0.0,0.0,0.0,0.0,0.0,0.0,0.0,0.0,0.0,0.0,0.0,0.0,0.0,0.0,0.0,0.0,0.0,0.0,0.0,0.0,0.0,0.0,0.0,0.0,0.0,0.0,0.0,0.0,0.0,0.0,0.0,0.0,0.0,0.0,0.0,0.0,0.0,0.0,0.0,0.0,0.0,0.0,0.0,0.0,0.0,0.0,0.0,0.0,0.0,0.0,0.0,0.0,0.0,0.0,0.0,0.0,0.0,0.0,0.0,0.0,0.0,0.0,0.0,0.0,0.0,0.0,0.0,0.0,0.0,0.0,0.0,0.0,0.0,0.0,0.0,0.0,0.0,0.0,0.0,0.0,0.0,0.0,0.0,0.0,0.0,0.0,0.0,0.0,0.0,0.0,0.0,0.0,0.0,0.0,0.0,0.0,0.0,0.0,0.0,0.0,0.0,0.0,0.0,0.0,0.0,0.0,0.0,0.0,0.0,0.0,0.0,0.0,0.0,0.0,0.0,0.0,0.0,0.0,0.0,0.0,0.0,0.0,0.0,0.0,0.0,0.0,0.0,0.0,0.0,0.0,0.0,0.0,0.0,0.0,0.0,0.0,0.0,0.0,0.0,0.0,0.0,0.0,0.0,0.0,0.0,0.0,0.0,0.0,0.0,0.0,0.0,0.0,0.0,0.0,0.0,0.0,0.0,0.0,0.0,0.0,0.0,0.0,0.0,0.0,0.0,0.0,0.0,0.0,0.0,0.0,0.0,0.0,0.0,0.0,0.0,0.0,0.0,0.0,0.0,0.0,0.0,0.0,0.0,0.0,0.0,0.0,0.0,0.0,0.0,0.0,0.0,0.0,0.0,0.0,0.0,0.0,0.0,0.0,0.0,0.0,0.0,0.0,0.0,0.0,0.0,0.0,0.0,0.0,0.0,0.0,0.0,0.0,0.0,0.0,0.0,0.0,0.0,0.0,0.0,0.0,0.0,0.0,0.0,0.0,0.0,0.0,0.0,0.0,0.0,0.0,0.0,0.0,0.0,0.0,0.0,0.0,0.0,0.0,0.0,0.0,0.0,0.0,0.0,0.0,0.0,0.0,0.0,0.0,0.0,0.0,0.0,0.0,0.0,0.0,0.0,0.0,0.0,0.0,0.0,0.0,0.0,0.0,0.0,0.0,0.0,0.0,0.0,0.0,0.0,0.0,0.0,0.0,0.0,0.0,0.0,0.0,0.0,0.0,0.0,0.0,0.0,0.0,0.0,0.0,0.0,0.0,0.0,0.0,0.0,0.0,0.0,0.0,0.0,0.0,0.0,0.0,0.0,0.0,0.0,0.0,0.0,0.0,0.0,0.0,0.0,0.0,0.0,0.0,0.0,0.0,0.0,0.0,0.0,0.0,0.0,0.0,0.0,0.0,0.0,0.0,0.0,0.0,0.0,0.0,0.0,0.0,0.0,0.0,0.0,0.0,0.0,0.0,0.0,0.0,0.0,0.0,0.0,0.0,0.0,0.0,0.0,0.0,0.0,0.0,0.0,0.0,0.0,0.0,0.0,0.0,0.0,0.0,0.0,0.0,0.0,0.0,0.0,0.0,0.0,0.0,0.0,0.0,0.0,0.0,0.0,0.0,0.0,0.0,0.0,0.0,0.0,0.0,0.0,0.0,0.0,0.0,0.0,3.3472,0.0,0.0,0.0,0.0,0.0,0.0,0.0,0.0,0.0,0.0,0.0,0.0,0.0,0.0,0.0,0.0,0.0,0.0,0.0,0.0,0.0,0.0,0.0,0.0,0.0,0.0,0.0,0.0,0.0,0.0,0.0,0.0,0.0,0.0,0.0,0.0,0.0,0.0,0.0,0.0,0.0,0.0,0.0,0.0,0.0,0.0,0.0,0.0,0.0,0.0,0.0,0.0,0.0,0.0,0.0,0.0,0.0,0.0,0.0,0.0,0.0,0.0,0.0,0.0,0.0,0.0,0.0,0.0,0.0,0.0,0.0,0.0,0.0,0.0,0.0,0.0,0.0,0.0,0.0,0.0,0.0,0.0,0.0,0.0,0.0,0.0,0.0,0.0,0.0,0.0,0.0,0.0,0.0,0.0,0.0,0.0,0.0,0.0,0.0,0.0,0.0,0.0,0.0,0.0,0.0,0.0,0.0,0.0,0.0,0.0,3.6062,3.5611,3.569,3.5024,3.3491,0.0,0.0,0.0,0.0,0.0,0.0,0.0,0.0,0.0,0.0,0.0,0.0,0.0,0.0,0.0,0.0,0.0,0.0,0.0,0.0,0.0,0.0,0.0,0.0,0.0,0.0,0.0,0.0,0.0,0.0,0.0,0.0,0.0,0.0,0.0,0.0,0.0,0.0,0.0,0.0,0.0,0.0,0.0,0.0,0.0,0.0,0.0,0.0,0.0,0.0,0.0,0.0,0.0,0.0,0.0,0.0,0.0,0.0,0.0,0.0,0.0,0.0,0.0,0.0,0.0,0.0,0.0,0.0,0.0,0.0,0.0,0.0,0.0,0.0,0.0,0.0,0.0,0.0,0.0,0.0,0.0,0.0,0.0,0.0,0.0,0.0,0.0,0.0,0.0,0.0,0.0,0.0,0.0,0.0,0.0,0.0,0.0,0.0,0.0,0.0,0.0,0.0,0.0,0.0,0.0,0.0,0.0,0.0,0.0,0.0,0.0,0.0,3.6479,3.5859,3.392,0.0,0.0,0.0,0.0,0.0,0.0,0.0,0.0,0.0,0.0,0.0,0.0,0.0,0.0,0.0,0.0,0.0,0.0,0.0,0.0,0.0,0.0,0.0,0.0,0.0,0.0,0.0,0.0,0.0,0.0,0.0,0.0,0.0,0.0,0.0,0.0,0.0,0.0,0.0,0.0,0.0,0.0,0.0,0.0,0.0,0.0,0.0,0.0,0.0,0.0,0.0,0.0,0.0,0.0,0.0,0.0,0.0,0.0,0.0,0.0,0.0,0.0,0.0,0.0,0.0,0.0,0.0,0.0,0.0,0.0,0.0,0.0,0.0,0.0,0.0,0.0,0.0,0.0,0.0,0.0,0.0,0.0,0.0,0.0,0.0,0.0,0.0,0.0,0.0,0.0,0.0,0.0,0.0,0.0,0.0,0.0,0.0,0.0,0.0,0.0,0.0,0.0,0.0,0.0,0.0,0.0,0.0,0.0,0.0,0.0,3.6017,3.6648,3.675,0.0,3.5135,0.0,0.0,0.0,0.0,0.0,0.0,0.0,0.0,0.0,0.0,0.0,0.0,0.0,0.0,0.0,0.0,0.0,0.0,0.0,0.0,0.0,0.0,0.0,0.0,0.0,0.0,0.0,0.0,0.0,0.0,0.0,0.0,0.0,0.0,0.0,0.0,0.0,0.0,0.0,0.0,0.0,0.0,0.0,0.0,0.0,0.0,0.0,0.0,0.0,0.0,0.0,0.0,0.0,0.0,0.0,0.0,0.0,0.0,0.0,0.0,0.0,0.0,0.0,0.0,0.0,0.0,0.0,0.0,0.0,0.0,0.0,0.0,0.0,0.0,0.0,0.0,0.0,0.0,0.0,0.0,0.0,0.0,0.0,0.0,0.0,0.0,0.0,0.0,0.0,0.0,0.0,0.0,0.0,0.0,0.0,0.0,0.0,0.0,0.0,0.0,0.0,0.0,0.0,0.0,0.0,0.0,0.0,0.0,0.0,0.0,3.6907,3.6818,3.5904,3.5225,0.0,0.0,0.0,0.0,0.0,0.0,0.0,0.0,0.0,0.0,0.0,0.0,0.0,0.0,0.0,0.0,0.0,0.0,0.0,0.0,0.0,0.0,0.0,0.0,0.0,0.0,0.0,0.0,0.0,0.0,0.0,0.0,0.0,0.0,0.0,0.0,0.0,0.0,0.0,0.0,0.0,0.0,0.0,0.0,0.0,0.0,0.0,0.0,0.0,0.0,0.0,0.0,0.0,0.0,0.0,0.0,0.0,0.0,0.0,0.0,0.0,0.0,0.0,0.0,0.0,0.0,0.0,0.0,0.0,0.0,0.0,0.0,0.0,0.0,0.0,0.0,0.0,0.0,0.0,0.0,0.0,0.0,0.0,0.0,0.0,0.0,0.0,0.0,0.0,0.0,0.0,0.0,0.0,0.0,0.0,0.0,0.0,0.0,0.0,0.0,0.0,0.0,0.0,0.0,0.0,0.0,0.0,0.0,0.0,0.0,3.7133,3.7449,3.7088,3.6028,3.5148,3.4506,0.0,0.0,0.0,0.0,0.0,0.0,0.0,0.0,0.0,0.0,0.0,0.0,0.0,0.0,0.0,0.0,0.0,0.0,0.0,0.0,0.0,0.0,0.0,0.0,0.0,0.0,0.0,0.0,0.0,0.0,0.0,0.0,0.0,0.0,0.0,0.0,0.0,0.0,0.0,0.0,0.0,0.0,0.0,0.0,0.0,0.0,0.0,0.0,0.0,0.0,0.0,0.0,0.0,0.0,0.0,0.0,0.0,0.0,0.0,0.0,0.0,0.0,0.0,0.0,0.0,0.0,0.0,0.0,0.0,0.0,0.0,0.0,0.0,0.0,0.0,0.0,0.0,0.0,0.0,0.0,0.0,0.0,0.0,0.0,0.0,0.0,0.0,0.0,0.0,0.0,0.0,0.0,0.0,0.0,0.0,0.0,0.0,0.0,0.0,0.0,0.0,0.0,0.0,0.0,0.0,0.0,0.0,0.0,3.7674,3.7156,3.719,3.7833,3.7787,3.6738,0.0,0.0,0.0,0.0,0.0,0.0,0.0,0.0,0.0,0.0,0.0,0.0,0.0,0.0,0.0,0.0,0.0,0.0,0.0,0.0,0.0,0.0,0.0,0.0,0.0,0.0,0.0,0.0,0.0,0.0,0.0,0.0,0.0,0.0,0.0,0.0,0.0,0.0,0.0,0.0,0.0,0.0,0.0,0.0,0.0,0.0,0.0,0.0,0.0,0.0,0.0,0.0,0.0,0.0,0.0,0.0,0.0,0.0,0.0,0.0,0.0,0.0,0.0,0.0,0.0,0.0,0.0,0.0,0.0,0.0,0.0,0.0,0.0,0.0,0.0,0.0,0.0,0.0,0.0,0.0,0.0,0.0,0.0,0.0,0.0,0.0,0.0,0.0,0.0,0.0,0.0,0.0,0.0,0.0,0.0,0.0,0.0,0.0,0.0,0.0,0.0,0.0,0.0,0.0,0.0,0.0,0.0,0.0,0.0,3.6422,3.6682,3.7569,3.8975,3.6922,3.572,0.0,0.0,0.0,0.0,0.0,0.0,0.0,0.0,0.0,0.0,0.0,0.0,0.0,0.0,0.0,0.0,0.0,0.0,0.0,0.0,0.0,0.0,0.0,0.0,0.0,0.0,0.0,0.0,0.0,0.0,0.0,0.0,0.0,0.0,0.0,0.0,0.0,0.0,0.0,0.0,0.0,0.0,0.0,0.0,0.0,0.0,0.0,0.0,0.0,0.0,0.0,0.0,0.0,0.0,0.0,0.0,0.0,0.0,0.0,0.0,0.0,0.0,0.0,0.0,0.0,0.0,0.0,0.0,0.0,0.0,0.0,0.0,0.0,0.0,0.0,0.0,0.0,0.0,0.0,0.0,0.0,0.0,0.0,0.0,0.0,0.0,0.0,0.0,0.0,0.0,0.0,0.0,0.0,0.0,0.0,0.0,0.0,0.0,0.0,0.0,0.0,0.0,0.0,0.0,0.0,0.0,0.0,0.0,0.0,3.6355,0.0,3.8045,0.0,3.6865,3.5572,0.0,0.0,0.0,0.0,0.0,0.0,0.0,0.0,0.0,0.0,0.0,0.0,0.0,0.0,0.0,0.0,0.0,0.0,0.0,0.0,0.0,0.0,0.0,0.0,0.0,0.0,0.0,0.0,0.0,0.0,0.0,0.0,0.0,0.0,0.0,0.0,0.0,0.0,0.0,0.0,0.0,0.0,0.0,0.0,0.0,0.0,0.0,0.0,0.0,0.0,0.0,0.0,0.0,0.0,0.0,0.0,0.0,0.0,0.0,0.0,0.0,0.0,0.0,0.0,0.0,0.0,0.0,0.0,0.0,0.0,0.0,0.0,0.0,0.0,0.0,0.0,0.0,0.0,0.0,0.0,0.0,0.0,0.0,0.0,0.0,0.0,0.0,0.0,0.0,0.0,0.0,0.0,0.0,0.0,0.0,0.0,0.0,0.0,0.0,0.0,0.0,0.0,0.0,0.0,0.0,0.0,0.0,0.0,3.6377,3.7821,3.8568,3.8686,3.7992,3.7846,3.6468,0.0,0.0,0.0,0.0,0.0,0.0,0.0,0.0,0.0,0.0,0.0,0.0,0.0,0.0,0.0,0.0,0.0,0.0,0.0,0.0,0.0,0.0,0.0,0.0,0.0,0.0,0.0,0.0,0.0,0.0,0.0,0.0,0.0,0.0,0.0,0.0,0.0,0.0,0.0,0.0,0.0,0.0,0.0,0.0,0.0,0.0,0.0,0.0,0.0,0.0,0.0,0.0,0.0,0.0,0.0,0.0,0.0,0.0,0.0,0.0,0.0,0.0,0.0,0.0,0.0,0.0,0.0,0.0,0.0,0.0,0.0,0.0,0.0,0.0,0.0,0.0,0.0,0.0,0.0,0.0,0.0,0.0,0.0,0.0,0.0,0.0,0.0,0.0,0.0,0.0,0.0,0.0,0.0,0.0,0.0,0.0,0.0,0.0,0.0,0.0,0.0,0.0,0.0,0.0,0.0,0.0,0.0,0.0,0.0,3.7168,3.8635,3.9826,4.0526,3.825,3.721,0.0,0.0,0.0,0.0,0.0,0.0,0.0,0.0,0.0,0.0,0.0,0.0,0.0,0.0,0.0,0.0,0.0,0.0,0.0,0.0,0.0,0.0,0.0,0.0,0.0,0.0,0.0,0.0,0.0,0.0,0.0,0.0,0.0,0.0,0.0,0.0,0.0,0.0,0.0,0.0,0.0,0.0,0.0,0.0,0.0,0.0,0.0,0.0,0.0,0.0,0.0,0.0,0.0,0.0,0.0,0.0,0.0,0.0,0.0,0.0,0.0,0.0,0.0,0.0,0.0,0.0,0.0,0.0,0.0,0.0,0.0,0.0,0.0,0.0,0.0,0.0,0.0,0.0,0.0,0.0,0.0,0.0,0.0,0.0,0.0,0.0,0.0,0.0,0.0,0.0,0.0,0.0,0.0,0.0,0.0,0.0,0.0,0.0,0.0,0.0,0.0,0.0,0.0,0.0,0.0,0.0,0.0,0.0,0.0,3.9225,3.9831,4.0533,4.1229,3.9006,3.7934,3.8094,0.0,0.0,0.0,0.0,0.0,0.0,0.0,0.0,0.0,0.0,0.0,0.0,0.0,0.0,0.0,0.0,0.0,0.0,0.0,0.0,0.0,0.0,0.0,0.0,0.0,0.0,0.0,0.0,0.0,0.0,0.0,0.0,0.0,0.0,0.0,0.0,0.0,0.0,0.0,0.0,0.0,0.0,0.0,0.0,0.0,0.0,0.0,0.0,0.0,0.0,0.0,0.0,0.0,0.0,0.0,0.0,0.0,0.0,0.0,0.0,0.0,0.0,0.0,0.0,0.0,0.0,0.0,0.0,0.0,0.0,0.0,0.0,0.0,0.0,0.0,0.0,0.0,0.0,0.0,0.0,0.0,0.0,0.0,0.0,0.0,0.0,0.0,0.0,0.0,0.0,0.0,0.0,0.0,0.0,0.0,0.0,0.0,0.0,0.0,0.0,0.0,0.0,0.0,0.0,0.0,0.0,0.0,0.0,4.3137,4.2027,4.1205,4.0635,4.039,3.8945,0.0,0.0,0.0,0.0,0.0,0.0,0.0,0.0,0.0,0.0,0.0,0.0,0.0,0.0,0.0,0.0,0.0,0.0,0.0,0.0,0.0,0.0,0.0,0.0,0.0,0.0,0.0,0.0,0.0,0.0,0.0,0.0,0.0,0.0,0.0,0.0,0.0,0.0,0.0,0.0,0.0,0.0,0.0,0.0,0.0,0.0,0.0,0.0,0.0,0.0,0.0,0.0,0.0,0.0,0.0,0.0,0.0,0.0,0.0,0.0,0.0,0.0,0.0,0.0,0.0,0.0,0.0,0.0,0.0,0.0,0.0,0.0,0.0,0.0,0.0,0.0,0.0,0.0,0.0,0.0,0.0,0.0,0.0,0.0,0.0,0.0,0.0,0.0,0.0,0.0,0.0,0.0,0.0,0.0,0.0,0.0,0.0,0.0,0.0,0.0,0.0,0.0,0.0,0.0,0.0,0.0,0.0,0.0,0.0,4.3922,4.4346,4.4875,4.5459,4.3445,4.1943,0.0,0.0,0.0,0.0,0.0,0.0,0.0,0.0,0.0,0.0,0.0,0.0,0.0,0.0,0.0,0.0,0.0,0.0,0.0,0.0,0.0,0.0,0.0,0.0,0.0,0.0,0.0,0.0,0.0,0.0,0.0,0.0,0.0,0.0,0.0,0.0,0.0,0.0,0.0,0.0,0.0,0.0,0.0,0.0,0.0,0.0,0.0,0.0,0.0,0.0,0.0,0.0,0.0,0.0,0.0,0.0,0.0,0.0,0.0,0.0,0.0,0.0,0.0,0.0,0.0,0.0,0.0,0.0,0.0,0.0,0.0,0.0,0.0,0.0,0.0,0.0,0.0,0.0,0.0,0.0,0.0,0.0,0.0,0.0,0.0,0.0,0.0,0.0,0.0,0.0,0.0,0.0,0.0,0.0,0.0,0.0,0.0,0.0,0.0,0.0,0.0,0.0,0.0,0.0,0.0,0.0,0.0,0.0,4.4535,4.6492,4.7708,4.8687,4.9383,4.6274,4.3734,0.0,0.0,0.0,0.0,0.0,0.0,0.0,0.0,0.0,0.0,0.0,0.0,0.0,0.0,0.0,0.0,0.0,0.0,0.0,0.0,0.0,0.0,0.0,0.0,0.0,0.0,0.0,0.0,0.0,0.0,0.0,0.0,0.0,0.0,0.0,0.0,0.0,0.0,0.0,0.0,0.0,0.0,0.0,0.0,0.0,0.0,0.0,0.0,0.0,0.0,0.0,0.0,0.0,0.0,0.0,0.0,0.0,0.0,0.0,0.0,0.0,0.0,0.0,0.0,0.0,0.0,0.0,0.0,0.0,0.0,0.0,0.0,0.0,0.0,0.0,0.0,0.0,0.0,0.0,0.0,0.0,0.0,0.0,0.0,0.0,0.0,0.0,0.0,0.0,0.0,0.0,0.0,0.0,0.0,0.0,0.0,0.0,0.0,0.0,0.0,0.0,0.0,0.0,0.0,0.0,0.0,0.0,0.0,4.6795,4.9438,5.1015,5.1782,5.1705,4.8626,4.4927,0.0,0.0,0.0,0.0,0.0,0.0,0.0,0.0,0.0,0.0,0.0,0.0,0.0,0.0,0.0,0.0,0.0,0.0,0.0,0.0,0.0,0.0,0.0,0.0,0.0,0.0,0.0,0.0,0.0,0.0,0.0,0.0,0.0,0.0,0.0,0.0,0.0,0.0,0.0,0.0,0.0,0.0,0.0,0.0,0.0,0.0,0.0,0.0,0.0,0.0,0.0,0.0,0.0,0.0,0.0,0.0,0.0,0.0,0.0,0.0,0.0,0.0,0.0,0.0,0.0,0.0,0.0,0.0,0.0,0.0,0.0,0.0,0.0,0.0,0.0,0.0,0.0,0.0,0.0,0.0,0.0,0.0,0.0,0.0,0.0,0.0,0.0,0.0,0.0,0.0,0.0,0.0,0.0,0.0,0.0,0.0,0.0,0.0,0.0,0.0,0.0,0.0,0.0,0.0,0.0,0.0,0.0,0.0,4.7151,4.8853,4.9883,5.0426,5.0436,4.9041,4.7033,0.0,0.0,0.0,0.0,0.0,0.0,0.0,0.0,0.0,0.0,0.0,0.0,0.0,0.0,0.0,0.0,0.0,0.0,0.0,0.0,0.0,0.0,0.0,0.0,0.0,0.0,0.0,0.0,0.0,0.0,0.0,0.0,0.0,0.0,0.0,0.0,0.0,0.0,0.0,0.0,0.0,0.0,0.0,0.0,0.0,0.0,0.0,0.0,4.4378,0.0,0.0,0.0,0.0,0.0,0.0,0.0,0.0,0.0,0.0,0.0,0.0,0.0,0.0,0.0,0.0,0.0,0.0,0.0,0.0,0.0,0.0,0.0,0.0,0.0,0.0,0.0,0.0,0.0,0.0,0.0,0.0,0.0,0.0,0.0,0.0,0.0,0.0,0.0,0.0,0.0,0.0,0.0,0.0,0.0,0.0,0.0,0.0,0.0,0.0,0.0,0.0,0.0,0.0,0.0,0.0,0.0,0.0,0.0,4.959,5.1309,5.1835,5.2086,5.2017,5.0537,4.8193,0.0,0.0,0.0,0.0,0.0,0.0,0.0,0.0,0.0,0.0,0.0,0.0,0.0,0.0,0.0,0.0,0.0,0.0,0.0,0.0,0.0,0.0,0.0,0.0,0.0,0.0,0.0,0.0,0.0,0.0,0.0,0.0,0.0,0.0,0.0,0.0,0.0,0.0,0.0,0.0,0.0,0.0,0.0,0.0,0.0,0.0,0.0,0.0,0.0,0.0,0.0,0.0,0.0,0.0,0.0,0.0,0.0,0.0,0.0,0.0,0.0,0.0,0.0,0.0,0.0,0.0,0.0,0.0,0.0,0.0,0.0,0.0,0.0,0.0,0.0,0.0,0.0,0.0,0.0,0.0,0.0,0.0,0.0,0.0,0.0,0.0,0.0,0.0,0.0,0.0,0.0,0.0,0.0,0.0,0.0,0.0,0.0,0.0,0.0,0.0,0.0,0.0,0.0,0.0,0.0,0.0,0.0,4.9423,5.1759,5.4138,5.4045,5.3961,5.4015,5.1836,4.8742,4.4831,0.0,0.0,0.0,0.0,0.0,0.0,0.0,0.0,0.0,0.0,0.0,0.0,0.0,0.0,0.0,0.0,0.0,0.0,0.0,0.0,0.0,0.0,0.0,0.0,0.0,0.0,0.0,0.0,0.0,0.0,0.0,0.0,0.0,0.0,0.0,0.0,0.0,0.0,4.3836,4.4672,0.0,0.0,0.0,0.0,0.0,0.0,0.0,0.0,4.4883,0.0,0.0,0.0,0.0,0.0,0.0,0.0,0.0,0.0,0.0,0.0,0.0,0.0,0.0,0.0,0.0,0.0,0.0,0.0,0.0,0.0,0.0,0.0,0.0,0.0,0.0,0.0,0.0,0.0,0.0,0.0,0.0,0.0,0.0,0.0,0.0,0.0,0.0,0.0,0.0,0.0,0.0,0.0,0.0,0.0,0.0,0.0,0.0,0.0,0.0,0.0,0.0,0.0,0.0,0.0,0.0,4.944,4.8683,4.9991,5.3423,5.2365,5.2007,5.2507,5.0831,4.8494,4.5563,0.0,0.0,0.0,0.0,0.0,0.0,0.0,0.0,0.0,0.0,0.0,0.0,0.0,0.0,0.0,0.0,0.0,0.0,0.0,0.0,0.0,0.0,0.0,0.0,0.0,0.0,0.0,0.0,0.0,0.0,0.0,0.0,0.0,0.0,0.0,0.0,0.0,0.0,0.0,4.6764,4.7452,0.0,0.0,0.0,0.0,0.0,0.0,0.0,0.0,4.5397,0.0,0.0,0.0,0.0,0.0,0.0,0.0,0.0,0.0,0.0,0.0,0.0,0.0,0.0,0.0,0.0,0.0,0.0,0.0,0.0,0.0,0.0,0.0,0.0,0.0,0.0,0.0,0.0,0.0,0.0,0.0,0.0,0.0,0.0,0.0,0.0,0.0,0.0,0.0,0.0,0.0,0.0,0.0,0.0,0.0,0.0,0.0,0.0,0.0,0.0,0.0,0.0,0.0,0.0,0.0,4.9456,5.1033,5.3108,5.5615,5.4281,5.3633,5.3905,5.1179,4.8557,0.0,0.0,0.0,0.0,0.0,0.0,0.0,0.0,0.0,0.0,0.0,0.0,0.0,0.0,0.0,0.0,0.0,0.0,0.0,0.0,0.0,0.0,0.0,0.0,0.0,0.0,0.0,0.0,0.0,0.0,0.0,0.0,0.0,0.0,0.0,0.0,0.0,0.0,0.0,0.0,4.7562,4.8333,4.8379,0.0,0.0,0.0,0.0,0.0,0.0,4.6094,4.5874,0.0,0.0,0.0,0.0,0.0,0.0,0.0,0.0,0.0,0.0,0.0,0.0,0.0,0.0,0.0,0.0,0.0,0.0,0.0,0.0,0.0,0.0,0.0,0.0,0.0,0.0,0.0,0.0,0.0,0.0,0.0,0.0,0.0,0.0,0.0,0.0,0.0,0.0,0.0,0.0,0.0,0.0,0.0,0.0,0.0,0.0,0.0,0.0,0.0,0.0,0.0,0.0,0.0,0.0,0.0,4.915,5.2818,5.5706,5.7579,5.6194,5.5333,5.5078,5.172,4.8782,0.0,0.0,0.0,0.0,0.0,0.0,0.0,0.0,0.0,0.0,0.0,0.0,0.0,0.0,0.0,0.0,0.0,0.0,0.0,0.0,0.0,0.0,0.0,0.0,0.0,0.0,0.0,0.0,0.0,0.0,0.0,0.0,0.0,0.0,0.0,0.0,0.0,0.0,0.0,0.0,0.0,4.9554,4.9601,4.9307,0.0,0.0,0.0,0.0,4.7846,4.7452,0.0,0.0,0.0,0.0,0.0,0.0,0.0,0.0,0.0,0.0,0.0,0.0,0.0,0.0,0.0,0.0,0.0,0.0,0.0,0.0,0.0,0.0,0.0,0.0,0.0,0.0,0.0,0.0,0.0,0.0,0.0,0.0,0.0,0.0,0.0,0.0,0.0,0.0,0.0,0.0,0.0,0.0,0.0,0.0,0.0,0.0,0.0,0.0,0.0,0.0,0.0,0.0,0.0,0.0,0.0,0.0,4.9043,5.08,5.3447,5.6747,5.5499,5.438,5.3642,5.1766,4.9173,0.0,0.0,0.0,0.0,0.0,0.0,0.0,0.0,0.0,0.0,0.0,0.0,0.0,0.0,0.0,0.0,0.0,0.0,0.0,0.0,0.0,0.0,0.0,0.0,0.0,0.0,0.0,0.0,0.0,0.0,0.0,0.0,0.0,0.0,0.0,0.0,0.0,0.0,0.0,0.0,0.0,5.2674,4.9978,5.0739,5.1032,0.0,0.0,5.0398,5.0388,5.0875,0.0,0.0,0.0,0.0,0.0,0.0,0.0,0.0,0.0,0.0,0.0,0.0,0.0,0.0,0.0,0.0,0.0,0.0,0.0,0.0,0.0,0.0,0.0,0.0,0.0,0.0,0.0,0.0,0.0,0.0,0.0,0.0,0.0,0.0,0.0,0.0,0.0,0.0,0.0,0.0,0.0,0.0,0.0,0.0,0.0,0.0,0.0,0.0,0.0,0.0,0.0,0.0,0.0,0.0,0.0,4.718,4.9138,5.257,5.5426,5.7389,5.6418,5.5437,5.4677,5.2165,4.9513,0.0,0.0,0.0,0.0,0.0,0.0,0.0,0.0,0.0,0.0,0.0,0.0,0.0,0.0,0.0,0.0,0.0,0.0,0.0,0.0,0.0,0.0,0.0,0.0,0.0,0.0,0.0,0.0,0.0,0.0,0.0,0.0,0.0,0.0,0.0,0.0,0.0,0.0,0.0,0.0,0.0,0.0,5.238,5.2527,0.0,0.0,0.0,5.215,5.215,0.0,0.0,0.0,0.0,0.0,0.0,0.0,0.0,0.0,0.0,0.0,0.0,0.0,0.0,0.0,0.0,0.0,0.0,0.0,0.0,0.0,0.0,0.0,0.0,0.0,0.0,0.0,0.0,0.0,0.0,0.0,0.0,0.0,0.0,0.0,0.0,0.0,0.0,0.0,0.0,0.0,0.0,0.0,0.0,0.0,0.0,0.0,0.0,0.0,0.0,0.0,0.0,0.0,0.0,0.0,0.0,0.0,4.9376,5.4269,5.7178,5.796,5.7409,5.6638,5.5585,5.2868,0.0,0.0,0.0,0.0,0.0,0.0,0.0,0.0,0.0,0.0,0.0,0.0,0.0,0.0,0.0,0.0,0.0,0.0,0.0,0.0,0.0,0.0,0.0,0.0,0.0,0.0,0.0,3.7991,0.0,0.0,0.0,0.0,0.0,0.0,0.0,0.0,0.0,0.0,0.0,0.0,0.0,0.0,5.3052,5.4252,5.4242,5.4242,0.0,0.0,5.4021,5.3838,5.3665,5.2868,0.0,0.0,0.0,0.0,0.0,0.0,0.0,0.0,0.0,0.0,0.0,0.0,0.0,0.0,0.0,0.0,0.0,0.0,0.0,0.0,0.0,0.0,0.0,0.0,0.0,0.0,0.0,0.0,0.0,0.0,0.0,0.0,0.0,0.0,0.0,0.0,0.0,0.0,0.0,0.0,0.0,0.0,0.0,0.0,0.0,0.0,0.0,0.0,0.0,0.0,0.0,0.0,0.0,0.0,4.9617,4.9998,5.4439,5.7189,5.796,5.7971,5.7189,5.5622,5.3959,5.1318,0.0,0.0,0.0,0.0,0.0,0.0,0.0,0.0,0.0,0.0,0.0,0.0,0.0,0.0,0.0,0.0,0.0,0.0,0.0,0.0,0.0,0.0,0.0,0.0,0.0,0.0,0.0,0.0,0.0,0.0,0.0,0.0,0.0,0.0,0.0,0.0,0.0,0.0,0.0,0.0,0.0,5.4289,5.4399,5.5647,5.6297,0.0,5.6124,5.6308,5.5548,5.665,5.6051,5.1536,0.0,0.0,0.0,0.0,0.0,0.0,0.0,0.0,0.0,0.0,0.0,0.0,0.0,0.0,0.0,0.0,0.0,0.0,0.0,0.0,0.0,0.0,0.0,0.0,0.0,0.0,0.0,0.0,0.0,0.0,0.0,0.0,0.0,0.0,0.0,0.0,0.0,0.0,0.0,0.0,0.0,0.0,0.0,0.0,0.0,0.0,0.0,0.0,0.0,0.0,0.0,0.0,0.0,4.9832,4.9937,5.4925,5.7703,5.796,5.7997,5.7483,5.6381,5.4766,5.2333,0.0,0.0,0.0,0.0,0.0,0.0,0.0,0.0,0.0,0.0,0.0,0.0,0.0,0.0,0.0,0.0,0.0,0.0,0.0,0.0,0.0,0.0,0.0,0.0,0.0,0.0,0.0,0.0,4.2103,4.247,4.2992,0.0,0.0,0.0,0.0,0.0,0.0,0.0,0.0,0.0,0.0,5.4766,5.5721,5.6407,0.0,0.0,5.7336,5.7446,5.7127,5.7189,5.6308,5.3482,5.2858,0.0,0.0,0.0,0.0,0.0,0.0,0.0,0.0,0.0,0.0,0.0,0.0,0.0,0.0,0.0,0.0,0.0,0.0,0.0,0.0,0.0,0.0,0.0,0.0,0.0,0.0,0.0,0.0,0.0,0.0,0.0,0.0,0.0,0.0,0.0,0.0,0.0,0.0,0.0,0.0,0.0,0.0,0.0,0.0,0.0,0.0,0.0,0.0,0.0,0.0,0.0,0.0,5.0301,5.0529,5.5454,5.7997,5.7997,5.7997,5.7629,5.6811,5.5244,5.3004,0.0,0.0,0.0,0.0,0.0,0.0,0.0,0.0,0.0,0.0,0.0,0.0,0.0,0.0,0.0,0.0,0.0,0.0,0.0,0.0,0.0,0.0,0.0,0.0,0.0,0.0,0.0,0.0,4.2653,4.2882,4.3433,0.0,0.0,0.0,0.0,0.0,0.0,0.0,0.0,0.0,0.0,5.5354,5.6932,5.7141,5.7435,5.8253,5.8143,5.807,5.8327,5.7886,5.6895,5.506,0.0,0.0,0.0,0.0,0.0,0.0,0.0,0.0,0.0,0.0,0.0,0.0,0.0,0.0,0.0,0.0,0.0,0.0,0.0,0.0,0.0,0.0,0.0,0.0,0.0,0.0,0.0,4.3506,0.0,0.0,4.3433,0.0,0.0,0.0,0.0,0.0,0.0,0.0,0.0,0.0,0.0,0.0,0.0,0.0,0.0,0.0,0.0,0.0,0.0,0.0,0.0,0.0,0.0,5.1149,5.1966,5.5941,5.7997,5.7997,5.7997,5.7629,5.6811,5.5269,5.3261,5.0802,0.0,0.0,0.0,0.0,0.0,0.0,0.0,0.0,0.0,0.0,0.0,0.0,0.0,0.0,0.0,0.0,0.0,0.0,0.0,0.0,0.0,0.0,0.0,0.0,0.0,0.0,4.3433,4.3469,4.3506,0.0,0.0,0.0,0.0,0.0,0.0,0.0,0.0,0.0,5.3995,5.5034,5.6172,5.774,5.796,5.829,5.9038,5.8535,5.829,5.9086,5.9159,5.8352,0.0,0.0,0.0,0.0,0.0,0.0,0.0,0.0,0.0,0.0,0.0,0.0,0.0,0.0,0.0,0.0,0.0,0.0,0.0,0.0,0.0,0.0,0.0,0.0,0.0,0.0,0.0,4.6397,4.5911,0.0,0.0,0.0,0.0,0.0,0.0,0.0,0.0,0.0,0.0,0.0,5.0435,5.1499,0.0,0.0,0.0,0.0,0.0,0.0,0.0,0.0,0.0,0.0,0.0,0.0,5.1206,5.2134,5.5941,5.7997,5.7997,5.7997,5.785,5.7593,5.6565,5.4069,5.0078,0.0,0.0,0.0,0.0,0.0,0.0,0.0,0.0,0.0,0.0,0.0,0.0,0.0,0.0,0.0,0.0,0.0,0.0,0.0,0.0,0.0,0.0,0.0,0.0,0.0,4.3506,0.0,0.0,0.0,0.0,0.0,0.0,0.0,0.0,0.0,0.0,0.0,5.3078,5.4961,5.6345,5.7593,5.8646,5.9233,5.9685,0.0,0.0,0.0,0.0,0.0,0.0,0.0,0.0,0.0,0.0,0.0,0.0,0.0,0.0,5.6161,5.1646,5.0582,5.0482,5.0765,0.0,0.0,0.0,0.0,0.0,0.0,0.0,0.0,0.0,0.0,0.0,0.0,0.0,0.0,4.86,4.837,4.8086,0.0,0.0,0.0,0.0,0.0,0.0,0.0,0.0,5.227,5.3151,5.2931,5.3948,5.3911,0.0,5.2884,5.1353,0.0,0.0,0.0,0.0,0.0,0.0,0.0,0.0,5.1756,5.2931,5.6235,5.7997,5.7997,5.7997,5.7997,5.796,5.6969,5.4473,5.0482,4.8086,4.6058,0.0,0.0,0.0,0.0,0.0,0.0,0.0,0.0,0.0,0.0,0.0,0.0,0.0,0.0,0.0,0.0,0.0,0.0,0.0,0.0,0.0,0.0,0.0,4.3726,0.0,0.0,0.0,0.0,0.0,0.0,0.0,0.0,0.0,5.3712,5.4363,5.5574,5.7446,5.8364,5.9134,5.993,0.0,0.0,0.0,0.0,0.0,0.0,0.0,6.0811,6.0481,6.0272,6.0027,5.9722,6.0591,6.1141,6.0554,0.0,0.0,5.506,5.3911,5.3801,5.4106,5.4326,5.4583,5.4887,5.4913,5.4913,0.0,0.0,0.0,0.0,0.0,0.0,0.0,0.0,5.0188,5.0261,0.0,5.0115,0.0,0.0,0.0,0.0,4.8627,5.1599,0.0,0.0,5.6381,5.7556,5.6847,5.6884,5.6921,5.6932,5.6884,5.5636,5.3287,5.0996,0.0,0.0,0.0,0.0,0.0,0.0,5.2831,5.4436,5.6785,5.7997,5.7997,5.7997,5.7997,5.796,5.6492,5.4557,5.2244,5.1242,4.9334,4.6214,4.5259,0.0,0.0,0.0,0.0,0.0,0.0,0.0,0.0,0.0,0.0,0.0,0.0,0.0,0.0,0.0,0.0,0.0,0.0,0.0,0.0,4.3543,0.0,0.0,0.0,0.0,0.0,0.0,0.0,0.0,0.0,0.0,5.7104,5.7629,5.8963,6.1227,0.0,0.0,0.0,0.0,6.1998,6.2756,6.2866,6.316,6.3992,6.4066,6.3772,6.3013,0.0,0.0,6.3013,6.4187,6.4664,6.316,6.3503,6.3368,6.0921,5.96,5.9306,6.0003,5.949,5.9453,6.0114,5.9783,5.9942,5.5831,0.0,0.0,0.0,0.0,5.2417,5.3298,5.5012,5.4226,5.3676,5.3335,5.3115,0.0,0.0,0.0,0.0,0.0,0.0,5.3272,5.495,5.6455,5.7629,5.8535,5.9086,5.938,5.9355,5.9355,5.8437,5.6638,5.5952,5.3004,4.8076,0.0,0.0,0.0,0.0,5.4226,5.5291,5.7079,5.7997,5.7997,5.7997,5.7997,5.796,5.7005,5.5868,5.4594,5.2685,5.0949,4.9444,4.7489,0.0,0.0,0.0,0.0,0.0,0.0,0.0,0.0,0.0,0.0,0.0,0.0,0.0,0.0,0.0,0.0,0.0,0.0,0.0,4.4305,4.4856,4.5856,0.0,0.0,0.0,0.0,0.0,0.0,0.0,0.0,0.0,6.0958,6.0786,6.0823,0.0,0.0,6.2879,6.2499,6.3466,6.4334,6.4554,6.4591,0.0,6.4934,6.4457,6.42,6.4517,6.4774,6.4848,6.4628,6.4958,6.5141,6.4628,6.4787,6.4701,6.4004,6.2254,6.1117,6.1153,6.0603,6.0162,6.0334,6.0407,6.0407,6.0456,5.8033,5.5978,5.5563,5.6271,5.5783,5.659,5.8168,5.7373,5.6932,5.6748,5.6124,5.4667,5.2674,5.204,0.0,0.0,0.0,5.5354,5.7079,5.7838,5.8756,5.9673,6.0162,6.0407,6.0407,6.0407,5.9905,5.8951,5.8951,5.6675,5.227,0.0,0.0,5.1583,5.3749,5.5291,5.6088,5.7347,5.7997,5.7997,5.7997,5.7997,5.796,5.7519,5.6895,5.6088,5.4693,5.3225,5.1793,5.0021,4.8223,0.0,0.0,0.0,0.0,0.0,0.0,0.0,0.0,0.0,0.0,0.0,4.5993,4.4993,0.0,0.0,0.0,4.5406,4.5993,4.7462,4.8012,0.0,0.0,0.0,0.0,0.0,0.0,0.0,5.9281,6.1153,6.2683,6.3673,6.3649,6.3539,6.3552,6.4163,6.4494,6.4297,0.0,6.5778,6.5778,6.6316,6.6733,6.6719,6.6586,6.6562,6.6683,6.6439,6.6256,6.6256,6.6256,6.6256,6.6256,6.6256,6.6256,6.6256,6.4751,6.3429,6.3099,6.2438,6.1887,6.1851,6.163,6.1361,6.4249,6.3882,6.0126,5.8914,5.938,5.9294,5.971,6.0334,5.96,5.971,6.0272,5.8841,5.7384,5.5915,5.4436,0.0,5.6025,5.7519,5.8584,5.9331,6.0114,6.0481,6.0493,6.0554,6.0603,6.0591,6.0603,6.0554,6.0493,6.0493,5.9722,5.8143,5.5978,5.4803,5.473,5.5537,5.6345,5.7104,5.785,5.8143,5.8107,5.8033,5.7997,5.7997,5.7923,5.7556,5.6847,5.6664,5.56,5.3434,5.2454,5.0582,4.7599,0.0,0.0,0.0,0.0,0.0,0.0,0.0,0.0,0.0,0.0,0.0,0.0,0.0,0.0,0.0,4.8663,0.0,5.1877,5.2207,0.0,0.0,0.0,5.5794,5.8107,5.9758,6.1006,6.1716,0.0,0.0,6.5508,6.6256,6.6769,6.6769,6.6035,6.5765,6.6476,6.6623,6.6696,6.6843,6.8054,6.8958,6.8862,6.9376,6.9522,6.8935,6.8385,6.7921,6.7884,6.7884,6.7884,6.7884,6.7884,6.7847,6.7811,6.7063,6.6439,6.5582,6.4714,6.4127,6.4066,6.3503,6.3013,6.5595,6.4934,6.3967,6.2585,6.1006,6.037,6.0224,6.037,6.0187,6.0224,6.0346,6.0015,5.9612,5.9245,5.8866,5.8902,5.9281,5.9648,5.9942,6.015,6.0933,6.13,6.1337,6.1949,6.2242,6.2242,6.2205,6.1924,6.1337,6.13,6.0823,5.9869,5.9245,5.8364,5.7226,5.8547,5.9355,5.9538,5.9722,5.9526,5.8902,5.8327,5.7997,5.7997,5.7409,5.6994,5.6785,5.56,5.473,5.4106,5.2747,5.1353,4.9948,4.7388,0.0,0.0,0.0,0.0,0.0,0.0,0.0,0.0,0.0,5.0415,4.7333,0.0,5.0922,0.0,5.1683,5.226,5.2884,5.3995,0.0,0.0,5.8731,5.9685,6.1484,6.2585,6.3295,6.3478,6.5645,6.7113,6.715,6.8348,6.9229,6.9192,6.8031,6.721,6.7407,6.7944,6.8568,6.9082,6.9522,6.9816,6.9853,6.9963,7.0073,6.9853,6.9633,6.9536,6.9522,6.9522,6.9522,6.9522,6.9522,6.9302,6.8715,6.8458,6.8017,6.7247,6.5999,6.5007,6.5007,6.4811,6.4701,6.71,6.6329,6.5962,6.5007,6.3686,6.2548,6.2034,6.1998,6.1618,6.1471,6.1435,6.108,6.075,6.0407,6.0407,6.0407,6.0419,6.075,6.0933,6.097,6.1741,6.2144,6.2144,6.2572,6.2793,6.2793,6.2793,6.2572,6.2144,6.2144,6.1887,6.1471,6.1471,6.1031,6.0187,6.0309,6.0407,6.0407,6.0407,6.0015,5.9233,5.8756,5.8364,5.7997,5.7593,5.7324,5.7336,5.6124,5.5133,5.4399,5.3188,5.2013,5.0839,4.9077,4.8086,0.0,0.0,0.0,0.0,0.0,0.0,0.0,0.0,0.0,0.0,0.0,5.3052,5.3078,5.4473,5.5746,5.6859,5.807,5.9648,6.1692,6.2316,6.3099,6.4297,6.4861,6.5461,6.6145,6.7393,6.8361,6.8728,6.9536,7.011,7.011,6.9339,6.8765,6.8788,6.9155,6.9596,7.0,7.0403,7.077,7.1101,7.0844,7.0624,7.0587,7.033,7.011,7.011,7.011,7.011,7.011,7.011,6.9963,6.9522,6.9449,6.9192,6.8385,6.754,6.6683,6.5999,6.5545,6.5325,6.8495,6.776,6.699,6.6659,6.6549,6.5057,6.436,6.42,6.3453,6.305,6.2939,6.2108,6.1374,6.0701,6.0713,6.0713,6.0774,6.1557,6.1936,6.1961,6.2756,6.3123,6.3123,6.3013,6.3013,6.3123,6.3013,6.2976,6.2976,6.2939,6.2903,6.2793,6.2793,6.2793,6.2756,6.1398,6.0713,6.0713,6.0591,6.0236,5.9526,5.9306,5.8866,5.818,5.796,5.7776,5.7666,5.7005,5.5967,5.4509,5.3838,5.2884,5.1499,5.1232,5.1086,0.0,5.0912,0.0,0.0,0.0,0.0,0.0,0.0,0.0,0.0,5.5023,5.528,5.517,5.7373,5.966,6.1704,6.2658,6.3747,6.5251,6.5435,6.5815,6.6659,6.6806,6.7393,6.8898,6.9142,6.9486,7.011,7.033,7.0403,7.0513,7.0477,7.0403,7.0367,7.033,7.033,7.0367,7.0991,7.1674,7.2165,7.1857,7.1454,7.138,7.0954,7.044,7.0527,7.0477,7.044,7.044,7.0513,7.044,7.0293,7.0257,7.0,6.9229,6.8958,6.8421,6.7026,6.6182,6.5632,6.8811,6.8605,6.7811,6.748,6.7407,6.6452,6.5668,6.5081,6.4884,6.4457,6.3796,6.2939,6.2462,6.2352,6.2352,6.2352,6.2389,6.3246,6.3625,6.3649,6.4457,6.4811,6.4774,6.4163,6.42,6.4774,6.4163,6.3846,6.3882,6.3882,6.3503,6.2829,6.2793,6.2793,6.2793,0.0,0.0,0.0,6.1704,6.13,6.1117,5.9857,5.9111,5.8939,5.7691,0.0,5.6099,5.5915,5.5401,5.4473,5.4876,0.0,0.0,0.0,0.0,0.0,0.0,0.0,0.0,0.0,0.0,0.0,5.5967,5.5757,5.5511,5.8327,5.9979,5.9428,6.152,6.3111,6.3589,6.4347,6.5215,6.6145,6.6256,6.6843,6.8238,6.8421,6.8825,6.9743,7.0426,7.0903,7.105,7.1615,7.2018,7.1945,7.2055,7.2055,7.1982,7.1454,7.1307,7.1908,7.2129,7.2312,7.2496,7.2349,7.2188,7.2239,7.2202,7.2018,7.1945,7.1982,7.2018,7.1982,7.2018,7.1798,7.1197,7.105,7.083,7.0036,6.9853,6.9376,6.7811,6.737,6.7223,6.9619,6.8848,6.8458,6.8068,0.0,6.7247,6.6843,6.6439,6.5618,6.4861,6.4066,6.3649,6.3196,6.2793,6.2793,6.3013,6.3466,6.3882,6.4323,6.4714,6.5105,6.5325,6.5288,6.4897,6.4897,6.5251,6.4897,6.4677,6.4677,6.4714,6.4273,6.3466,6.3429,6.3233,6.2829,6.2793,6.2793,6.2793,6.2401,6.1998,6.1606,6.0823,6.0003,5.9233,5.8425,0.0,0.0,0.0,0.0,0.0,0.0,0.0,0.0,0.0,0.0,5.5489,5.4803,5.4693,5.55,5.5574,5.6407,5.8437,5.9306,5.9416,5.8632,6.0786,6.2218,6.2254,6.3759,6.4861,6.5264,6.5632,6.6219,6.699,6.743,6.8054,6.8775,6.9265,6.9816,7.055,7.105,7.1417,7.1872,7.2188,7.2496,7.2532,7.2532,7.2532,7.2496,7.2151,7.2078,7.2422,7.2532,7.2496,7.2532,7.2532,7.2532,7.2496,7.2532,7.2532,7.2532,7.2532,7.2532,7.2532,7.2532,7.2349,7.2004,7.1908,7.1637,7.0917,7.0697,7.033,6.9119,6.8582,6.8274,7.0536,6.9325,6.9142,6.8641,6.7921,6.7921,6.7847,6.759,6.6145,0.0,0.0,6.4396,6.3906,6.327,6.327,6.3637,6.431,6.447,6.4861,6.5508,6.5655,6.5729,6.5742,6.5582,6.5595,6.5705,6.5582,6.5508,6.5508,6.5508,6.5118,6.4396,6.431,6.387,6.3086,6.2866,6.2793,6.2793,6.2793,6.2462,6.1814,6.1667,6.097,5.9636,5.949,5.9049,5.8253,5.774,5.7079,5.6282,5.5611,5.5611,5.6381,5.6319,5.687,5.829,5.84,5.8682,5.938,5.9416,5.982,6.075,6.2181,6.2695,6.1887,6.2695,6.3613,6.4457,6.5154,6.5852,6.6623,6.688,6.7173,6.7834,6.8641,6.9155,6.9339,6.9889,7.0624,7.1344,7.1527,7.1747,7.2386,7.2496,7.2532,7.2532,7.2532,7.2569,7.2642,7.2569,7.2496,7.2753,7.2826,7.2789,7.2936,7.3046,7.2899,7.2789,7.2753,7.2679,7.2532,7.2532,7.2532,7.2532,7.2532,7.2496,7.2496,7.2459,7.2275,7.1637,7.149,7.1344,7.066,6.9889,6.9325,7.116,7.0903,7.022,6.9449,6.8738,6.8752,6.8311,6.7627,6.6733,6.6256,6.6109,6.5448,6.5068,6.4958,6.4921,6.4995,6.5178,6.5852,6.6219,6.6366,6.704,6.737,6.7333,6.6659,6.6696,6.7297,6.6659,6.6329,6.6329,6.6329,6.5925,6.5215,6.5118,6.4714,6.3906,6.316,6.2793,6.2793,6.2793,6.2756,6.2646,6.1961,6.1484,6.1276,6.0603,5.9857,5.9086,5.9563,5.9526,5.8756,5.8572,5.8902,5.9648,5.9013,5.9086,5.9979,6.0052,6.0126,6.0236,6.0224,6.0884,6.2352,6.3356,6.3539,6.2756,6.404,6.5288,6.6072,6.6256,6.6673,6.7444,6.8128,6.8531,6.8738,6.9449,7.0183,7.0793,7.105,7.1417,7.2151,7.2334,7.2349,7.2459,7.2532,7.2532,7.2532,7.2606,7.2753,7.3266,7.2936,7.2863,7.334,7.3523,7.3817,7.4206,7.4536,7.4184,7.3648,7.3538,7.3303,7.2679,7.2606,7.2569,7.2532,7.2532,7.2532,7.2532,7.2532,7.2422,7.2239,7.2239,7.2165,7.1982,7.138,7.072,7.1711,7.127,7.0903,7.0293,6.9522,6.9068,6.8458,6.77,6.7333,6.6893,6.6476,6.6109,6.5692,6.5325,6.5325,6.5545,6.5962,6.6329,6.6733,6.7187,6.7517,6.77,6.7664,6.732,6.7333,6.7664,6.7333,6.7136,6.715,6.7136,6.6733,6.5962,6.5508,6.5105,6.4751,6.4383,6.415,6.4114,6.327,6.2793,6.2793,6.2426,6.2071,6.1594,6.1227,6.0676,5.9893,6.0187,6.0236,5.9857,5.9857,6.0003,6.0382,6.004,6.0003,6.037,6.0407,6.0603,6.1006,6.1887,6.2915,6.4077,6.4934,6.5228,6.4824,6.5521,6.6292,6.7026,6.715,6.748,6.8238,6.8678,6.9082,6.9522,7.0257,7.0903,7.127,7.1711,7.2114,7.2459,7.2532,7.2532,7.2532,7.2532,7.2532,7.2532,7.2826,7.345,7.4221,7.4059,7.3927,7.4258,7.4316,7.45,7.4867,7.4903,7.472,7.439,7.4368,7.4037,7.334,7.3156,7.2973,7.2606,7.2532,7.2532,7.2532,7.2532,7.2532,7.2532,7.2532,7.2532,7.2459,7.2165,7.1541,7.2129,7.1564,7.1564,7.1087,7.0293,6.9339,6.8531,6.7958,6.7774,6.737,6.6806,6.6769,6.6439,6.5888,6.5852,6.6182,6.6696,6.6769,6.7113,6.7664,6.77,6.77,6.77,6.77,6.77,6.77,6.77,6.77,6.77,6.77,6.7407,6.6733,6.5949,6.5558,6.5582,6.5362,6.5325,6.5215,6.404,6.327,6.3086,6.2903,6.2499,6.1924,6.1887,6.1594,6.1006,6.0921,6.0958,6.0921,6.0774,6.075,6.0933,6.075,6.075,6.0921,6.0933,6.13,6.2144,6.3503,6.4714,6.5521,6.6145,6.6549,6.6733,6.6769,6.7026,6.759,6.7847,6.8238,6.8825,6.9288,6.9706,7.033,7.1101,7.1564,7.1637,7.2114,7.2532,7.2532,7.2532,7.2532,7.2532,7.2532,7.2606,7.2863,7.3597,7.4478,7.5065,7.527,7.5417,7.538,7.5307,7.5307,7.538,7.5491,7.5417,7.5234,7.516,7.4808,7.4221,7.3964,7.367,7.3046,7.2826,7.2863,7.2789,7.2606,7.2642,7.2753,7.2716,7.2532,7.2496,7.2459,7.2165,7.2459,7.2422,7.2386,7.1931,7.1013,6.9582,6.8898,6.8678,6.8031,6.77,6.7554,6.759,6.7517,6.748,6.7444,6.748,6.7554,6.759,6.7627,6.7664,6.77,6.77,6.77,6.77,6.77,6.77,6.77,6.77,6.77,6.77,6.7664,6.7517,6.6769,6.6402,6.6329,6.5705,6.5325,6.5325,6.5141,6.4714,6.398,6.3196,6.2756,6.2719,6.2683,6.2646,6.2499,6.2572,6.2572,6.2536,6.1887,6.1814,6.2389,6.1887,6.1814,6.2499,6.2572,6.2939,6.3833,6.4714,6.5545,6.6292,6.6476,6.6843,6.748,6.759,6.759,6.7811,6.8385,6.8775,6.8972,7.0169,7.0977,7.1197,7.1857,7.2386,7.2349,7.2459,7.2532,7.2532,7.2532,7.2532,7.2606,7.2679,7.2899,7.3634,7.4771,7.5689,7.5983,7.6481,7.6812,7.6812,7.6481,7.6335,7.6738,7.7069,7.6628,7.613,7.5983,7.5616,7.5102,7.4757,7.4536,7.3817,7.3597,7.3597,7.345,7.3083,7.2863,7.334,7.312,7.2532,7.2532,7.2532,7.2312,7.2936,7.2532,7.2532,7.2041,7.1233,7.0573,6.9765,6.8898,6.8568,6.8178,6.7737,6.77,6.77,6.77,6.77,6.77,6.77,6.77,6.77,6.77,6.77,6.77,6.77,6.77,6.77,6.77,6.77,6.77,6.77,6.77,6.77,6.7664,6.7333,6.7223,6.7187,6.688,6.6696,6.6696,6.6256,6.5852,6.5411,6.4237,6.3306,6.2866,6.2793,6.2793,6.2793,6.2793,6.3013,6.3466,6.2768,6.2695,6.3503,6.2768,6.2683,6.3503,6.4004,6.4628,6.5448,6.5852,6.6366,6.715,6.721,6.737,6.77,6.8128,6.8385,6.8458,6.8715,6.9215,7.0169,7.094,7.149,7.1931,7.2312,7.2532,7.2532,7.2532,7.2532,7.2532,7.2532,7.2716,7.3156,7.3634,7.4221,7.4955,7.5799,7.624,7.6702,7.7105,7.7252,7.7252,7.6995,7.6959,7.7252,7.7326,7.7105,7.6922,7.6812,7.6518,7.5836,7.5601,7.5359,7.4551,7.4441,7.4404,7.4404,7.4258,7.4074,7.4184,7.3744,7.3083,7.2606,7.2532,7.2532,7.334,7.2826,7.2606,7.2151,7.16,7.138,7.0646,6.9582,6.9339,6.8898,6.8398,6.8361,6.8214,6.8031,6.7811,6.77,6.77,6.77,6.77,6.77,6.77,6.77,6.77,6.77,6.77,6.77,6.77,6.77,6.77,6.77,6.77,6.77,6.77,6.77,6.77,6.77,6.77,6.7627,6.7113,6.6696,6.6366,6.5338,6.4347,6.3563,6.349,6.349,6.349,6.349,6.3747,6.4396,6.3833,6.3747,6.4347,6.3833,6.3747,6.442,6.5178,6.5852,6.6476,6.6696,6.7076,6.7627,6.77,6.77,6.7847,6.8458,6.9009,6.9265,6.9398,7.0169,7.1013,7.149,7.1894,7.2422,7.2532,7.2532,7.2532,7.2532,7.2532,7.2532,7.2753,7.3156,7.3927,7.4698,7.5395,7.5873,7.6276,7.657,7.7142,7.7289,7.7326,7.7326,7.7289,7.7289,7.7326,7.7326,7.7326,7.7326,7.7252,7.7032,7.6533,7.646,7.6166,7.5469,7.5307,7.5197,7.5139,7.5139,7.4757,7.4478,7.4001,7.334,7.2606,7.2532,7.2532,7.3685,7.3538,7.2826,7.2445,7.2386,7.1674,7.127,7.0977,7.0367,7.0,6.9889,6.9889,6.9522,6.8825,6.8128,6.77,6.77,6.77,6.77,6.77,6.77,6.77,6.77,6.77,6.77,6.77,6.77,6.77,6.77,6.77,6.77,6.77,6.77,6.77,6.77,6.77,6.77,6.7664,6.759,6.7297,6.6636,6.6439,6.5962,6.5301,6.5141,6.5068,6.5105,6.5141,6.5178,6.5215,6.5141,6.5141,6.5251,6.5178,6.5178,6.5325,6.5999,6.6476,6.6623,6.7187,6.7627,6.77,6.77,6.77,6.7737,6.8531,6.9265,6.9963,7.066,7.1233,7.1417,7.1967,7.2349,7.2459,7.2532,7.2532,7.2532,7.2532,7.2532,7.2642,7.3156,7.3891,7.4683,7.5542,7.6019,7.6313,7.6775,7.7215,7.7252,7.7326,7.7326,7.7326,7.7326,7.7326,7.7326,7.7326,7.7326,7.7326,7.7289,7.7273,7.7273,7.7142,7.6702,7.635,7.6166,7.6019,7.5909,7.5506,7.4918,7.4404,7.3817,7.3156,7.3193,7.2716,7.2789,7.4625,7.3634,7.2826,7.2532,7.2459,7.2202,7.1784,7.127,7.1013,7.0587,7.0146,7.011,6.9926,6.9669,6.9376,6.8655,6.7737,6.77,6.77,6.77,6.77,6.77,6.77,6.77,6.77,6.77,6.77,6.77,6.77,6.77,6.77,6.77,6.77,6.77,6.77,6.77,6.77,6.77,6.77,6.7554,6.7297,6.7297,6.7113,6.6806,6.5802,6.5325,6.5325,6.5325,6.5508,6.6035,6.5595,6.5545,6.5999,6.6072,6.6072,6.6145,6.6806,6.726,6.7297,6.7517,6.77,6.77,6.77,6.77,6.7921,6.8875,6.9779,7.027,7.1358,7.2018,7.2092,7.2349,7.2532,7.2532,7.2532,7.2532,7.2532,7.2532,7.2532,7.2716,7.3597,7.4588,7.5124,7.6041,7.6812,7.6885,7.7105,7.7289,7.7326,7.7326,7.7326,7.7326,7.7326,7.7326,7.7326,7.7326,7.7326,7.7326,7.7289,7.7289,7.7289,7.7289,7.6922,7.6848,7.6775,7.6702,7.6555,7.6371,7.5652,7.5175,7.4515,7.3964,7.4147,7.3729,7.3802,7.5175,7.3707,7.312,7.2753,7.2532,7.2532,7.2188,7.1711,7.1674,7.138,7.0917,7.0881,7.0734,7.0513,7.0477,6.9779,6.8545,6.8508,6.8471,6.8471,6.8471,6.8471,6.8471,6.8471,6.8471,6.8471,6.8471,6.8471,6.8435,6.8214,6.8251,6.8471,6.8238,6.8251,6.8435,6.8471,6.8471,6.8471,6.8214,6.8091,6.8054,6.7847,6.77,6.7554,6.6623,6.6072,6.6072,6.6072,6.6292,6.6733,6.6366,6.6329,6.6806,6.688,6.688,6.6953,6.737,6.77,6.77,6.77,6.77,6.77,6.77,6.77,6.7811,6.9155,6.9963,7.044,7.1541,7.2532,7.2532,7.2496,7.2532,7.2532,7.2532,7.2532,7.2532,7.2532,7.2789,7.3399,7.4478,7.5285,7.5747,7.6665,7.7179,7.7326,7.7326,7.7326,7.7326,7.7326,7.7326,7.7326,7.7326,7.7326,7.7326,7.7326,7.7326,7.7326,7.7326,7.7326,7.7326,7.7326,7.7326,7.7326,7.7326,7.7326,7.7215,7.7069,7.6702,7.624,7.5432,7.4647,7.472,7.4793,7.4757,7.5212,7.3891,7.3685,7.323,7.2642,7.2532,7.2496,7.2422,7.2422,7.2312,7.2165,7.2386,7.1872,7.1417,7.1307,7.0881,7.022,7.011,7.0,6.9889,6.9889,6.9889,6.9889,6.9853,6.9816,6.9853,7.0013,7.0,6.9853,6.9265,6.9265,6.9743,6.9229,6.9192,7.0013,6.9853,6.9963,6.9779,6.9229,6.8898,6.8825,6.8238,6.7921,6.7884,6.77,6.7627,6.7627,6.759,6.7517,6.759,6.759,6.7664,6.759,6.759,6.7627,6.759,6.77,6.77,6.77,6.77,6.77,6.77,6.77,6.7737,6.8068,6.9192,7.0146,7.044,7.1541,7.2532,7.2532,7.2532,7.2532,7.2532,7.2532,7.2532,7.2532,7.2532,7.312,7.4463,7.5469,7.6335,7.6959,7.7215,7.7289,7.7326,7.7326,7.7326,7.7326,7.7326,7.7326,7.7326,7.7326,7.7326,7.7326,7.7326,7.7326,7.7326,7.7326,7.7326,7.7326,7.7326,7.7326,7.7326,7.7326,7.7289,7.7252,7.7069,7.6775,7.6313,7.5674,7.5454,7.5564,7.5601,7.538,7.5799,7.5212,7.4147,7.3575,7.3266,7.2753,7.2532,7.2532,7.2532,7.2532,7.2532,7.2532,7.2349,7.2202,7.2129,7.1982,7.1762,7.1725,7.1174,7.0293,7.0146,7.0146,7.0146,7.011,7.011,7.011,7.011,7.011,7.011,6.9853,6.9889,7.0,6.9853,6.9853,7.016,7.011,7.011,7.0073,6.9853,6.9706,6.9706,6.9486,6.9339,6.9265,6.8825,6.8531,6.8495,6.7981,6.77,6.77,6.77,6.77,6.77,6.77,6.77,6.77,6.77,6.77,6.77,6.77,6.77,6.77,6.77,6.7994,6.8531,6.9486,7.033,7.0844,7.1908,7.2532,7.2532,7.2532,7.2532,7.2532,7.2532,7.2569,7.2716,7.3046,7.378,7.472,7.5601,7.6151,7.6518,7.6848,7.7289,7.7326,7.7326,7.7326,7.7326,7.7326,7.7326,7.7326,7.7326,7.7326,7.7326,7.7326,7.7326,7.7326,7.7326,7.7326,7.7326,7.7326,7.7326,7.7326,7.7326,7.7289,7.7252,7.7105,7.6848,7.6812,7.6628,7.6555,7.6555,7.6408,7.6151,7.635,7.5983,7.5028,7.4221,7.3685,7.312,7.2753,7.2532,7.2532,7.2532,7.2532,7.2532,7.2532,7.2532,7.2532,7.2532,7.2532,7.2496,7.1982,7.1101,7.0991,7.0991,7.0991,7.0991,7.0991,7.0991,7.0991,7.0991,7.0991,7.0697,7.0697,7.0954,7.0697,7.0734,7.0954,7.0991,7.0991,7.0954,7.0697,7.055,7.0477,7.0257,7.011,7.0036,6.9596,6.9229,6.8921,6.8421,6.8031,6.7774,6.77,6.77,6.77,6.77,6.77,6.77,6.77,6.77,6.77,6.77,6.77,6.7737,6.7958,6.8311,6.9009,6.9816,7.0793,7.127,7.2018,7.2532,7.2532,7.2532,7.2606,7.2936,7.2973,7.3083,7.3377,7.4111,7.4735,7.5469,7.6078,7.6445,7.6702,7.6885,7.7289,7.7326,7.7326,7.7326,7.7326,7.7326,7.7326,7.7326,7.7326,7.7326,7.7326,7.7326,7.7326,7.7326,7.7326,7.7326,7.7326,7.7326,7.7326,7.7326,7.7326,7.7326,7.7252,7.7289,7.7142,7.7289,7.7326,7.7142,7.6959,7.7069,7.6885,7.6848,7.6203,7.6093,7.5212,7.4015,7.3744,7.323,7.2679,7.2532,7.2532,7.2532,7.2532,7.2532,7.2532,7.2532,7.2532,7.2532,7.2496,7.2459,7.2312,7.2312,7.2275,7.2239,7.2202,7.2202,7.2275,7.2312,7.2386,7.2202,7.1674,7.1747,7.2165,7.1674,7.1711,7.2165,7.2459,7.2312,7.2165,7.1674,7.138,7.1344,7.0734,7.0367,7.0367,7.0257,6.9889,6.9376,6.8972,6.8458,6.7811,6.77,6.77,6.77,6.77,6.77,6.77,6.77,6.7774,6.7774,6.7921,6.7958,6.8104,6.8641,6.8995,6.9398,7.0426,7.1233,7.149,7.2129,7.2532,7.2532,7.2642,7.301,7.3707,7.3817,7.4074,7.4867,7.5579,7.5873,7.6203,7.6812,7.7289,7.7179,7.7289,7.7289,7.7326,7.7326,7.7326,7.7326,7.7326,7.7326,7.7326,7.7326,7.7326,7.7326,7.7326,7.7326,7.7326,7.7326,7.7326,7.7326,7.7326,7.7326,7.7326,7.7326,7.7326,7.7326,7.7326,7.7326,7.7326,7.7326,7.7326,7.7326,7.7326,7.7289,7.7179,7.6922,7.635,7.5836,7.5285,7.4258,7.3597,7.3318,7.2716,7.2532,7.2532,7.2532,7.2532,7.2532,7.2532,7.2532,7.2532,7.2532,7.2532,7.2532,7.2532,7.2532,7.2532,7.2532,7.2532,7.2532,7.2532,7.2532,7.2496,7.2239,7.2275,7.2459,7.2261,7.2239,7.2496,7.2532,7.2532,7.2496,7.2349,7.2165,7.2129,7.1945,7.1872,7.1798,7.1284,7.0903,7.0536,6.9509,6.8531,6.7774,6.77,6.77,6.77,6.77,6.77,6.77,6.7737,6.7994,6.8421,6.8605,6.8825,6.9376,6.9596,7.0036,7.0646,7.105,7.16,7.2004,7.2422,7.2532,7.2606,7.3046,7.3927,7.5102,7.4955,7.4955,7.5616,7.5946,7.6313,7.6885,7.7179,7.7289,7.7326,7.7326,7.7326,7.7326,7.7326,7.7326,7.7326,7.7326,7.7326,7.7326,7.7326,7.7326,7.7326,7.7326,7.7326,7.7326,7.7326,7.7326,7.7326,7.7326,7.7326,7.7326,7.7326,7.7326,7.7326,7.7326,7.7326,7.7326,7.7326,7.7326,7.7326,7.7326,7.7326,7.7326,7.7252,7.6812,7.6423,7.5946,7.4735,7.4001,7.3575,7.2863,7.2532,7.2532,7.2532,7.2532,7.2532,7.2532,7.2532,7.2532,7.2532,7.2532,7.2532,7.2532,7.2532,7.2532,7.2532,7.2532,7.2532,7.2532,7.2532,7.2496,7.2532,7.2532,7.2496,7.2532,7.2532,7.2496,7.2532,7.2532,7.2496,7.2532,7.2532,7.2532,7.2532,7.2496,7.2422,7.2004,7.1674,7.1197,7.0059,6.8898,6.7994,6.77,6.77,6.77,6.77,6.77,6.77,6.7994,6.8421,6.8825,6.9192,6.9633,7.0073,7.0367,7.0793,7.1233,7.1564,7.2078,7.2371,7.2496,7.2532,7.2679,7.3487,7.4735,7.5763,7.5968,7.6078,7.657,7.6628,7.6812,7.7179,7.7326,7.7326,7.7326,7.7326,7.7326,7.7326,7.7326,7.7326,7.7326,7.7326,7.7326,7.7326,7.7326,7.7326,7.7326,7.7326,7.7326,7.7326,7.7326,7.7326,7.7326,7.7326,7.7326,7.7326,7.7326,7.7326,7.7326,7.7326,7.7326,7.7326,7.7326,7.7326,7.7326,7.7326,7.7326,7.7326,7.7326,7.7289,7.6885,7.6166,7.527,7.4478,7.378,7.2899,7.2532,7.2532,7.2532,7.2532,7.2532,7.2532,7.2532,7.2532,7.2532,7.2532,7.2532,7.2532,7.2532,7.2532,7.2532,7.2532,7.2532,7.2532,7.2532,7.2532,7.2532,7.2532,7.2532,7.2532,7.2532,7.2532,7.2532,7.2532,7.2532,7.2532,7.2532,7.2532,7.2532,7.2532,7.2496,7.2459,7.1982,7.1344,7.055,6.9559,6.8031,6.7958,6.8104,6.8068,6.7994,6.8031,6.8178,6.8715,6.9082,6.9302,6.9926,7.033,7.0624,7.1123,7.1417,7.1637,7.2041,7.2422,7.2496,7.2496,7.2679,7.3156,7.4206,7.5322,7.624,7.6848,7.7215,7.7326,7.7326,7.7326,7.7326,7.7326,7.7326,7.7326,7.7326,7.7326,7.7326,7.7326,7.7326,7.7326,7.7326,7.7326,7.7326,7.7326,7.7326,7.7326,7.7326,7.7326,7.7326,7.7326,7.7326,7.7326,7.7326,7.7326,7.7326,7.7326,7.7326,7.7326,7.7326,7.7326,7.7326,7.7326,7.7326,7.7326,7.7326,7.7326,7.7326,7.7326,7.7326,7.7215,7.6812,7.5527,7.4793,7.4463,7.3083,7.2532,7.2532,7.2532,7.2532,7.2532,7.2532,7.2532,7.2532,7.2532,7.2532,7.2532,7.2532,7.2532,7.2532,7.2532,7.2532,7.2532,7.2532,7.2532,7.2532,7.2532,7.2532,7.2532,7.2532,7.2532,7.2532,7.2532,7.2532,7.2532,7.2532,7.2532,7.2532,7.2532,7.2532,7.2532,7.2532,7.2114,7.149,7.1123,7.0587,6.9853,6.9573,6.9559,6.9426,6.9463,6.9412,6.9449,6.9633,7.011,7.0646,7.0903,7.1307,7.1798,7.1945,7.2239,7.2275,7.2349,7.2532,7.2532,7.2532,7.3083,7.4221,7.5249,7.6078,7.6775,7.7142,7.7326,7.7326,7.7326,7.7326,7.7326,7.7326,7.7326,7.7326,7.7326,7.7326,7.7326,7.7326,7.7326,7.7326,7.7326,7.7326,7.7326,7.7326,7.7326,7.7326,7.7326,7.7326,7.7326,7.7326,7.7326,7.7326,7.7326,7.7326,7.7326,7.7326,7.7326,7.7326,7.7326,7.7326,7.7326,7.7326,7.7326,7.7326,7.7326,7.7326,7.7326,7.7326,7.7326,7.7069,7.6555,7.5417,7.4683,7.4147,7.3083,7.2532,7.2532,7.2532,7.2532,7.2532,7.2532,7.2532,7.2532,7.2532,7.2532,7.2532,7.2532,7.2532,7.2642,7.2826,7.2936,7.2642,7.2899,7.2863,7.2606,7.2532,7.2532,7.2532,7.2532,7.2532,7.2532,7.2532,7.2532,7.2532,7.2532,7.2532,7.2532,7.2532,7.2532,7.2532,7.2496,7.2261,7.1931,7.1872,7.1651,7.1358,7.1211,7.0807,7.0234,7.011,7.011,7.011,7.0513,7.077,7.1233,7.1674,7.2041,7.2459,7.2532,7.2496,7.2532,7.2532,7.2532,7.2606,7.2973,7.3744,7.5249,7.5726,7.6481,7.7069,7.7326,7.7326,7.7326,7.7326,7.7326,7.7326,7.7326,7.7326,7.7326,7.7326,7.7326,7.7326,7.7326,7.7326,7.7326,7.7326,7.7326,7.7326,7.7326,7.7326,7.7326,7.7326,7.7326,7.7326,7.7326,7.7326,7.7326,7.7326,7.7326,7.7326,7.7326,7.7326,7.7326,7.7326,7.7326,7.7326,7.7326,7.7326,7.7326,7.7326,7.7326,7.7326,7.7326,7.7326,7.6812,7.6056,7.5249,7.4478,7.367,7.2863,7.2532,7.2532,7.2532,7.2532,7.2532,7.2532,7.2532,7.2532,7.2532,7.2532,7.2532,7.2532,7.2532,7.2716,7.3303,7.3523,7.2863,7.3487,7.345,7.2936,7.2679,7.2716,7.2569,7.2532,7.2532,7.2532,7.2532,7.2532,7.2532,7.2532,7.2532,7.2532,7.2532,7.2532,7.2532,7.2496,7.2496,7.2386,7.2422,7.2422,7.2532,7.2532,7.1762,7.0917,7.0477,7.044,7.055,7.1174,7.1505,7.1674,7.2078,7.2459,7.2532,7.2532,7.2532,7.2532,7.2532,7.2642,7.3046,7.3597,7.4661,7.5909,7.6313,7.6628,7.7105,7.7326,7.7326,7.7326,7.7326,7.7326,7.7326,7.7326,7.7326,7.7326,7.7326,7.7326,7.7326,7.7326,7.7326,7.7326,7.7326,7.7326,7.7326,7.7326,7.7326,7.7326,7.7326,7.7326,7.7326,7.7326,7.7326,7.7326,7.7326,7.7326,7.7326,7.7326,7.7326,7.7326,7.7326,7.7326,7.7326,7.7326,7.7326,7.7326,7.7326,7.7326,7.7326,7.7326,7.7326,7.6848,7.6056,7.5234,7.4441,7.3634,7.2863,7.2532,7.2532,7.2532,7.2532,7.2532,7.2532,7.2532,7.2532,7.2532,7.2532,7.2532,7.2532,7.2532,7.2863,7.3927,7.4184,7.3927,7.4331,7.4368,7.367,7.3501,7.3266,7.2716,7.2569,7.2606,7.2606,7.2532,7.2532,7.2532,7.2532,7.2532,7.2532,7.2532,7.2532,7.2532,7.2532,7.2532,7.2532,7.2532,7.2532,7.2532,7.2532,7.2349,7.2018,7.1945,7.1945,7.1945,7.2018,7.2165,7.2239,7.2386,7.2532,7.2532,7.2532,7.2532,7.2532,7.2606,7.2973,7.378,7.4735,7.5799,7.6056,7.6628,7.7032,7.7289,7.7326,7.7326,7.7326,7.7326,7.7326,7.7326,7.7326,7.7326,7.7326,7.7326,7.7326,7.7326,7.7326,7.7326,7.7326,7.7326,7.7326,7.7326,7.7326,7.7326,7.7326,7.7326,7.7326,7.7326,7.7326,7.7326,7.7326,7.7326,7.7326,7.7326,7.7326,7.7326,7.7326,7.7326,7.7326,7.7326,7.7326,7.7326,7.7326,7.7326,7.7326,7.7326,7.7326,7.7326,7.6812,7.6019,7.5234,7.4441,7.3648,7.2863,7.2532,7.2532,7.2532,7.2532,7.2532,7.2532,7.2532,7.2532,7.2532,7.2532,7.2532,7.2532,7.2789,7.3156,7.439,7.4882,7.5139,7.5674,7.5417,7.4441,7.4331,7.4074,7.378,7.3377,7.312,7.2973,7.2716,7.2569,7.2532,7.2532,7.2532,7.2532,7.2532,7.2532,7.2532,7.2532,7.2532,7.2532,7.2532,7.2532,7.2532,7.2532,7.2532,7.2532,7.2532,7.2532,7.2532,7.2532,7.2532,7.2532,7.2532,7.2532,7.2532,7.2532,7.2532,7.2642,7.2936,7.3634,7.4771,7.5359,7.6313,7.6702,7.7069,7.7252,7.7326,7.7326,7.7326,7.7326,7.7326,7.7326,7.7326,7.7326,7.7326,7.7326,7.7326,7.7326,7.7326,7.7326,7.7326,7.7326,7.7326,7.7326,7.7326,7.7326,7.7326,7.7326,7.7326,7.7326,7.7326,7.7326,7.7326,7.7326,7.7326,7.7326,7.7326,7.7326,7.7326,7.7326,7.7326,7.7326,7.7326,7.7326,7.7326,7.7326,7.7326,7.7326,7.7326,7.7326,7.7326,7.6848,7.6056,7.5234,7.4426,7.367,7.2863,7.2532,7.2532,7.2532,7.2532,7.2532,7.2532,7.2532,7.2532,7.2532,7.2532,7.2569,7.2753,7.3156,7.378,7.4698,7.5432,7.5909,7.6665,7.6555,7.538,7.516,7.505,7.4536,7.4037,7.3722,7.3501,7.2863,7.2642,7.2532,7.2532,7.2532,7.2532,7.2532,7.2532,7.2532,7.2532,7.2532,7.2532,7.2532,7.2532,7.2532,7.2532,7.2532,7.2532,7.2532,7.2532,7.2532,7.2532,7.2532,7.2532,7.2532,7.2532,7.2532,7.2532,7.2532,7.2789,7.3413,7.4515,7.5763,7.635,7.6607,7.7069,7.7289,7.7326,7.7326,7.7326,7.7326,7.7326,7.7326,7.7326,7.7326,7.7326,7.7326,7.7326,7.7326,7.7326,7.7326,7.7326,7.7326,7.7326,7.7326,7.7326,7.7326,7.7326,7.7326,7.7326,7.7326,7.7326,7.7326,7.7326,7.7326,7.7326,7.7326,7.7326,7.7326,7.7326,7.7326,7.7326,7.7326,7.7326,7.7326,7.7326,7.7326,7.7326,7.7326,7.7326,7.7326,7.7326,7.7326,7.6848,7.6093,7.5307,7.4478,7.3707,7.2973,7.2532,7.2606,7.2532,7.2569,7.2532,7.2532,7.2532,7.2532,7.2532,7.2532,7.2569,7.312,7.3523,7.3964,7.5322,7.5873,7.635,7.6959,7.6738,7.6151,7.5968,7.5637,7.505,7.4441,7.3795,7.3964,7.3156,7.2532,7.2532,7.2532,7.2532,7.2532,7.2532,7.2532,7.2532,7.2532,7.2532,7.2532,7.2532,7.2532,7.2532,7.2532,7.2532,7.2532,7.2532,7.2532,7.2532,7.2532,7.2532,7.2532,7.2532,7.2532,7.2532,7.2569,7.2532,7.3156,7.4037,7.516,7.5983,7.6665,7.7069,7.7252,7.7289,7.7326,7.7326,7.7326,7.7326,7.7326,7.7326,7.7326,7.7326,7.7326,7.7326,7.7326,7.7326,7.7326,7.7326,7.7326,7.7326,7.7326,7.7326,7.7326,7.7326,7.7326,7.7326,7.7326,7.7326,7.7326,7.7326,7.7326,7.7326,7.7326,7.7326,7.7326,7.7326,7.7326,7.7326,7.7326,7.7326,7.7326,7.7326,7.7326,7.7326,7.7326,7.7326,7.7326,7.7326,7.7326,7.7326,7.7105,7.6702,7.5894,7.5395,7.4955,7.4221,7.3597,7.323,7.3156,7.2936,7.2679,7.2532,7.2532,7.2532,7.2532,7.2532,7.2716,7.334,7.3927,7.4551,7.5506,7.624,7.6775,7.7032,7.7179,7.6812,7.6738,7.6518,7.6151,7.5454,7.5139,7.4771,7.378,7.334,7.3083,7.2789,7.2532,7.2532,7.2532,7.2532,7.2532,7.2532,7.2532,7.2532,7.2532,7.2532,7.2532,7.2532,7.2532,7.2532,7.2532,7.2532,7.2532,7.2532,7.2532,7.2532,7.2532,7.2532,7.2679,7.2973,7.3597,7.4368,7.5065,7.5858,7.6702,7.7069,7.7289,7.7326,7.7326,7.7326,7.7326,7.7326,7.7326,7.7326,7.7326,7.7326,7.7326,7.7326,7.7326,7.7326,7.7326,7.7326,7.7326,7.7326,7.7326,7.7326,7.7326,7.7326,7.7326,7.7326,7.7326,7.7326,7.7326,7.7326,7.7326,7.7326,7.7326,7.7326,7.7326,7.7326,7.7326,7.7326,7.7326,7.7326,7.7326,7.7326,7.7326,7.7326,7.7326,7.7326,7.7326,7.7326,7.7326,7.7326,7.7326,7.7326,7.7215,7.6445,7.6093,7.5983,7.516,7.4551,7.4147,7.3964,7.367,7.323,7.3193,7.3156,7.2826,7.2789,7.2789,7.3046,7.3634,7.4441,7.5249,7.6056,7.6738,7.7326,7.7252,7.7252,7.7289,7.7252,7.7215,7.7252,7.624,7.6019,7.5689,7.4771,7.3927,7.3523,7.312,7.2789,7.2569,7.2532,7.2532,7.2532,7.2532,7.2532,7.2532,7.2532,7.2532,7.2532,7.2532,7.2532,7.2532,7.2532,7.2532,7.2569,7.2716,7.2753,7.2606,7.2532,7.2606,7.2973,7.356,7.4515,7.5652,7.613,7.6423,7.7105,7.7252,7.7289,7.7326,7.7326,7.7326,7.7326,7.7326,7.7326,7.7326,7.7326,7.7326,7.7326,7.7326,7.7326,7.7326,7.7326,7.7326,7.7326,7.7326,7.7326,7.7326,7.7326,7.7326,7.7326,7.7326,7.7326,7.7326,7.7326,7.7326,7.7326,7.7326,7.7326,7.7326,7.7326,7.7326,7.7326,7.7326,7.7326,7.7326,7.7326,7.7326,7.7326,7.7326,7.7326,7.7326,7.7326,7.7326,7.7326,7.7326,7.7326,7.7326,7.7237,7.646,7.613,7.613,7.5344,7.4977,7.4845,7.4771,7.4647,7.461,7.439,7.4147,7.3597,7.3611,7.3597,7.3891,7.4441,7.5175,7.5894,7.6592,7.7179,7.7289,7.7326,7.7326,7.7326,7.7326,7.7326,7.7215,7.6628,7.6276,7.5946,7.5359,7.4331,7.3891,7.3487,7.3083,7.2679,7.2532,7.2532,7.2532,7.2532,7.2532,7.2532,7.2532,7.2532,7.2532,7.2532,7.2532,7.2532,7.2532,7.2532,7.2789,7.3156,7.3193,7.301,7.2936,7.3046,7.3634,7.4404,7.5212,7.6203,7.6166,7.6533,7.7179,7.7289,7.7326,7.7326,7.7326,7.7326,7.7326,7.7326,7.7326,7.7326,7.7326,7.7326,7.7326,7.7326,7.7326,7.7326,7.7326,7.7326,7.7326,7.7326,7.7326,7.7326,7.7326,7.7326,7.7326,7.7326,7.7326,7.7326,7.7326,7.7326,7.7326,7.7326,7.7326,7.7326,7.7326,7.7326,7.7326,7.7326,7.7326,7.7326,7.7326,7.7326,7.7326,7.7326,7.7326,7.7326,7.7326,7.7326,7.7326,7.7326,7.7326,7.7326,7.7289,7.6959,7.6848,7.6812,7.6518,7.6078,7.5616,7.516,7.4903,7.494,7.4903,7.4771,7.4478,7.4441,7.4441,7.4698,7.5249,7.5799,7.6387,7.6848,7.7289,7.7326,7.7326,7.7326,7.7326,7.7326,7.7326,7.7142,7.6922,7.6922,7.6592,7.5983,7.4992,7.4037,7.3685,7.3303,7.2679,7.2532,7.2532,7.2532,7.2532,7.2532,7.2532,7.2532,7.2532,7.2532,7.2569,7.2606,7.2679,7.2679,7.2863,7.3193,7.367,7.378,7.3927,7.3949,7.4353,7.4992,7.5542,7.5968,7.6665,7.6812,7.6922,7.7215,7.7326,7.7326,7.7326,7.7326,7.7326,7.7326,7.7326,7.7326,7.7326,7.7326,7.7326,7.7326,7.7326,7.7326,7.7326,7.7326,7.7326,7.7326,7.7326,7.7326,7.7326,7.7326,7.7326,7.7326,7.7326,7.7326,7.7326,7.7326,7.7326,7.7326,7.7326,7.7326,7.7326,7.7326,7.7326,7.7326,7.7326,7.7326,7.7326,7.7326,7.7326,7.7326,7.7326,7.7326,7.7326,7.7326,7.7326,7.7326,7.7326,7.7326,7.7326,7.7326,7.7326,7.7326,7.7326,7.7252,7.7032,7.6423,7.5821,7.5601,7.5601,7.5637,7.5454,7.5359,7.5285,7.5285,7.5469,7.5763,7.6203,7.6592,7.6922,7.7326,7.7326,7.7326,7.7326,7.7326,7.7326,7.7326,7.7326,7.7289,7.7252,7.7142,7.6738,7.5763,7.4735,7.4346,7.3817,7.3083,7.2899,7.2679,7.2679,7.2753,7.2936,7.2973,7.301,7.3156,7.3193,7.3193,7.3083,7.3156,7.3289,7.356,7.3927,7.4331,7.4588,7.483,7.5197,7.5506,7.5836,7.6298,7.6702,7.7142,7.7326,7.7252,7.7289,7.7326,7.7326,7.7326,7.7326,7.7326,7.7326,7.7326,7.7326,7.7326,7.7326,7.7326,7.7326,7.7326,7.7326,7.7326,7.7326,7.7326,7.7326,7.7326,7.7326,7.7326,7.7326,7.7326,7.7326,7.7326,7.7326,7.7326,7.7326,7.7326,7.7326,7.7326,7.7326,7.7326,7.7326,7.7326,7.7326,7.7326,7.7326,7.7326,7.7326,7.7326,7.7326,7.7326,7.7326,7.7326,7.7326,7.7326,7.7326,7.7326,7.7326,7.7326,7.7326,7.7326,7.7326,7.7326,7.7326,7.7252,7.7142,7.7032,7.7032,7.7032,7.6848,7.6555,7.6151,7.6093,7.6093,7.6166,7.6225,7.6628,7.6959,7.7289,7.7326,7.7326,7.7326,7.7326,7.7326,7.7326,7.7326,7.7326,7.7326,7.7326,7.7326,7.7289,7.6812,7.613,7.5909,7.4955,7.4001,7.367,7.334,7.3193,7.3413,7.367,7.367,7.367,7.3891,7.4206,7.3891,7.3964,7.4353,7.4463,7.4647,7.4845,7.5506,7.5542,7.5124,7.5726,7.6093,7.6313,7.6775,7.7142,7.7289,7.7326,7.7326,7.7326,7.7326,7.7326,7.7326,7.7326,7.7326,7.7326,7.7326,7.7326,7.7326,7.7326,7.7326,7.7326,7.7326,7.7326,7.7326,7.7326,7.7326,7.7326,7.7326,7.7326,7.7326,7.7326,7.7326,7.7326,7.7326,7.7326,7.7326,7.7326,7.7326,7.7326,7.7326,7.7326,7.7326,7.7326,7.7326,7.7326,7.7326,7.7326,7.7326,7.7326,7.7326,7.7326,7.7326,7.7326,7.7326,7.7326,7.7326,7.7326,7.7326,7.7326,7.7326,7.7326,7.7326,7.7326,7.7326,7.7326,7.7326,7.7326,7.7326,7.7326,7.7326,7.7289,7.7105,7.6922,7.6885,7.6885,7.6885,7.6848,7.7032,7.7289,7.7326,7.7326,7.7326,7.7326,7.7326,7.7326,7.7326,7.7326,7.7326,7.7326,7.7326,7.7326,7.7252,7.6885,7.624,7.5983,7.5579,7.461,7.4463,7.4316,7.4023,7.4331,7.4478,7.4478,7.4478,7.472,7.5014,7.4625,7.472,7.5014,7.505,7.5234,7.5542,7.6093,7.6276,7.6335,7.6812,7.6848,7.6959,7.7069,7.7326,7.7326,7.7326,7.7326,7.7326,7.7326,7.7326,7.7326,7.7326,7.7326,7.7326,7.7326,7.7326,7.7326,7.7326,7.7326,7.7326,7.7326,7.7326,7.7326,7.7326,7.7326,7.7326,7.7326,7.7326,7.7326,7.7326,7.7326,7.7326,7.7326,7.7326,7.7326,7.7326,7.7326,7.7326,7.7326,7.7326,7.7326,7.7326,7.7326,7.7326,7.7326,7.7326,7.7326,7.7326,7.7326,7.7326,7.7326,7.7326,7.7326,7.7326,7.7326,7.7326,7.7326,7.7326,7.7326,7.7326,7.7326,7.7326,7.7326,7.7326,7.7326,7.7326,7.7326,7.7326,7.7326,7.7326,7.7326,7.7326,7.7289,7.7289,7.7326,7.7289,7.7289,7.7289,7.7326,7.7326,7.7326,7.7326,7.7326,7.7326,7.7326,7.7326,7.7326,7.7326,7.7326,7.7326,7.7215,7.7105,7.6665,7.6533,7.6203,7.5579,7.5285,7.516,7.5028,7.5102,7.5307,7.5307,7.5344,7.5454,7.5527,7.5491,7.5491,7.5564,7.5784,7.6004,7.6371,7.6555,7.6812,7.7105,7.7215,7.7179,7.7252,7.7326,7.7326,7.7326,7.7326,7.7326,7.7326,7.7326,7.7326,7.7326,7.7326,7.7326,7.7326,7.7326,7.7326,7.7326,7.7326,7.7326,7.7326,7.7326,7.7326,7.7326,7.7326,7.7326,7.7326,7.7326,7.7326,7.7326,7.7326,7.7326,7.7326,7.7326,7.7326,7.7326,7.7326,7.7326,7.7326,7.7326,7.7326,7.7326,7.7326,7.7326,7.7326,7.7326,7.7326,7.7326,7.7326,7.7326,7.7326,7.7326,7.7326,7.7326,7.7326,7.7326,7.7326,7.7326,7.7326,7.7326,7.7326,7.7326,7.7326,7.7326,7.7326,7.7326,7.7326,7.7326,7.7326,7.7326,7.7326,7.7326,7.7326,7.7326,7.7326,7.7326,7.7326,7.7326,7.7326,7.7326,7.7326,7.7326,7.7326,7.7326,7.7326,7.7326,7.7326,7.7326,7.7326,7.7326,7.7326,7.7289,7.7215,7.7069,7.6995,7.6665,7.6225,7.613,7.5873,7.5711,7.5821,7.6093,7.613,7.6151,7.6481,7.6592,7.6518,7.6702,7.6959,7.7252,7.7289,7.7252,7.7215,7.7252,7.7289,7.7289,7.7326,7.7326,7.7326,7.7326,7.7326,7.7326,7.7326,7.7326,7.7326,7.7326,7.7326,7.7326,7.7326,7.7326,7.7326,7.7326,7.7326,7.7326,7.7326,7.7326,7.7326,7.7326,7.7326,7.7326,7.7326,7.7326,7.7326,7.7326,7.7326,7.7326,7.7326,7.7326,7.7326,7.7326,7.7326,7.7326,7.7326,7.7326,7.7326,7.7326,7.7326,7.7326,7.7326,7.7326,7.7326,7.7326,7.7326,7.7326,7.7326,7.7326,7.7326,7.7326,7.7326,7.7326,7.7326,7.7326,7.7326,7.7326,7.7326,7.7326,7.7326,7.7326,7.7326,7.7326,7.7326,7.7326,7.7326,7.7326,7.7326,7.7326,7.7326,7.7326,7.7326,7.7326,7.7326,7.7326,7.7326,7.7326,7.7326,7.7326,7.7326,7.7326,7.7326,7.7326,7.7326,7.7326,7.7326,7.7326,7.7326,7.7326,7.7326,7.7326,7.7326,7.7326,7.7105,7.6959,7.6848,7.6592,7.6628,7.6628,7.6848,7.6848,7.6848,7.7105,7.7105,7.7069,7.7179,7.7215,7.7326,7.7289,7.7289,7.7289,7.7289,7.7326,7.7326,7.7326,7.7326,7.7326,7.7326,7.7326,7.7326,7.7326,7.7326,7.7326,7.7326,7.7326,7.7326,7.7326,7.7326,7.7326,7.7326,7.7326,7.7326,7.7326,7.7326,7.7326,7.7326,7.7326,7.7326,7.7326,7.7326,7.7326,7.7326,7.7326,7.7326,7.7326,7.7326,7.7326,7.7326,7.7326,7.7326,7.7326,7.7326,7.7326,7.7326,7.7326,7.7326,7.7326,7.7326,7.7326,7.7326,7.7326,7.7326,7.7326,7.7326,7.7326,7.7326,7.7326,7.7326,7.7326,7.7326,7.7326,7.7326,7.7326,7.7326,7.7326,7.7326,7.7326,7.7326,7.7326,7.7326,7.7326,7.7326,7.7326,7.7326,7.7326,7.7326,7.7326,7.7326,7.7326,7.7326,7.7326,7.7326,7.7326,7.7326,7.7326,7.7326,7.7326,7.7326,7.7326,7.7326,7.7326,7.7326,7.7326,7.7326,7.7326,7.7326,7.7326,7.7326,7.7326,7.7326,7.7326,7.7326,7.7326,7.7326,7.7326,7.7326,7.7326,7.7326,7.7326,7.7326,7.7326,7.7326,7.7326,7.7326,7.7326,7.7326,7.7326,7.7326,7.7326,7.7326,7.7326,7.7326,7.7326,7.7326,7.7326,7.7326,7.7326,7.7326,7.7326,7.7326,7.7326,7.7326,7.7326,7.7326,7.7326,7.7326,7.7326,7.7326,7.7326,7.7326,7.7326,7.7326,7.7326,7.7326,7.7326,7.7326,7.7326,7.7326,7.7326,7.7326,7.7326,7.7326,7.7326,7.7326,7.7326,7.7326,7.7326,7.7326,7.7326,7.7326,7.7326,7.7326,7.7326,7.7326,7.7326,7.7326,7.7326,7.7326,7.7326,7.7326,7.7326,7.7326,7.7326,7.7326,7.7326,7.7326,7.7326,7.7326,7.7326,7.7326,7.7326,7.7326,7.7326,7.7326,7.7326,7.7326,7.7326,7.7326,7.7326,7.7326,7.7326,7.7326,7.7326,7.7326,7.7326,7.7326,7.7326,7.7326,7.7326,7.7326,7.7326,7.7326,7.7326,7.7326,7.7326,7.7326,7.7326,7.7326,7.7326,7.7326,7.7326,7.7326,7.7326,7.7326,7.7326,7.7326,7.7326,7.7326,7.7326,7.7326,7.7326,7.7326,7.7326,7.7326,7.7326,7.7326,7.7326,7.7326,7.7326,7.7326,7.7326,7.7326,7.7326,7.7326,7.7326,7.7326,7.7326,7.7326,7.7326,7.7326,7.7326,7.7326,7.7326,7.7326,7.7326,7.7326,7.7326,7.7326,7.7326,7.7326,7.7326,7.7326,7.7326,7.7326,7.7326,7.7326,7.7326,7.7326,7.7326,7.7326,7.7326,7.7326,7.7326,7.7326,7.7326,7.7326,7.7326,7.7326,7.7326,7.7326,7.7326,7.7326,7.7326,7.7326,7.7326,7.7326,7.7326,7.7326,7.7326,7.7326,7.7326,7.7326,7.7326,7.7326,7.7326,7.7326,7.7326,7.7326,7.7326,7.7326,7.7326,7.7326,7.7326,7.7326,7.7326,7.7326,7.7326,7.7326,7.7326,7.7326,7.7326,7.7326,7.7326,7.7326,7.7326,7.7326,7.7326,7.7326,7.7326,7.7326,7.7326,7.7326,7.7326,7.7326,7.7326,7.7326,7.7326,7.7326,7.7326,7.7326,7.7326,7.7326,7.7326,7.7326,7.7326,7.7326,7.7326,7.7326,7.7326,7.7326,7.7326,7.7326,7.7326,7.7326,7.7326,7.7326,7.7326,7.7326,7.7326,7.7326,7.7326,7.7326,7.7326,7.7326,7.7326,7.7326,7.7326,7.7326,7.7326,7.7326,7.7326,7.7326,7.7326,7.7326,7.7326,7.7326,7.7326,7.7326,7.7326,7.7326,7.7326,7.7326,7.7326,7.7326,7.7326,7.7326,7.7326,7.7326,7.7326,7.7326,7.7326,7.7326,7.7326,7.7326,7.7326,7.7326,7.7326,7.7326,7.7326,7.7326,7.7326,7.7326,7.7326,7.7326,7.7326,7.7326,7.7326,7.7326,7.7326,7.7326,7.7326,7.7326,7.7326,7.7326,7.7326,7.7326,7.7326,7.7326,7.7326,7.7326,7.7326,7.7326,7.7326,7.7326,7.7326,7.7326,7.7326,7.7326,7.7326,7.7326,7.7326,7.7326,7.7326,7.7326,7.7326,7.7326,7.7326,7.7326,7.7326,7.7326,7.7326,7.7326,7.7326,7.7326,7.7326,7.7326,7.7326,7.7326,7.7326,7.7326,7.7326,7.7326,7.7326,7.7326,7.7326,7.7326,7.7326,7.7326,7.7326,7.7326,7.7326,7.7326,7.7326,7.7326,7.7326,7.7326,7.7326,7.7326,7.7326,7.7326,7.7326,7.7326,7.7326,7.7326,7.7326,7.7326,7.7326,7.7326,7.7326,7.7326,7.7326,7.7326,7.7326,7.7326,7.7326,7.7326,7.7326,7.7326,7.7326,7.7326,7.7326,7.7326,7.7326,7.7326,7.7326,7.7326,7.7326,7.7326,7.7326,7.7326,7.7326,7.7326,7.7326,7.7326,7.7326,7.7326,7.7326,7.7326,7.7326,7.7326,7.7326,7.7326,7.7326,7.7326,7.7326,7.7326,7.7326,7.7326,7.7326,7.7326,7.7326,7.7326,7.7326,7.7326,7.7326,7.7326,7.7326,7.7326,7.7326,7.7326,7.7326,7.7326,7.7326,7.7326,7.7326,7.7326,7.7326,7.7326,7.7326,7.7326,7.7326,7.7326,7.7326,7.7326,7.7326,7.7326,7.7326,7.7326,7.7326,7.7326,7.7326,7.7326,7.7326,7.7326,7.7326,7.7326,7.7326,7.7326,7.7326,7.7326,7.7326,7.7326,7.7326,7.7326,7.7326,7.7326,7.7326,7.7326,7.7326,7.7326,7.7326,7.7326,7.7326,7.7326,7.7326,7.7326,7.7326,7.7326,7.7326,7.7326,7.7326,7.7326,7.7326,7.7326,7.7326,7.7326,7.7326,7.7326,7.7326,7.7326,7.7326,7.7326,7.7326,7.7326,7.7326,7.7326,7.7326,7.7326,7.7326,7.7326,7.7326,7.7326,7.7326,7.7326,7.7326,7.7326,7.7326,7.7326,7.7326,7.7326,7.7326,7.7326,7.7326,7.7326,7.7326,7.7326,7.7326,7.7326,7.7326,7.7326,7.7326,7.7326,7.7326,7.7326,7.7326,7.7326,7.7326,7.7326,7.7326,7.7326,7.7326,7.7326,7.7326,7.7326,7.7326,7.7326,7.7326,7.7326,7.7326,7.7326,7.7326,7.7326,7.7326,7.7326,7.7326,7.7326,7.7326,7.7326,7.7326,7.7326,7.7326,7.7326,7.7326,7.7326,7.7326,7.7326,7.7326,7.7326,7.7326,7.7326,7.7326,7.7326,7.7326,7.7326,7.7326,7.7326,7.7326,7.7326,7.7326,7.7326,7.7326,7.7326,7.7326,7.7326,7.7326,7.7326,7.7326,7.7326,7.7326,7.7326,7.7326,7.7326,7.7326,7.7326,7.7326,7.7326,7.7326,7.7326,7.7326,7.7326,7.7326,7.7326,7.7326,7.7326,7.7326,7.7326,7.7326,7.7326,7.7326,7.7326,7.7326,7.7326,7.7326,7.7326,7.7326,7.7326,7.7326,7.7326,7.7326,7.7326,7.7326,7.7326,7.7326,7.7326,7.7326,7.7326,7.7326,7.7326,7.7326,7.7326,7.7326,7.7326,7.7326,7.7326,7.7326,7.7326,7.7326,7.7326,7.7326,7.7326,7.7326,7.7326,7.7326,7.7326,7.7326,7.7326,7.7326,7.7326,7.7326,7.7326,7.7326,7.7326,7.7326,7.7326,7.7326,7.7326,7.7326,7.7326,7.7326,7.7326,7.7326,7.7326,7.7326,7.7326,7.7326,7.7326,7.7326,7.7326,7.7326,7.7326,7.7326,7.7326,7.7326,7.7326,7.7326,7.7326,7.7326,7.7326,7.7326]}]]